[[{"header":{"parameterUnit":"m.s-1","parameterCategory":1,"la1":30.6,"la2":29.2853,"lo1":-89.7004,"lo2":-87.6739,"dy":0.0162,"dx":0.0183,"nx":112,"ny":82,"refTime":"2026-03-30T12:00:00:Z","depth":0,"parameterNumber":2,"parameterNumberName":"U-component_of_WINDS"},"data":[0.0,0.0,0.0,0.0,0.0,0.0,0.0,0.0,0.0,0.0,0.0,0.0,0.0,0.0,0.0,0.0,0.0,0.0,0.0,0.0,0.0,0.0,0.0,0.0,0.0,0.0,0.0,0.0,0.0,0.0,0.0,0.0,0.0,0.0,0.0,0.0,0.0,0.0,0.0,0.0,0.0,0.0,0.0,0.0,0.0,0.0,0.0,0.0,0.0,0.0,0.0,0.0,0.0,0.0,0.0,0.0,0.0,0.0,0.0,0.0,0.0,0.0,0.0,0.0,0.0,0.0,0.0,0.0,0.0,0.0,0.0,0.0,0.0,0.0,0.0,0.0,0.0,0.0,0.0,0.0,0.0,0.0,0.0,0.0,0.0,0.0,0.0,0.0,0.0,0.0,0.0,-2.2066,-2.5399,-2.6584,-2.451,-2.3329,-2.1477,-1.8803,0.0,0.0,0.0,0.0,0.0,0.0,0.0,0.0,0.0,0.0,0.0,0.0,0.0,0.0,0.0,0.0,0.0,0.0,0.0,0.0,0.0,0.0,0.0,0.0,0.0,0.0,0.0,0.0,0.0,0.0,0.0,0.0,0.0,0.0,0.0,0.0,0.0,0.0,0.0,0.0,0.0,0.0,0.0,0.0,0.0,0.0,0.0,0.0,0.0,0.0,0.0,0.0,0.0,0.0,0.0,0.0,0.0,0.0,0.0,0.0,0.0,0.0,0.0,0.0,0.0,0.0,0.0,0.0,0.0,0.0,0.0,0.0,0.0,0.0,0.0,0.0,0.0,0.0,0.0,0.0,0.0,0.0,0.0,0.0,0.0,0.0,0.0,0.0,0.0,0.0,0.0,0.0,0.0,0.0,0.0,0.0,0.0,0.0,0.0,0.0,0.0,0.0,0.0,0.0,-1.9996,-2.4757,-2.6786,-2.7365,-2.6293,-2.444,-2.2532,-2.061,0.0,0.0,0.0,0.0,0.0,0.0,0.0,0.0,0.0,0.0,0.0,0.0,0.0,0.0,0.0,0.0,0.0,0.0,0.0,0.0,0.0,0.0,0.0,0.0,0.0,0.0,0.0,0.0,0.0,0.0,0.0,0.0,0.0,0.0,0.0,0.0,0.0,0.0,0.0,0.0,0.0,0.0,0.0,0.0,0.0,0.0,0.0,0.0,0.0,0.0,0.0,0.0,0.0,0.0,0.0,0.0,0.0,0.0,0.0,0.0,0.0,0.0,0.0,0.0,0.0,0.0,0.0,0.0,0.0,0.0,0.0,0.0,0.0,0.0,0.0,0.0,0.0,0.0,0.0,0.0,0.0,0.0,0.0,0.0,0.0,0.0,0.0,0.0,0.0,0.0,0.0,0.0,0.0,0.0,0.0,0.0,0.0,0.0,0.0,0.0,0.0,0.0,0.0,-2.0596,-2.3556,-2.6376,-2.7862,-2.7958,-2.6213,-2.4723,-2.2656,-1.9671,-1.6618,0.0,0.0,0.0,0.0,0.0,0.0,0.0,0.0,0.0,0.0,0.0,0.0,0.0,0.0,0.0,0.0,0.0,0.0,0.0,0.0,0.0,0.0,0.0,0.0,0.0,0.0,0.0,0.0,0.0,0.0,0.0,0.0,0.0,0.0,0.0,0.0,0.0,0.0,0.0,0.0,0.0,0.0,0.0,0.0,0.0,0.0,0.0,0.0,0.0,0.0,0.0,0.0,0.0,0.0,0.0,0.0,0.0,0.0,0.0,0.0,0.0,0.0,0.0,0.0,0.0,0.0,0.0,0.0,0.0,0.0,0.0,0.0,0.0,0.0,0.0,0.0,0.0,0.0,0.0,0.0,0.0,0.0,0.0,0.0,0.0,0.0,0.0,0.0,0.0,0.0,0.0,0.0,0.0,0.0,0.0,0.0,0.0,0.0,0.0,0.0,0.0,0.0,-2.4302,-2.6646,-2.7683,-2.8723,-2.8437,-2.6156,-2.4839,-2.2534,-1.8705,-1.6208,0.0,0.0,0.0,0.0,0.0,0.0,0.0,0.0,0.0,0.0,0.0,0.0,0.0,0.0,0.0,0.0,0.0,0.0,0.0,0.0,0.0,0.0,0.0,0.0,0.0,0.0,0.0,0.0,0.0,0.0,0.0,0.0,0.0,0.0,0.0,0.0,0.0,0.0,0.0,0.0,0.0,0.0,0.0,0.0,0.0,0.0,0.0,0.0,0.0,0.0,0.0,0.0,0.0,0.0,0.0,0.0,0.0,0.0,0.0,0.0,0.0,0.0,0.0,0.0,0.0,0.0,0.0,0.0,0.0,0.0,0.0,0.0,0.0,0.0,0.0,0.0,0.0,0.0,0.0,0.0,0.0,0.0,0.0,0.0,0.0,0.0,0.0,0.0,0.0,0.0,0.0,0.0,0.0,0.0,0.0,0.0,0.0,0.0,0.0,0.0,0.0,0.0,-2.5505,-2.7724,-2.9021,-2.9414,-2.8881,-2.7037,-2.4916,-2.2288,-1.9143,-1.594,0.0,0.0,0.0,0.0,0.0,0.0,0.0,0.0,0.0,0.0,0.0,0.0,0.0,0.0,0.0,0.0,0.0,0.0,0.0,0.0,0.0,0.0,0.0,0.0,0.0,0.0,0.0,0.0,0.0,0.0,0.0,0.0,0.0,0.0,0.0,0.0,0.0,0.0,0.0,0.0,0.0,0.0,0.0,0.0,0.0,0.0,0.0,0.0,0.0,0.0,0.0,0.0,0.0,0.0,0.0,0.0,0.0,0.0,0.0,0.0,0.0,0.0,0.0,0.0,0.0,0.0,0.0,0.0,0.0,0.0,0.0,0.0,0.0,0.0,0.0,0.0,0.0,0.0,0.0,0.0,0.0,0.0,0.0,0.0,0.0,0.0,0.0,0.0,0.0,0.0,0.0,0.0,0.0,0.0,0.0,0.0,0.0,0.0,0.0,0.0,0.0,0.0,-2.5999,-2.809,0.0,-2.9621,-2.8993,-2.6927,-2.4957,-2.227,-1.8596,0.0,0.0,0.0,0.0,0.0,0.0,0.0,0.0,0.0,0.0,0.0,0.0,0.0,0.0,0.0,0.0,0.0,0.0,0.0,0.0,0.0,0.0,0.0,0.0,0.0,0.0,0.0,0.0,0.0,0.0,0.0,0.0,0.0,0.0,0.0,0.0,0.0,0.0,0.0,0.0,0.0,0.0,0.0,0.0,0.0,0.0,0.0,0.0,0.0,0.0,0.0,0.0,0.0,0.0,0.0,0.0,0.0,0.0,0.0,0.0,0.0,0.0,0.0,0.0,0.0,0.0,0.0,0.0,0.0,0.0,0.0,0.0,0.0,0.0,0.0,0.0,0.0,0.0,0.0,0.0,0.0,0.0,0.0,0.0,0.0,0.0,0.0,0.0,0.0,0.0,0.0,0.0,0.0,0.0,0.0,0.0,0.0,0.0,0.0,0.0,0.0,0.0,-2.3619,-2.6455,-2.8504,0.0,-2.9756,-2.9044,-2.6927,-2.4957,-2.2251,-1.838,0.0,0.0,0.0,0.0,0.0,0.0,0.0,0.0,0.0,0.0,0.0,0.0,0.0,0.0,0.0,0.0,0.0,0.0,0.0,0.0,0.0,0.0,0.0,0.0,0.0,0.0,0.0,0.0,0.0,0.0,0.0,0.0,0.0,0.0,0.0,0.0,0.0,0.0,0.0,0.0,0.0,0.0,0.0,0.0,0.0,0.0,0.0,0.0,0.0,0.0,0.0,0.0,0.0,0.0,0.0,0.0,0.0,0.0,0.0,0.0,0.0,0.0,0.0,0.0,0.0,0.0,0.0,0.0,0.0,0.0,0.0,0.0,0.0,0.0,0.0,0.0,0.0,0.0,0.0,0.0,0.0,0.0,0.0,0.0,0.0,0.0,0.0,0.0,0.0,0.0,0.0,0.0,0.0,0.0,0.0,0.0,0.0,0.0,0.0,0.0,0.0,0.0,-2.4032,-2.6931,-2.898,-2.9891,-2.9764,-2.8891,-2.714,-2.4912,-2.2149,0.0,0.0,0.0,0.0,0.0,0.0,0.0,0.0,0.0,0.0,0.0,0.0,0.0,0.0,0.0,0.0,0.0,0.0,0.0,0.0,0.0,0.0,0.0,0.0,0.0,0.0,0.0,0.0,0.0,0.0,0.0,0.0,0.0,0.0,0.0,0.0,0.0,0.0,0.0,0.0,0.0,0.0,0.0,0.0,0.0,0.0,0.0,0.0,0.0,0.0,0.0,0.0,0.0,0.0,0.0,0.0,0.0,0.0,0.0,0.0,0.0,0.0,0.0,0.0,0.0,0.0,0.0,0.0,0.0,0.0,0.0,0.0,0.0,0.0,0.0,0.0,0.0,0.0,0.0,0.0,0.0,0.0,0.0,0.0,0.0,0.0,0.0,0.0,0.0,0.0,0.0,0.0,0.0,0.0,0.0,0.0,0.0,0.0,0.0,0.0,0.0,0.0,0.0,-2.4032,-2.6931,-2.898,-2.9891,-2.9942,-2.9116,-2.7296,-2.5704,-2.327,-1.9661,0.0,0.0,0.0,0.0,0.0,0.0,0.0,0.0,0.0,0.0,0.0,0.0,0.0,0.0,0.0,0.0,0.0,0.0,0.0,0.0,0.0,0.0,0.0,0.0,0.0,0.0,0.0,0.0,0.0,0.0,0.0,0.0,0.0,0.0,0.0,0.0,0.0,0.0,0.0,0.0,0.0,0.0,0.0,0.0,0.0,0.0,0.0,0.0,0.0,0.0,0.0,0.0,0.0,0.0,0.0,0.0,0.0,0.0,0.0,0.0,0.0,0.0,0.0,0.0,0.0,0.0,0.0,0.0,0.0,0.0,0.0,0.0,0.0,0.0,0.0,0.0,0.0,0.0,0.0,0.0,0.0,0.0,0.0,0.0,0.0,0.0,0.0,0.0,0.0,0.0,0.0,0.0,0.0,0.0,0.0,0.0,0.0,0.0,0.0,0.0,0.0,0.0,-2.3826,-2.6806,-2.8897,-2.9642,-2.9766,-2.9239,-2.7722,-2.6355,-2.4187,-2.0781,0.0,0.0,0.0,0.0,0.0,0.0,0.0,0.0,0.0,0.0,0.0,0.0,0.0,0.0,0.0,0.0,0.0,0.0,0.0,0.0,0.0,0.0,0.0,0.0,0.0,0.0,0.0,0.0,0.0,0.0,0.0,0.0,0.0,0.0,0.0,0.0,0.0,0.0,0.0,0.0,0.0,0.0,0.0,0.0,0.0,0.0,0.0,0.0,0.0,0.0,0.0,0.0,0.0,0.0,0.0,0.0,0.0,0.0,0.0,0.0,0.0,0.0,0.0,0.0,0.0,0.0,0.0,0.0,0.0,0.0,0.0,0.0,0.0,0.0,0.0,0.0,0.0,0.0,0.0,0.0,0.0,0.0,0.0,0.0,0.0,0.0,0.0,0.0,0.0,0.0,0.0,0.0,0.0,0.0,0.0,0.0,0.0,0.0,0.0,0.0,0.0,0.0,-2.3515,-2.6641,-2.8794,-2.9249,-2.9497,-2.9238,-2.8268,-2.697,-2.4953,-2.1929,0.0,0.0,0.0,0.0,0.0,0.0,0.0,0.0,0.0,0.0,0.0,0.0,0.0,0.0,0.0,0.0,0.0,0.0,0.0,0.0,0.0,0.0,0.0,0.0,0.0,0.0,0.0,0.0,0.0,0.0,0.0,0.0,0.0,0.0,0.0,0.0,0.0,0.0,0.0,0.0,0.0,0.0,0.0,0.0,0.0,0.0,0.0,0.0,0.0,0.0,0.0,0.0,0.0,0.0,0.0,0.0,0.0,0.0,0.0,0.0,-1.8838,0.0,0.0,0.0,0.0,0.0,0.0,0.0,0.0,0.0,0.0,0.0,0.0,0.0,0.0,0.0,0.0,0.0,0.0,0.0,0.0,0.0,0.0,0.0,0.0,0.0,0.0,0.0,0.0,0.0,0.0,0.0,0.0,0.0,0.0,0.0,0.0,0.0,0.0,0.0,0.0,0.0,-2.3515,-2.6641,-2.8794,-2.9249,-2.9673,-2.9466,-2.8318,-2.7647,-2.5973,-2.2824,-2.0024,0.0,0.0,0.0,0.0,0.0,0.0,0.0,0.0,0.0,0.0,0.0,0.0,0.0,0.0,0.0,0.0,0.0,0.0,0.0,0.0,0.0,0.0,0.0,0.0,0.0,0.0,0.0,0.0,0.0,0.0,0.0,0.0,0.0,0.0,0.0,0.0,0.0,0.0,0.0,0.0,0.0,0.0,0.0,0.0,0.0,0.0,0.0,0.0,0.0,0.0,0.0,0.0,0.0,0.0,0.0,0.0,0.0,0.0,0.0,0.0,-2.0726,0.0,0.0,0.0,0.0,0.0,0.0,0.0,0.0,0.0,0.0,0.0,0.0,0.0,0.0,0.0,0.0,0.0,0.0,0.0,0.0,0.0,0.0,0.0,0.0,0.0,0.0,0.0,0.0,0.0,0.0,0.0,0.0,0.0,0.0,0.0,0.0,0.0,0.0,0.0,0.0,-2.3204,-2.6123,-2.8214,-2.8897,-2.9291,-2.9219,-2.8604,-2.7821,-2.6337,-2.3874,-2.1132,0.0,0.0,0.0,0.0,0.0,0.0,0.0,0.0,0.0,0.0,0.0,0.0,0.0,0.0,0.0,0.0,0.0,0.0,0.0,0.0,0.0,0.0,0.0,0.0,0.0,0.0,0.0,0.0,0.0,0.0,0.0,0.0,0.0,0.0,0.0,0.0,0.0,0.0,0.0,0.0,0.0,0.0,0.0,0.0,0.0,0.0,0.0,0.0,0.0,0.0,0.0,0.0,0.0,-3.0658,-3.1104,-3.1406,-3.141,-3.1601,-3.1676,-2.7695,-2.5591,-2.494,-2.4331,0.0,0.0,0.0,0.0,0.0,0.0,0.0,0.0,0.0,0.0,0.0,0.0,0.0,0.0,0.0,0.0,0.0,0.0,0.0,0.0,0.0,0.0,0.0,0.0,-2.4426,-2.395,-2.0741,0.0,0.0,0.0,0.0,0.0,0.0,0.0,0.0,0.0,0.0,0.0,-2.306,-2.5813,-2.7821,-2.8649,-2.8962,-2.9034,-2.8983,-2.8045,-2.6701,-2.5006,-2.2372,-1.9909,0.0,0.0,0.0,0.0,0.0,0.0,0.0,0.0,0.0,0.0,0.0,0.0,0.0,0.0,0.0,0.0,0.0,0.0,0.0,0.0,0.0,0.0,0.0,0.0,0.0,0.0,0.0,0.0,0.0,0.0,0.0,0.0,-1.8462,-1.9596,0.0,0.0,0.0,0.0,0.0,0.0,0.0,0.0,0.0,0.0,0.0,0.0,0.0,-2.9063,-3.1311,-3.2943,-3.4003,-3.463,-3.5253,-3.5487,-3.5351,-3.5095,-3.518,-3.5478,-3.4702,0.0,-2.9305,-2.8339,0.0,0.0,0.0,0.0,0.0,0.0,0.0,0.0,0.0,0.0,0.0,0.0,0.0,0.0,0.0,0.0,0.0,0.0,0.0,0.0,0.0,0.0,-2.6791,-2.72,-2.7966,-2.8235,0.0,-2.455,-2.2356,-2.1362,-1.9789,0.0,0.0,0.0,0.0,0.0,0.0,0.0,-2.397,-2.6744,-2.8628,-2.9166,-2.957,-2.9694,-2.9281,-2.8734,-2.7778,-2.6171,-2.4249,-2.2229,-2.0232,-1.7668,0.0,0.0,0.0,0.0,0.0,0.0,0.0,0.0,0.0,0.0,0.0,0.0,0.0,0.0,0.0,0.0,0.0,0.0,0.0,0.0,0.0,0.0,0.0,0.0,0.0,0.0,0.0,0.0,0.0,-1.9358,-2.1478,-2.2276,-2.265,-2.26,0.0,0.0,0.0,0.0,0.0,0.0,0.0,0.0,0.0,-3.0145,-3.1788,-3.3677,-3.5931,-3.7312,-3.8417,-3.927,-3.9823,-4.0197,-4.0392,-4.0315,-4.0333,-4.0451,-4.0046,-3.8751,-3.6702,-3.3254,-3.0769,-2.8874,0.0,0.0,0.0,0.0,-2.6492,-2.7794,-2.9361,-2.9312,-2.8499,-2.8174,0.0,0.0,0.0,0.0,0.0,0.0,0.0,0.0,0.0,0.0,-2.8587,-2.9311,-2.9787,-2.9891,-2.9228,-2.78,-2.6123,0.0,-2.2625,-2.0948,-1.9527,0.0,0.0,0.0,0.0,-2.2069,-2.4569,-2.6822,-2.8504,-2.9228,-2.9477,-2.9622,-2.9684,-2.9021,-2.8206,-2.7242,-2.5628,-2.3881,-2.1983,-1.994,-1.8056,0.0,0.0,0.0,0.0,0.0,0.0,0.0,0.0,0.0,0.0,0.0,0.0,0.0,0.0,0.0,0.0,0.0,0.0,0.0,0.0,0.0,0.0,0.0,0.0,0.0,0.0,0.0,0.0,-2.2418,-2.4506,-2.5385,-2.5963,-2.5929,0.0,0.0,0.0,0.0,0.0,0.0,-2.9101,-3.0382,-3.2139,-3.4519,-3.5881,-3.7663,-3.995,-4.0877,-4.1831,-4.2841,-4.3212,-4.3614,-4.4016,-4.4016,-4.4016,-4.3991,-4.3589,-4.3162,-4.2484,-3.7961,-3.5134,-3.3514,-3.1522,-3.0736,-3.0736,-3.0736,-3.1508,-3.2704,-3.4074,-3.3911,-3.3003,-3.2474,-3.0683,-2.8524,-2.7268,0.0,0.0,0.0,0.0,-2.6601,-2.836,-2.9317,-3.0036,-3.0843,-3.1133,-3.1071,-3.0615,-3.0056,-2.9021,0.0,-2.5026,-2.3474,-2.2211,0.0,0.0,0.0,0.0,-2.3287,-2.5482,-2.722,-2.8587,-2.9394,-2.9477,-2.9622,-2.9973,-2.9145,-2.8462,-2.8131,-2.6666,-2.5115,-2.3535,-2.2063,-2.0251,-1.8139,0.0,0.0,0.0,0.0,0.0,0.0,0.0,0.0,0.0,0.0,0.0,0.0,0.0,0.0,0.0,0.0,0.0,0.0,0.0,0.0,0.0,0.0,0.0,0.0,0.0,0.0,0.0,0.0,0.0,-2.9302,-2.998,0.0,0.0,0.0,0.0,-3.0809,-3.106,-3.2039,-3.4223,-3.4424,-3.573,-3.8542,-3.917,-4.0551,-4.276,-4.3338,-4.394,-4.4493,-4.4518,-4.4543,-4.4593,-4.4593,-4.4593,-4.4593,-4.4543,-4.4518,-4.4317,-4.1952,-4.0022,-3.8417,-3.6684,-3.6009,-3.6034,-3.6031,-3.6686,-3.7865,-3.952,-3.9421,-3.8316,-3.7211,-3.3972,-3.0482,-3.0382,-2.9515,0.0,0.0,-3.0028,-2.9897,-3.1046,-3.13,-3.1381,-3.1802,-3.2313,-3.2442,-3.1988,-3.1236,-3.0056,0.0,-2.6703,-2.544,-2.4487,0.0,-2.1921,-2.2873,-2.3805,-2.5068,-2.6957,-2.838,-2.9415,-2.9911,-2.9953,-2.9973,-2.9994,-2.9145,-2.8607,-2.8587,-2.7282,-2.6103,-2.5127,-2.3763,-2.2004,-1.9741,-1.7812,0.0,0.0,0.0,0.0,0.0,0.0,0.0,0.0,0.0,0.0,0.0,0.0,0.0,0.0,0.0,0.0,0.0,0.0,0.0,0.0,0.0,0.0,0.0,0.0,0.0,0.0,0.0,0.0,-3.2767,-3.3771,0.0,-3.3778,-3.2616,-3.2591,-3.4494,-3.5651,-3.686,-3.8366,-3.9471,-4.0651,-4.2007,-4.2585,-4.3237,-4.4041,-4.4242,-4.4618,-4.5171,-4.5171,-4.5372,-4.5698,-4.5347,-4.5171,-4.5171,-4.4794,-4.4618,-4.4568,-4.3765,-4.2484,-4.0905,-3.9546,-3.8818,-3.8517,-3.8517,-3.8969,-3.9747,-4.0674,-4.0551,-3.9747,-3.8617,-3.6709,-3.4851,-3.4851,-3.4299,-3.3734,-3.3839,-3.3457,-3.3128,-3.3475,-3.3237,-3.3005,-3.3274,-3.3283,-3.3029,-3.2086,-3.1221,-3.0408,-2.9435,-2.8131,-2.6993,-2.6392,-2.5254,-2.4633,-2.5319,-2.5896,-2.6744,-2.7966,-2.9083,-2.9808,-2.9973,-2.9994,-2.987,-2.958,-2.898,-2.8483,-2.8193,-2.7448,-2.6646,-2.5689,-2.4902,-2.3557,-2.1607,-1.9047,-1.7184,0.0,0.0,0.0,0.0,0.0,0.0,0.0,0.0,0.0,0.0,0.0,0.0,0.0,0.0,0.0,0.0,0.0,0.0,0.0,0.0,0.0,0.0,0.0,0.0,0.0,0.0,-3.3972,-3.5629,-3.681,-3.7337,-3.6985,-3.6107,-3.6182,-3.7663,-3.8969,-4.0099,-4.1028,-4.2283,-4.3237,-4.379,-4.4342,-4.4719,-4.492,-4.5095,-4.5397,-4.5773,-4.5773,-4.5949,-4.6301,-4.5924,-4.5773,-4.5748,-4.5372,-4.5196,-4.5196,-4.5196,-4.4443,-4.3218,-4.2057,-4.1404,-4.1053,-4.0877,-4.1028,-4.1404,-4.1756,-4.153,-4.0953,-4.0277,-3.9346,-3.8592,-3.8592,-3.8341,-3.7941,-3.7493,-3.6809,-3.6128,-3.5958,-3.5236,-3.4647,-3.4648,-3.4289,-3.3626,-3.256,-3.1366,-3.0367,-3.0056,-2.9001,-2.811,-2.7966,-2.7179,-2.6724,-2.7179,-2.751,-2.7986,-2.8752,-2.9518,-2.9994,-2.9994,-2.9994,-2.987,-2.9559,-2.898,-2.8421,-2.7945,-2.7365,-2.6667,-2.5689,-2.5378,-2.4364,-2.2542,-1.9562,-1.7564,-1.6552,0.0,0.0,0.0,0.0,0.0,0.0,0.0,0.0,0.0,0.0,0.0,0.0,0.0,0.0,0.0,0.0,0.0,0.0,0.0,0.0,0.0,0.0,0.0,-2.9704,-3.3219,-3.621,-3.7939,-3.912,-3.9798,-3.9823,-3.932,-3.9446,-4.0501,-4.105,-4.1656,-4.2238,-4.2766,-4.3237,-4.3815,-4.4317,-4.4895,-4.5472,-4.6024,-4.6301,-4.6301,-4.6301,-4.6301,-4.6301,-4.6301,-4.6301,-4.6301,-4.6301,-4.6301,-4.6301,-4.6301,-4.5999,-4.5397,-4.4267,-4.3815,-4.374,-4.3187,-4.2986,-4.2986,-4.2986,-4.269,-4.2238,-4.2238,-4.1831,-4.1326,-4.13,-4.13,-4.1247,-4.0902,-3.9834,-3.8695,-3.837,-3.7263,-3.6208,-3.5904,-3.5212,-3.436,-3.3583,-3.1646,-3.0067,-3.0047,-2.9321,-2.8844,-2.9228,-2.8566,-2.8152,-2.8587,-2.8649,0.0,-2.927,-2.9725,-2.9994,-2.9994,-2.9994,-2.9994,-2.9973,-2.9145,-2.8421,-2.7924,-2.7055,-2.6144,-2.521,-2.5168,-2.4301,-2.248,-1.9341,-1.7068,-1.5711,0.0,0.0,0.0,0.0,0.0,0.0,0.0,0.0,0.0,0.0,0.0,0.0,0.0,0.0,0.0,0.0,0.0,0.0,0.0,0.0,0.0,-2.8938,-3.1788,-3.2641,-3.5755,-3.8718,-4.083,-4.1656,-4.2233,-4.2635,-4.2183,-4.1982,-4.2283,-4.2811,-4.3187,-4.3338,-4.3112,-4.3413,-4.4367,-4.4166,-4.4493,-4.5472,-4.6024,-4.6301,-4.6301,-4.6301,-4.6301,-4.6301,-4.6301,-4.6301,-4.6301,-4.6301,-4.6301,-4.6301,-4.6301,-4.6225,-4.5974,-4.4844,-4.4141,-4.374,-4.3187,-4.2986,-4.2986,-4.2986,-4.2886,-4.276,-4.276,-4.266,-4.2459,-4.2057,-4.1932,-4.1626,-4.0159,-3.929,-3.8624,-3.7972,-3.7623,-3.7364,-3.685,-3.653,-3.5911,-3.4133,-3.2709,-3.1629,-3.1232,-3.1003,-3.0542,-2.9485,-2.9373,-2.9477,-2.9601,-2.9622,0.0,-2.9787,-2.9911,-2.9994,-2.9994,-2.9994,-2.9849,-2.9518,-2.8959,-2.8276,-2.7489,-2.6579,-2.5668,-2.4735,-2.4693,-2.3515,-2.1052,-1.981,-1.8248,0.0,0.0,0.0,0.0,0.0,0.0,0.0,0.0,0.0,0.0,0.0,0.0,0.0,0.0,0.0,0.0,0.0,0.0,0.0,0.0,0.0,0.0,-3.2055,-3.5052,-3.6784,-3.8868,-4.0855,-4.2363,-4.3187,-4.379,-4.4116,-4.3639,-4.3413,-4.3639,-4.3966,-4.4041,-4.3815,-4.3714,-4.3865,-4.4267,-4.4192,-4.4568,-4.5472,-4.6024,-4.6301,-4.6301,-4.6301,-4.6301,-4.6301,-4.6301,-4.6301,-4.6301,-4.6301,-4.6301,-4.6301,-4.6301,-4.6301,0.0,0.0,0.0,0.0,0.0,-4.3664,-4.3664,-4.3664,-4.3664,-4.3639,-4.3388,-4.3313,-4.3162,-4.2439,-4.1886,-4.1229,-3.9867,-3.8812,-3.8112,-3.8158,-3.8275,-3.8286,-3.8084,-3.7898,-3.7356,-3.5525,-3.41,-3.3048,-3.2779,-3.2555,0.0,-3.1476,-3.1322,-3.118,-3.0884,-3.0758,-3.0517,-3.0224,-3.0047,-2.9994,-2.9994,-2.9994,-2.9891,-2.9622,-2.9166,0.0,0.0,0.0,-2.5668,-2.4549,-2.4321,0.0,0.0,0.0,0.0,0.0,0.0,0.0,0.0,-1.7388,-1.7732,0.0,0.0,0.0,0.0,0.0,0.0,0.0,0.0,0.0,0.0,0.0,0.0,0.0,0.0,0.0,0.0,-3.4977,-3.7914,-4.1003,-4.2057,-4.2766,-4.3212,-4.4116,-4.4719,-4.4719,-4.4267,-4.4166,-4.4593,-4.4694,-4.4468,-4.3915,0.0,0.0,0.0,0.0,-4.502,-4.5673,-4.6225,-4.6476,-4.6476,-4.6476,-4.6476,-4.6476,-4.6476,-4.6476,-4.6476,-4.6476,-4.6476,-4.6476,-4.6426,-4.6376,-4.625,-4.5698,-4.5447,-4.5321,-4.4819,-4.4618,-4.4618,-4.4618,0.0,0.0,-4.3991,-4.379,-4.3589,-4.2539,-4.143,-4.0475,-3.9873,-3.8567,-3.7613,-3.8668,-3.902,-3.9119,-3.9337,-3.9202,-3.8634,-3.7312,-3.5718,-3.4504,-3.4485,-3.4183,-3.4066,-3.4435,-3.384,-3.3078,-3.2376,-3.1921,-3.1412,-3.0673,-3.0224,-2.9994,-2.9994,0.0,0.0,-2.9994,-2.9559,-2.8938,-2.8048,-2.7055,-2.5937,-2.4631,-2.4198,-2.3764,-2.335,-2.2542,-2.1859,-2.1342,-2.1445,-2.1614,-2.1904,-2.0467,-2.0099,0.0,0.0,0.0,0.0,0.0,0.0,0.0,0.0,0.0,0.0,0.0,0.0,0.0,0.0,0.0,-3.453,-3.7613,-4.0249,-4.1835,-4.3639,-4.4869,-4.4995,-4.5196,-4.5321,-4.5321,-4.5221,-4.502,-4.4644,-4.5045,-4.507,-4.4493,-4.4568,-4.4794,-4.5146,-4.5271,-4.5799,-4.6803,-4.733,-4.7606,-4.7606,0.0,0.0,-4.7606,-4.7606,-4.7606,-4.7606,-4.7606,-4.7606,-4.7556,-4.7154,-4.6702,-4.625,-4.5698,-4.5196,-4.4769,-4.4669,-4.4618,-4.4618,-4.4618,-4.4618,-4.4543,-4.3991,-4.379,-4.3589,-4.2539,-4.1706,0.0,-3.9973,-3.9145,-3.8642,-3.8869,-3.9521,-4.0172,-4.0009,-4.0059,-3.981,-3.8469,-3.7376,-3.649,-3.6111,-3.6302,-3.6439,-3.6327,-3.5265,-3.4334,-3.4005,-3.2967,-3.2128,-3.1749,-3.0674,-2.9994,-2.9994,-2.9994,-2.9994,-2.9994,-2.9559,-2.9063,-2.8504,-2.6931,-2.573,-2.5086,-2.4611,-2.4321,-2.4239,-2.4053,-2.3598,-2.2791,-2.3474,-2.3433,-2.2674,-2.2389,-2.2859,0.0,0.0,0.0,0.0,0.0,0.0,0.0,0.0,0.0,0.0,0.0,-2.9101,-3.106,0.0,-3.568,-3.7362,-3.9471,-4.1505,-4.3162,-4.4593,-4.5497,-4.5497,-4.5723,-4.5899,-4.5899,-4.5648,-4.5472,-4.5472,-4.5472,-4.5372,-4.507,-4.5321,-4.5598,-4.5899,-4.6175,-4.6702,-4.7506,-4.7782,-4.7908,-4.7908,-4.7908,-4.7908,-4.7908,-4.7908,-4.7908,-4.7908,-4.7908,-4.7757,-4.7481,-4.6954,-4.6552,-4.6276,-4.5999,-4.5723,-4.5472,-4.5472,-4.5472,-4.5472,-4.5472,-4.5472,-4.5372,-4.4819,-4.4644,-4.4443,-4.3313,-4.2208,-4.1125,-4.035,-3.9295,-3.8567,-3.9145,-3.9898,-4.0523,-4.0639,-4.1006,-4.1072,-4.0092,-3.9537,-3.9087,-3.8598,-3.8696,-3.869,-3.816,-3.7116,-3.5993,-3.4888,-3.3927,-3.2993,-3.2212,-3.1305,-3.0677,-3.0677,-3.0677,-3.0594,-3.0367,-2.9704,-2.9104,-2.8649,-2.7531,-2.6599,-2.5937,-2.5896,-2.5792,-2.5564,-2.5771,-2.5689,-2.5277,-2.5689,-2.5747,-2.5386,-2.5386,-2.5296,0.0,0.0,0.0,0.0,0.0,0.0,0.0,0.0,-2.6766,-2.9076,-3.106,-3.2867,-3.455,-3.6408,-3.8191,-3.9747,-4.0927,-4.2359,-4.4342,-4.5221,-4.5623,-4.5497,-4.5974,-4.6301,-4.6301,-4.5899,-4.5824,-4.6276,-4.5999,-4.5799,-4.5799,-4.6426,-4.6778,-4.6778,-4.733,-4.7807,-4.8234,-4.8234,-4.8234,-4.8234,-4.8234,-4.8234,-4.8234,-4.8134,-4.8083,-4.8083,-4.7958,-4.7606,-4.7043,-4.6652,-4.6401,-4.6301,-4.6301,-4.6301,-4.6301,-4.6301,-4.6301,-4.6301,-4.6301,-4.6301,-4.6225,-4.5673,-4.5497,-4.5296,-4.4267,-4.2961,-4.1652,-4.1153,-3.9948,-3.8994,-3.9798,-4.0425,-4.0953,-4.1404,-4.1831,-4.2032,-4.1497,-4.1297,-4.1096,-4.0592,-4.0389,-4.0059,-3.922,-3.834,-3.7222,-3.5703,-3.4683,-3.3704,-3.2598,-3.186,-3.1381,-3.1381,-3.1381,-3.1195,-3.0719,-2.9911,-2.9249,-2.8773,-2.8317,-2.7738,-2.6993,-2.7372,-2.7345,-2.7019,-2.7289,-2.7392,-2.7309,-2.7226,-2.7262,-2.7531,-2.7717,-2.7153,-2.134,-2.318,-2.6223,-2.7369,-2.8825,-3.008,0.0,0.0,-3.1436,-3.4104,-3.5303,-3.6355,-3.8064,-3.8919,-3.9798,-4.0924,-4.2082,-4.3237,-4.4443,-4.5547,-4.6024,-4.5547,-4.5974,-4.6301,-4.6301,-4.625,-4.625,-4.6301,-4.6702,-4.6892,-4.6892,-4.7933,-4.851,-4.851,-4.9038,-4.9339,-4.9414,-4.9414,-4.9414,-4.9414,-4.9414,-4.9414,-4.9389,-4.8912,-4.8686,-4.8636,-4.8134,-4.7606,-4.7129,-4.7079,-4.6753,-4.6301,-4.6301,-4.6301,-4.6301,-4.6301,-4.6301,-4.6301,-4.6301,-4.6301,-4.6225,-4.5673,-4.5497,-4.5372,-4.4719,-4.4066,-4.3413,-4.2861,-4.2263,-4.1659,-4.1254,-4.1555,-4.2037,-4.2112,-4.2162,-4.2078,-4.1728,-4.13,-4.0819,-4.0498,-4.0025,-3.9414,-3.8533,-3.7726,-3.7126,-3.6895,-3.5156,-3.3672,-3.33,-3.2159,-3.1381,-3.1381,-3.1381,-3.1195,-3.0719,-3.0222,-2.9725,-2.9249,-2.8794,-2.8483,-2.84,-2.8442,-2.8442,-2.838,-2.8028,-2.7655,-2.7309,-2.6895,-2.6501,-2.6123,-2.6998,-2.7903,-2.4983,-2.6449,-2.8862,-3.0557,-3.2491,-3.4098,-3.465,-3.5002,-3.5755,-3.7588,-3.8894,-4.0,-4.0704,-4.1229,-4.1856,0.0,-4.3162,-4.384,-4.497,-4.5799,-4.5974,-4.5095,-4.4895,-4.497,-4.5296,-4.5321,-4.5472,-4.5799,-4.6652,-4.7068,-4.7068,-4.8184,-4.8761,-4.8761,-4.9314,-4.959,-4.959,-4.959,-4.959,-4.959,-4.959,-4.9439,-4.9113,-4.8887,-4.8586,-4.8234,-4.7682,-4.733,-4.7043,-4.6778,-4.6527,-4.6301,-4.6301,-4.6301,-4.6301,-4.6301,-4.6301,-4.6301,-4.6301,-4.6301,-4.6276,-4.605,-4.5748,-4.5447,-4.5196,-4.4493,-4.374,-4.3514,-4.3062,-4.264,-4.2359,-4.2459,-4.269,-4.269,-4.269,-4.2579,-4.2246,-4.1545,-4.0828,-4.0178,-3.9411,-3.8577,-3.7437,-3.6529,-3.578,-3.5378,-3.4494,-3.3775,-3.3317,-3.2609,-3.2168,-3.2168,-3.1919,-3.1692,-3.1485,-3.105,-3.0594,-3.0139,-2.9684,-2.9187,-2.8628,-2.8607,-2.8483,-2.8214,-2.8297,-2.8235,-2.8048,-2.7862,-2.7655,-2.7489,-2.7862,-2.8504,-2.7921,-2.9302,-3.1235,-3.3463,-3.5575,-3.7285,-3.7939,-3.8417,-3.8969,-3.9948,-4.1103,-4.1982,-4.2187,-4.2359,-4.2811,-4.3664,-4.379,-4.4192,-4.5321,-4.5974,-4.5899,-4.4769,-4.3991,-4.3664,-4.3915,-4.4217,-4.4644,-4.5196,-4.6552,-4.7355,-4.7355,-4.8385,-4.9012,-4.9012,-4.9238,-4.9364,-4.9364,-4.9213,-4.9138,-4.9138,-4.9138,-4.8912,-4.8535,-4.8385,-4.8008,-4.7456,-4.7079,-4.6903,-4.6878,-4.6476,-4.6301,-4.6301,-4.6301,-4.6301,-4.6301,-4.6301,-4.6301,-4.6301,-4.6301,-4.6301,-4.6301,-4.6301,-4.5949,-4.5497,-4.5497,-4.4794,-4.3991,-4.384,-4.3514,-4.3162,-4.3011,-4.2986,-4.2986,-4.2986,-4.2986,-4.2874,-4.2481,-4.1753,-4.1004,-4.0107,-3.9093,-3.8034,-3.6737,-3.5675,-3.4731,-3.3883,-3.3706,-3.348,-3.3126,-3.2841,-3.2669,-3.2669,-3.238,-3.2132,-3.1988,-3.1629,-3.1236,-3.0905,-3.045,-2.9953,-2.9394,-2.9373,-2.9208,-2.8876,-2.9083,-2.9187,-2.9187,-2.9063,-2.9001,-2.9001,-2.9001,-2.9166,-2.9126,-3.1311,-3.3539,-3.5751,-3.7586,-3.9069,-4.0174,-4.0425,-4.0601,-4.1125,-4.1275,-4.153,-4.2112,-4.1731,-4.1852,-4.3539,-4.379,-4.4192,-4.5321,-4.5974,-4.5899,-4.4769,-4.3664,-4.2866,0.0,-4.3187,-4.4066,-4.4618,-4.6652,-4.7883,-4.7883,-4.8962,-4.9565,-4.9565,-4.9063,-4.8786,-4.8786,-4.8234,-4.7958,-4.7958,-4.7958,-4.7958,-4.7908,-4.7405,-4.6878,-4.6351,-4.6351,-4.6326,-4.6326,-4.6326,-4.6301,-4.6301,-4.6301,-4.6301,-4.6301,-4.6301,-4.6301,-4.6301,-4.6301,-4.6301,-4.6301,-4.6301,-4.5949,-4.5497,-4.5497,-4.507,-4.4493,-4.394,-4.379,-4.3664,-4.3112,-4.2986,-4.2986,-4.2986,-4.2986,-4.2818,-4.2256,-4.1859,-4.132,-4.0374,-3.9256,-3.8055,-3.6751,-3.5517,-3.4354,-3.3359,-3.2955,-3.2727,-3.2727,-3.2727,-3.2669,-3.2669,-3.2669,-3.2463,-3.2029,-3.1629,-3.136,-3.136,-3.0926,-3.0864,-3.1278,-3.1298,-3.1298,-3.1278,-3.0843,-3.0615,-3.0615,-3.018,-2.9953,-2.9953,-2.9953,-2.9973,-3.126,-3.3319,-3.5253,-3.7462,-3.927,-4.0701,-4.143,-4.1882,-4.2007,-4.1401,-4.1,-4.0852,-4.1028,-4.1229,-4.1702,-4.3037,-4.4192,-4.5045,-4.5447,-4.5974,-4.5748,-4.4267,-4.3438,0.0,0.0,0.0,0.0,-4.3463,-4.5598,-4.7004,-4.738,-4.8786,-4.9439,-4.9063,-4.8862,-4.8586,-4.8209,-4.8008,-4.7908,-4.7908,-4.7556,-4.738,-4.738,-4.6828,-4.6476,-4.6301,-4.6301,-4.6301,-4.6301,-4.6301,-4.6301,-4.6301,-4.6301,-4.6301,-4.6301,-4.6301,-4.6301,-4.6301,-4.6301,-4.6301,-4.6301,-4.6301,-4.5673,-4.492,-4.492,-4.4267,-4.3489,-4.3313,-4.3263,-4.3212,-4.3037,-4.2986,-4.2986,-4.2986,-4.2986,-4.2874,-4.2481,-4.1777,-4.1043,-4.0374,-3.8866,-3.7414,-3.6479,-3.5456,-3.455,-3.3855,-3.3178,-3.2669,-3.2669,-3.2669,-3.2669,-3.2669,-3.2669,-3.2607,-3.2463,-3.2354,-3.2147,-3.1836,-3.1402,-3.1071,-3.0926,-3.0615,-3.047,-3.047,-3.0305,-3.0222,-3.0222,-3.0077,-2.9994,-2.9994,-2.9994,-3.016,-3.3545,-3.5604,-3.7414,-3.9295,-4.0701,-4.1781,-4.2363,-4.2615,-4.2308,-4.1028,-3.9998,-3.932,-3.932,-3.9622,-4.04,-4.2108,-4.379,-4.502,-4.5422,-4.5974,-4.5748,-4.4267,-4.3614,-4.271,0.0,0.0,0.0,-4.261,-4.4568,-4.605,-4.6803,-4.8209,-4.8837,-4.8485,-4.8284,-4.8008,-4.7631,-4.7431,-4.733,-4.733,-4.7004,-4.6828,-4.6828,-4.6476,-4.6301,-4.6301,-4.6301,-4.6301,-4.6301,-4.6301,-4.6301,-4.6301,-4.6301,-4.6301,-4.6301,-4.6301,-4.6301,-4.6301,-4.6301,-4.6301,-4.6301,-4.6301,-4.5673,-4.4945,-4.4945,-4.4292,-4.3564,-4.3564,-4.3413,-4.3263,-4.3263,-4.3112,-4.2986,-4.2986,-4.2986,-4.293,-4.2569,-4.1923,-4.1215,-4.0548,-3.9098,-3.7717,-3.6719,-3.5572,-3.4583,-3.4173,-3.3575,-3.3161,-3.2975,-3.283,-3.2669,-3.2669,-3.2669,-3.2669,-3.2669,-3.2669,-3.2545,-3.2256,-3.2023,-3.1733,-3.1422,-3.1133,-3.0967,-3.0967,-3.0967,-3.0967,-3.0967,-3.0967,-3.0967,-3.0967,-3.0967,-3.1133,-3.5977,-3.8165,-4.0124,-4.115,-4.1856,-4.2414,-4.2861,-4.259,-4.1685,-3.9923,-3.8191,-3.6985,-3.6985,-3.6985,-3.7939,-4.0674,-4.266,-4.4192,-4.5296,-4.5949,-4.5899,0.0,0.0,0.0,0.0,0.0,0.0,-4.2213,0.0,-4.507,-4.62,-4.7305,-4.7908,-4.7857,-4.738,-4.7129,-4.7043,-4.6577,-4.6301,-4.6301,-4.6301,-4.6301,-4.6301,-4.6301,-4.6301,-4.6301,-4.6301,-4.6301,-4.6301,-4.6301,-4.6301,-4.6301,-4.6301,-4.6301,-4.6301,-4.6301,-4.6301,-4.6301,-4.6301,-4.6301,-4.6301,-4.6301,-4.5949,-4.5497,-4.5497,-4.507,-4.4618,-4.4618,-4.4217,-4.379,-4.379,-4.3388,-4.2986,-4.2986,-4.2986,-4.293,-4.2569,-4.2344,-4.1891,-4.0976,-4.0024,-3.8866,-3.7414,-3.5854,-3.461,-3.4194,-3.4173,-3.3986,-3.343,-3.3016,-3.2747,-3.2669,-3.2669,-3.2669,-3.2669,-3.2669,-3.2669,-3.2669,-3.2669,-3.2669,-3.2669,-3.2669,-3.2669,-3.2669,-3.2669,-3.2669,-3.2669,-3.2669,-3.2669,-3.2669,-3.2669,-3.2669,-3.814,-4.045,-4.2308,-4.2986,-4.3288,-4.3313,-4.3037,-4.2233,-4.0852,-3.8341,-3.5855,-3.4167,-3.4167,-3.4449,-3.5655,-3.8417,-4.163,0.0,-4.4744,-4.5698,0.0,-4.5347,0.0,-4.4618,-4.3489,-4.2384,0.0,0.0,-4.3765,-4.4493,-4.5623,-4.7104,-4.7732,-4.733,-4.7143,-4.6928,-4.6527,-4.6376,-4.6301,-4.6301,-4.6301,-4.6301,-4.6301,-4.6301,-4.6301,-4.6301,-4.6301,-4.6301,-4.6301,-4.6301,-4.6301,-4.6301,-4.6301,-4.6301,-4.6301,-4.6301,-4.6301,-4.6301,-4.6301,-4.6301,-4.6301,-4.6301,-4.5949,-4.5497,-4.5497,-4.507,-4.4618,-4.4618,-4.4217,-4.379,-4.379,-4.3388,-4.2986,-4.2986,-4.2986,-4.2986,-4.2874,-4.2793,-4.2625,-4.2118,-4.0952,-3.937,-3.7575,-3.6768,-3.604,-3.5188,-3.4797,-3.436,-3.3492,-3.3285,-3.3078,-3.2768,-3.2669,-3.2669,-3.2669,-3.2669,-3.2669,-3.2669,-3.2669,-3.2669,-3.2669,-3.2669,-3.2669,-3.2669,-3.2669,-3.2669,-3.2669,-3.2669,-3.2669,-3.2669,-3.2669,-3.2669,-4.0074,-4.2032,-4.3413,-4.3714,-4.379,-4.3539,-4.2484,-4.1229,-3.9471,-3.6684,-3.3721,-3.1712,-3.1938,-3.2441,-3.3796,0.0,0.0,0.0,-4.379,-4.4644,-4.5095,0.0,-4.4744,0.0,-4.3865,-4.3237,-4.3237,0.0,-4.3714,-4.4041,-4.5422,-4.6577,-4.7079,-4.6778,-4.6778,-4.6627,-4.6301,-4.6301,-4.6301,-4.6301,-4.6301,-4.6301,-4.6301,-4.6301,-4.6301,-4.6301,0.0,-4.6301,-4.6301,-4.6301,-4.6301,-4.6301,-4.6301,-4.6301,-4.6301,-4.6301,-4.6301,-4.6301,-4.6301,-4.6301,-4.6301,-4.6301,-4.61,-4.5849,-4.5849,-4.5623,-4.5372,-4.5372,-4.497,-4.4543,-4.4543,-4.394,-4.3338,-4.3338,-4.3162,-4.2986,-4.2986,-4.2986,-4.2874,-4.24,-4.1296,-3.9826,-3.8029,-3.7413,-3.6707,-3.5541,-3.5211,-3.4797,-3.4072,-3.3803,-3.3596,-3.3348,-3.3141,-3.3016,-3.3016,-3.2851,-3.2669,-3.2669,-3.2669,-3.2669,-3.2669,-3.2669,-3.2669,-3.2669,-3.2669,-3.2669,-3.2669,-3.2669,-3.2669,-3.2669,-3.2669,-3.2669,-4.1861,-4.3187,-4.4016,-4.394,-4.3865,-4.3338,-4.1476,-3.9672,-3.7513,-3.465,-3.1436,-2.9327,-2.9955,-3.0608,-3.219,-3.5625,0.0,-4.1605,-4.271,-4.3338,-4.3714,-4.379,-4.379,-4.3865,-4.4016,-4.4041,-4.4242,-4.4819,-4.389,-4.394,-4.5422,-4.6024,-4.6301,-4.6301,-4.6301,-4.6301,-4.6301,-4.6301,-4.6301,-4.6301,-4.6301,-4.6301,-4.6301,-4.6301,-4.6301,-4.6301,-4.6301,-4.6301,-4.6301,-4.6301,-4.6301,-4.6301,-4.6301,-4.6301,-4.6301,-4.6301,-4.6301,-4.6301,-4.6301,-4.6301,-4.6301,-4.6301,-4.6301,-4.6301,-4.6301,-4.6301,-4.6301,-4.6301,-4.5924,-4.5497,-4.5497,-4.4644,-4.379,-4.379,-4.3388,-4.2986,-4.2986,-4.2986,-4.2874,-4.2344,-4.1492,-4.0374,-3.8707,-3.7894,-3.7071,-3.5603,-3.5418,-3.5273,-3.49,-3.4505,-3.4194,-3.4132,-3.372,-3.3451,-3.3389,-3.3037,-3.2789,-3.2669,-3.2669,-3.2669,-3.2669,-3.2669,-3.2669,-3.2669,-3.2669,-3.2669,-3.2669,-3.2669,-3.2669,-3.2669,-3.2669,-3.2669,-4.3162,-4.4342,-4.507,-4.4593,-4.4141,-4.3137,-4.0551,-3.7638,0.0,-3.1311,-2.7996,-2.5988,-2.7027,-2.8373,-3.0608,-3.4399,-3.8191,-4.1053,-4.2187,-4.2816,-4.3288,0.0,-4.379,-4.4166,-4.5095,-4.5196,0.0,0.0,-4.5422,-4.5171,-4.5472,-4.6024,-4.6301,-4.6301,-4.6301,-4.6301,-4.6301,-4.6301,-4.6301,-4.6301,-4.6301,-4.6301,-4.6301,-4.6301,-4.6301,-4.6301,-4.6301,0.0,-4.6301,-4.6301,-4.6301,-4.6301,-4.6301,-4.6301,-4.6301,-4.6301,-4.6301,-4.6301,-4.6301,-4.6301,-4.6301,-4.6301,-4.6301,-4.6301,-4.6301,-4.6301,-4.6301,-4.6301,-4.5924,-4.5497,-4.5497,-4.4644,-4.379,-4.379,-4.3388,-4.2986,-4.2986,-4.2986,-4.2986,-4.2874,-4.2312,-4.1263,-3.9357,-3.8529,-3.7533,-3.5665,-3.5418,-3.5397,-3.5314,-3.4921,-3.4546,-3.4113,-3.4049,-3.3782,-3.341,-3.3306,-3.312,-3.269,-3.2669,-3.2669,-3.2669,-3.2669,-3.2669,-3.2669,-3.2669,-3.2669,-3.2669,-3.2669,-3.2669,-3.2669,-3.2669,-3.2669,-4.394,-4.4844,-4.5271,-4.4418,-4.3564,-4.2057,-3.8718,0.0,0.0,-2.9101,-2.6063,-2.4249,-2.541,-2.6716,-2.8825,-3.2416,-3.6031,-3.8743,-3.9848,-4.0727,-4.158,-4.2409,-4.2785,-4.3489,0.0,-4.5573,-4.6024,-4.6301,-4.6075,-4.5924,-4.5924,-4.6175,-4.6301,-4.6301,-4.6301,-4.6301,-4.6301,-4.6301,-4.6301,-4.6301,-4.6301,-4.6301,-4.6301,-4.6301,-4.6301,-4.6301,-4.6301,-4.6301,-4.6301,-4.6301,-4.6301,-4.6301,-4.6301,-4.6301,-4.6301,-4.6301,-4.6301,-4.6301,-4.6301,-4.6301,-4.6301,-4.6301,-4.6301,-4.6301,-4.6301,-4.6301,-4.6301,-4.6301,-4.6125,-4.5924,-4.5924,-4.5296,-4.4669,-4.4669,-4.4016,-4.3313,-4.3037,-4.2986,-4.2986,-4.2986,-4.2481,-4.1573,-4.0001,-3.9062,-3.7954,-3.6156,-3.5788,-3.5603,-3.5418,-3.5231,-3.5024,-3.4797,-3.4569,-3.4401,-3.4173,-3.3865,-3.3658,-3.343,-3.343,-3.343,-3.343,-3.343,-3.343,-3.343,-3.343,-3.343,-3.343,-3.343,-3.343,-3.343,-3.343,-3.343,-4.4342,-4.4945,-4.4995,-4.3765,-4.2534,-4.0629,-3.6606,-3.3036,-2.9729,-2.6967,-2.428,-2.2744,-2.3873,-2.5008,-2.6901,0.0,-3.3571,-3.6157,-3.7462,-3.8617,-3.9798,0.0,-4.1656,0.0,-4.4443,-4.5648,0.0,-4.6301,-4.6301,-4.6301,-4.6301,-4.6301,-4.6301,-4.6301,-4.6301,-4.6301,-4.6301,-4.6301,-4.6301,-4.6301,-4.6301,-4.6301,-4.6301,-4.6301,-4.6301,-4.6301,-4.6301,-4.6301,-4.6301,-4.6301,-4.6301,-4.6301,-4.6301,-4.6301,-4.6301,-4.6301,-4.6301,-4.6301,-4.6301,-4.6301,-4.6301,-4.6301,-4.6301,-4.6301,-4.6301,-4.6301,-4.6301,-4.6301,-4.6301,-4.6301,-4.6301,-4.5899,-4.5422,-4.5171,-4.4443,-4.3639,-4.3087,-4.2986,-4.2986,-4.2986,-4.2538,-4.1802,-4.0582,-3.965,-3.8551,-3.6828,-3.634,-3.5911,-3.5479,-3.5418,-3.5418,-3.5418,-3.5107,-3.4859,-3.4837,-3.4484,-3.4235,-3.4132,-3.4132,-3.4132,-3.4132,-3.4132,-3.4132,-3.4132,-3.4132,-3.4132,-3.4132,-3.4132,-3.4132,-3.4132,-3.4132,-3.4132,-4.4468,-4.4669,-4.4317,-4.2766,-4.1157,-3.8768,-3.4419,-3.0407,-2.6866,-2.4048,-2.1666,-2.0464,-2.1594,-2.2698,-2.465,-2.8487,-3.1537,-3.4167,-3.6254,-3.7462,-3.8768,-4.04,0.0,0.0,-4.4418,-4.5648,-4.6301,-4.6301,-4.6301,-4.6301,-4.6301,-4.6301,-4.6301,-4.6301,-4.6301,-4.6301,-4.6301,-4.6301,-4.6301,-4.6301,-4.6301,-4.6301,-4.6301,-4.6301,-4.6301,-4.6301,-4.6301,-4.6301,0.0,-4.6301,-4.6301,-4.6301,-4.6301,-4.6301,-4.6301,-4.6301,-4.6301,-4.6301,-4.6301,-4.6301,-4.6301,-4.6301,-4.6301,-4.6301,-4.6301,-4.6301,-4.6301,-4.6301,-4.6301,-4.6301,-4.6301,-4.5899,-4.5221,-4.4192,-4.389,-4.3639,-4.3087,-4.2986,-4.2986,-4.2986,-4.2706,-4.2174,-4.1157,-4.0466,-3.9393,-3.7489,-3.6967,-3.6462,-3.5541,-3.5418,-3.5418,-3.5418,-3.5376,-3.519,-3.4857,-3.4774,-3.4567,-3.4152,-3.4132,-3.4132,-3.4132,-3.4132,-3.4132,-3.4132,-3.4132,-3.4132,-3.4132,-3.4132,-3.4132,-3.4132,-3.4132,-3.4132,-4.2986,-4.3865,-4.4141,-4.2158,-3.9898,-3.7111,-3.2993,-2.8825,-2.5209,-2.3045,-2.1142,-2.0037,-2.0867,-2.1619,-2.3201,-2.6389,-2.8976,-3.1336,-3.3545,-3.5403,-3.701,-3.8341,-3.9597,0.0,0.0,0.0,-4.5573,-4.625,-4.6301,-4.6301,-4.6301,-4.6301,-4.6301,-4.6301,-4.6301,-4.6301,-4.6301,-4.6301,-4.6301,-4.6301,-4.6301,-4.6301,-4.6301,-4.6301,-4.6301,-4.6301,-4.6301,-4.6301,0.0,-4.6301,-4.6301,-4.6301,-4.6301,-4.6301,-4.6301,-4.6301,-4.6301,-4.6301,-4.6301,-4.6301,-4.6301,-4.6301,-4.6301,-4.6301,-4.6301,-4.6301,-4.6301,-4.6301,-4.6301,-4.6301,-4.6301,-4.615,-4.5799,-4.4995,-4.4819,-4.4669,-4.4091,-4.3876,-4.3604,-4.3337,-4.2782,-4.2143,-4.1311,-4.0339,-3.9203,-3.7812,-3.705,-3.6279,-3.5479,-3.5418,-3.5418,-3.5418,-3.5418,-3.5355,-3.5169,-3.5148,-3.5086,-3.49,-3.4879,-3.4879,-3.4879,-3.4879,-3.4879,-3.4879,-3.4879,-3.4879,-3.4879,-3.4879,-3.4879,-3.4879,-3.4879,-3.4879,-4.143,-4.2886,-4.3564,-4.1204,-3.8642,-3.5629,-3.1587,-2.7519,-2.4104,-2.2422,-2.0865,-1.9936,-2.0365,-2.0715,-2.1845,-2.4456,-2.643,-2.8562,-3.1135,-3.342,-3.5232,0.0,0.0,-3.9672,0.0,-4.3463,-4.5095,-4.6225,-4.6301,-4.6301,-4.6301,-4.6301,-4.6301,-4.6301,-4.6301,-4.6301,-4.6301,-4.6301,-4.6301,-4.6301,-4.6301,-4.6301,-4.6301,-4.6301,-4.6301,-4.6301,-4.6301,-4.6301,0.0,-4.6301,-4.6301,-4.6301,-4.6301,-4.6301,-4.6301,-4.6301,-4.6301,-4.6301,-4.6301,-4.6301,-4.6301,-4.6301,-4.6301,-4.6301,-4.6301,-4.6301,-4.6301,-4.6301,-4.6301,-4.6301,-4.6301,-4.6301,-4.6175,-4.5623,-4.5497,-4.5321,-4.4744,-4.4411,-4.397,-4.3111,-4.2525,-4.1808,-4.0782,-3.9814,-3.8812,-3.7834,-3.7011,-3.6279,-3.5479,-3.5418,-3.5418,-3.5418,-3.5418,-3.5418,-3.5418,-3.5418,-3.5418,-3.5418,-3.5418,-3.5418,-3.5418,-3.5418,-3.5418,-3.5418,-3.5418,-3.5418,-3.5418,-3.5418,-3.5418,-3.5418,-3.5418,-3.5418,-4.0074,-4.1731,-4.2333,-3.9623,-3.7211,-3.4354,-2.9916,-2.6389,-2.3527,-2.1845,-2.0589,-1.9811,-1.9811,-1.9811,-2.0539,-2.2769,-2.4098,-2.6038,-2.9352,-3.1712,-3.3721,0.0,0.0,-3.809,-4.0325,-4.3011,-4.5095,-4.6225,-4.6301,0.0,-4.6301,-4.6301,-4.6301,-4.6301,-4.6301,-4.6301,-4.6301,-4.6301,-4.6301,-4.6301,-4.6301,-4.6301,-4.6301,-4.6301,-4.6301,-4.6301,-4.6301,-4.6301,0.0,-4.6301,-4.6301,-4.6301,-4.6301,-4.6301,-4.6301,-4.6301,-4.6301,-4.6301,-4.6301,-4.6301,-4.6301,-4.6301,-4.6301,-4.6301,-4.6301,-4.6301,-4.6301,-4.6301,-4.6301,-4.6301,-4.6301,-4.6301,-4.6175,-4.5623,-4.5497,-4.5321,-4.4744,-4.4411,-4.377,-4.2224,-4.1659,-4.0964,-3.9485,-3.898,-3.8447,-3.7489,-3.7089,-3.6524,-3.5541,-3.5418,-3.5418,-3.5418,-3.5418,-3.5418,-3.5418,-3.5418,-3.5418,-3.5418,-3.5418,-3.5418,-3.5418,-3.5418,-3.5418,-3.5418,-3.5418,-3.5418,-3.5418,-3.5418,-3.5418,-3.5418,-3.5418,-3.5418,-3.6207,-3.804,-3.9019,-3.6634,-3.4349,-3.1838,-2.8549,-2.5234,-2.2573,-2.1669,-2.0589,-1.9811,-1.9811,-1.9811,-2.0413,-2.2243,-2.317,-2.4926,-2.8637,0.0,0.0,-3.5257,-3.7864,-4.0174,0.0,0.0,-4.5095,-4.6225,-4.6301,-4.6301,-4.6301,-4.6301,-4.6301,-4.6301,-4.6301,-4.6301,-4.6301,-4.6301,-4.6301,-4.6301,-4.6301,-4.6301,-4.6301,-4.6301,-4.6301,-4.6301,-4.6301,-4.6301,-4.6301,-4.6301,-4.6301,-4.6301,-4.6301,-4.6301,-4.6301,-4.6301,-4.6301,-4.6301,-4.6301,-4.6301,-4.6301,-4.6301,-4.6301,-4.6301,-4.6301,-4.6301,-4.6301,-4.6301,-4.6301,-4.6301,-4.6301,-4.6301,-4.6276,-4.61,-4.605,-4.5999,-4.5824,-4.5356,-4.4642,-4.3516,-4.2699,-4.1747,-4.0448,-3.9627,-3.8781,-3.7653,-3.7055,-3.6392,-3.5521,-3.5418,-3.5418,-3.5418,-3.5418,-3.5418,-3.5418,-3.5418,-3.5418,-3.5418,-3.5418,-3.5418,-3.5418,-3.5418,-3.5418,-3.5418,-3.5418,-3.5418,-3.5418,-3.5418,-3.5418,-3.5418,-3.5418,-3.5418,-3.2591,-3.4625,-3.568,-3.3671,-3.1662,-2.9478,-2.6942,-2.4104,-2.1845,-2.132,-2.0439,-1.9811,-1.9811,-1.9811,-2.0288,-2.1769,-2.2297,-2.3847,-2.777,0.0,0.0,-3.6408,0.0,0.0,0.0,-4.384,-4.5095,-4.6225,-4.6301,-4.6301,-4.6301,-4.6301,-4.6301,-4.6301,-4.6301,-4.6301,-4.6301,-4.6301,-4.6301,-4.6301,-4.6301,-4.6301,-4.6301,-4.6301,-4.6301,-4.6301,-4.6301,-4.6301,0.0,-4.6301,-4.6301,-4.6301,-4.6301,-4.6301,-4.6301,-4.6301,-4.6301,-4.6301,-4.6301,-4.6301,-4.6301,-4.6301,-4.6301,-4.6301,-4.6301,-4.6301,-4.6301,-4.6301,-4.6301,-4.6301,-4.6301,-4.6301,-4.6301,-4.6301,-4.6301,-4.6301,-4.6301,-4.5878,-4.5159,-4.4026,-4.314,-4.197,-4.0292,-3.9397,-3.8516,-3.723,-3.6666,-3.6206,-3.548,-3.5418,-3.5418,-3.5418,-3.5418,-3.5418,-3.5418,-3.5583,-3.5687,-3.5687,-3.5687,-3.5687,-3.5687,-3.5521,-3.5418,-3.5418,-3.5418,-3.5418,-3.5418,-3.5418,-3.5418,-3.5418,-3.5418,-3.5418,0.0,-3.1336,-3.234,-3.0733,-2.9076,-2.7318,-2.5151,-2.3,0.0,-2.0792,-2.0239,-1.9811,-1.9861,-1.9861,-2.0238,-2.1418,-2.1644,-2.3025,0.0,-3.003,0.0,0.0,-4.0526,0.0,-4.2338,-4.3765,-4.5146,-4.6225,-4.6301,-4.6301,-4.6301,-4.6301,-4.6301,-4.6301,-4.6301,-4.6301,-4.6301,-4.6301,-4.6301,-4.6301,-4.6301,-4.6301,-4.6301,-4.6301,-4.6301,0.0,-4.6301,-4.6301,-4.6301,-4.6301,-4.6301,-4.6301,-4.6301,-4.6301,-4.6301,-4.6301,-4.6301,-4.6301,-4.6301,-4.6301,-4.6301,-4.6301,-4.6301,-4.6301,-4.6301,-4.6301,-4.6301,-4.6301,-4.6301,-4.6301,-4.6301,-4.6301,-4.6301,-4.6301,-4.6301,-4.6301,-4.6301,-4.6059,-4.5401,-4.3953,-4.3164,-4.1893,-3.9427,-3.8671,-3.791,-3.6393,-3.6204,-3.6039,-3.5583,-3.5521,-3.55,-3.548,-3.548,-3.5459,-3.5418,-3.5852,-3.6121,-3.6121,-3.6142,-3.6142,-3.6121,-3.5707,-3.5459,-3.5418,-3.5418,-3.5418,-3.5418,-3.5418,-3.5418,-3.5418,-3.5418,-3.5418,-2.3778,0.0,-2.8976,-2.7781,-2.6515,-2.5202,0.0,-2.2146,-2.0842,-2.0717,-2.0239,-1.9936,-2.0415,-2.049,-2.0993,-2.2468,-2.3125,-2.4757,-2.8649,0.0,0.0,-4.1106,-4.2484,-4.3438,-4.3991,-4.4794,-4.5573,-4.625,-4.6301,-4.6301,-4.6301,-4.6301,-4.6301,-4.6301,-4.6301,-4.6301,-4.6301,-4.6301,-4.6301,-4.6301,-4.6301,-4.6301,-4.6301,-4.6301,-4.6301,-4.6301,-4.6301,-4.6301,-4.6301,-4.6301,-4.6301,-4.6301,-4.6301,-4.6301,-4.6301,-4.6301,-4.6301,-4.6301,-4.6301,-4.6301,-4.6301,-4.6301,-4.6301,-4.6301,-4.6301,-4.6301,-4.6301,-4.6301,-4.6301,-4.6301,-4.6301,-4.6301,-4.6301,-4.6301,-4.6301,-4.6301,-4.6301,-4.6059,-4.5646,-4.4988,-4.4168,-4.288,-4.0953,-4.0144,-3.9174,-3.7434,-3.7177,-3.7011,-3.6535,-3.6473,-3.6349,-3.5976,-3.5956,-3.5811,-3.5459,-3.5852,-3.6121,-3.6121,-3.6453,-3.6473,-3.6121,-3.5997,-3.579,-3.5438,-3.5418,-3.5418,-3.5418,-3.5418,-3.5418,-3.5418,-3.5418,-3.5418,-2.1694,-2.3828,-2.5686,-2.5084,-2.4305,-2.3452,-2.2543,-2.1091,-1.9987,-2.0239,-1.9836,-1.9685,-2.0541,-2.0893,-2.1594,-2.3251,-2.4431,-2.6952,0.0,0.0,-4.045,-4.266,-4.389,-4.4694,0.0,-4.5522,-4.5999,-4.6276,-4.6301,-4.6301,-4.6301,-4.6301,-4.6301,-4.6301,-4.6301,-4.6301,-4.6301,-4.6301,-4.6301,-4.6301,-4.6301,-4.6301,-4.6301,-4.6301,-4.6301,-4.6301,-4.6301,-4.6301,-4.6301,-4.6301,-4.6301,-4.6301,-4.6301,-4.6301,-4.6301,-4.6301,-4.6301,-4.6301,-4.6301,-4.6301,-4.6301,-4.6301,-4.6301,-4.6301,-4.6301,-4.6301,-4.6301,-4.6301,-4.6301,-4.6301,-4.6301,-4.6301,-4.6301,-4.6301,-4.6301,-4.6301,-4.6301,-4.618,-4.5999,-4.5793,-4.5061,-4.3864,-4.1993,-4.1119,-4.0018,-3.7812,-3.7488,-3.7322,-3.6867,-3.6804,-3.6618,-3.6163,-3.6121,-3.5914,-3.5459,-3.5852,-3.6204,-3.6411,-3.6867,-3.6908,-3.6453,-3.6225,-3.5894,-3.5438,-3.5418,-3.5418,-3.5418,-3.5418,-3.5418,-3.5418,-3.5418,-3.5418,-2.1194,-2.2171,-2.302,-2.3195,-2.2895,-2.2447,-2.197,-2.0715,-1.9735,-2.0112,-1.981,-1.981,-2.0893,-2.1568,-2.2573,-2.433,-2.644,0.0,-3.5952,-3.9069,-4.153,-4.3564,-4.4794,0.0,-4.5497,-4.5999,-4.6301,-4.6301,-4.6301,-4.6301,-4.6301,-4.6301,-4.6301,-4.6301,-4.6301,-4.6301,-4.6301,-4.6301,-4.6301,-4.6301,-4.6301,-4.6301,-4.6301,-4.6301,-4.6301,-4.6301,0.0,0.0,-4.6301,-4.6301,-4.6301,-4.6301,-4.6301,-4.6301,-4.6301,-4.6301,-4.6301,-4.6301,-4.6301,-4.6301,-4.6301,-4.6301,-4.6301,-4.6301,-4.6301,-4.6301,-4.6301,-4.6301,-4.6301,-4.6301,-4.6301,-4.6301,-4.6301,-4.6301,-4.624,-4.624,-4.624,-4.618,-4.618,-4.618,-4.5696,-4.4546,-4.254,-4.1674,-4.0471,-3.7981,-3.7612,-3.7446,-3.7074,-3.7011,-3.6825,-3.637,-3.6328,-3.6142,-3.5666,-3.6059,-3.6494,-3.6887,-3.7218,-3.7177,-3.6722,-3.6246,-3.5832,-3.5438,-3.5418,-3.5418,-3.5418,-3.5418,-3.5418,-3.5418,-3.5418,-3.5418,-2.0415,-2.1594,-2.2644,-2.3627,-2.3803,-2.3728,-2.3627,-2.302,-2.2368,-2.1967,-2.1841,-2.1995,-2.2619,-2.3572,-2.5008,-2.7118,0.0,-3.5152,0.0,0.0,-4.2384,-4.3639,0.0,-4.5497,-4.5497,-4.5999,-4.6301,-4.6301,-4.6301,-4.6301,-4.6301,-4.6301,-4.6301,-4.6301,-4.6301,-4.6301,-4.6301,-4.6301,-4.6301,-4.6301,-4.6301,-4.6301,-4.6301,-4.6301,-4.6301,-4.6301,0.0,-4.6301,-4.6301,-4.6301,-4.6301,-4.6301,-4.6301,-4.6301,-4.6301,-4.6301,-4.6301,-4.6301,-4.6301,-4.6301,-4.6301,-4.6301,-4.6301,-4.6301,-4.6301,-4.6301,-4.6301,-4.6301,-4.6301,-4.6301,-4.6301,-4.6301,-4.6301,-4.6301,-4.6059,-4.5878,-4.5878,-4.5635,-4.5514,-4.5817,-4.5331,-4.4299,-4.254,-4.1674,-4.0603,-3.842,-3.8088,-3.8046,-3.7984,-3.7964,-3.7798,-3.7343,-3.7281,-3.7094,-3.6639,-3.7011,-3.7322,-3.7384,-3.7094,-3.6701,-3.6246,-3.5769,-3.55,-3.5418,-3.5418,-3.5418,-3.5418,-3.5418,-3.5418,-3.5418,-3.5418,-3.5418,-2.0314,-2.127,-2.2221,-2.3627,-2.4657,-2.5368,-2.5368,-2.4883,-2.4381,-2.413,-2.3627,-2.3577,-2.4732,-2.5837,-2.7896,-3.1913,0.0,-3.7663,-3.9898,-4.1329,-4.2514,0.0,0.0,-4.4568,-4.4568,-4.507,-4.5397,-4.5397,-4.5397,-4.5397,-4.5397,-4.5397,-4.5397,-4.5397,-4.5397,-4.5397,-4.5397,-4.5698,-4.6024,-4.6301,-4.6301,-4.6301,-4.6301,-4.6301,-4.6301,-4.6301,0.0,-4.6301,-4.6301,-4.6301,-4.6301,-4.6301,-4.6301,-4.6301,-4.6301,-4.6301,-4.6301,-4.6301,-4.6301,-4.6301,-4.6351,-4.6652,-4.6753,-4.6803,-4.7079,-4.7179,-4.7179,-4.7179,-4.6753,-4.6301,-4.6301,-4.6301,-4.6301,-4.6301,-4.6059,-4.5635,-4.5098,-4.4976,-4.5,-4.4976,-4.473,-4.4051,-4.2477,-4.1674,-4.0625,-3.8503,-3.8191,-3.8191,-3.8191,-3.8191,-3.8005,-3.755,-3.7488,-3.7301,-3.6846,-3.6991,-3.7343,-3.7839,-3.7198,-3.6701,-3.6494,-3.579,-3.5418,-3.5418,-3.5418,-3.5542,-3.579,-3.579,-3.5914,-3.6163,-3.6163,-3.6163,-2.0189,-2.0792,-2.1568,-2.3502,-2.5267,-2.6575,-2.6826,-2.6716,-2.6565,-2.6565,-2.5912,-2.5737,-2.7052,-2.8348,0.0,-3.5801,-3.7588,-3.9145,-4.1229,-4.2007,-4.2564,-4.2936,-4.3463,-4.379,-4.379,-4.4292,-4.4618,-4.4618,-4.4618,-4.4618,-4.4618,-4.4618,-4.4618,-4.4618,-4.4618,-4.4618,-4.4618,-4.5196,-4.5698,-4.6125,-4.625,-4.6301,-4.6301,-4.6301,-4.6301,-4.6301,-4.6301,-4.6301,-4.6301,-4.6301,-4.6301,-4.6301,-4.6301,-4.6301,-4.6301,-4.6301,-4.6301,-4.6301,-4.6301,-4.6401,-4.6577,-4.7004,-4.7143,-4.738,-4.7782,-4.7908,-4.7908,-4.7908,-4.733,-4.6677,-4.6677,-4.6602,-4.6502,-4.6502,-4.6099,-4.5428,-4.4398,-4.4336,-4.436,-4.4127,-4.3965,-4.3467,-4.2287,-4.1482,-4.0366,-3.8503,-3.8191,-3.8191,-3.8191,-3.8191,-3.8046,-3.7695,-3.7653,-3.7508,-3.7156,-3.7136,-3.7425,-3.815,-3.7218,-3.6639,-3.6639,-3.5852,-3.5418,-3.5418,-3.5418,-3.5645,-3.6121,-3.6121,-3.6349,-3.6804,-3.6804,-3.6804,-1.9585,-1.9886,-2.0589,-2.3326,-2.5267,-2.6776,-2.7745,-2.8775,-2.9503,-2.9503,-2.9428,-2.9402,-2.9528,-3.1286,-3.3696,-3.6634,-3.8492,-4.0174,-4.1911,0.0,-4.2936,-4.2961,-4.3463,-4.379,-4.379,-4.4292,-4.4618,-4.4618,-4.4618,-4.4618,-4.4618,-4.4618,-4.4618,-4.4618,-4.4618,-4.4618,-4.4618,-4.5196,-4.5497,-4.5547,-4.6075,-4.6301,-4.6301,-4.6301,-4.6301,-4.6301,-4.6301,-4.6301,-4.6301,-4.6301,-4.6301,-4.6301,-4.6301,-4.6301,-4.6301,-4.6301,-4.6301,-4.6301,-4.6301,-4.6652,-4.7018,-4.7129,-4.7456,-4.7857,-4.7908,-4.7908,-4.7908,-4.7908,-4.7857,-4.7782,-4.7782,-4.7431,-4.7018,-4.7018,-4.619,-4.5061,-4.4027,-4.3591,-4.3365,-4.3404,-4.2839,-4.227,-4.1779,-4.0926,-3.9801,-3.837,-3.8191,-3.8191,-3.8191,-3.8191,-3.8171,-3.815,-3.8129,-3.8129,-3.8088,-3.8088,-3.8109,-3.8171,-3.6908,-3.6163,-3.6163,-3.5687,-3.5418,-3.5418,-3.5418,-3.5645,-3.6121,-3.6121,-3.6349,-3.6804,-3.6804,-3.6804,-2.0163,-2.0087,-2.0388,-2.2819,-2.4707,-2.649,-2.8649,-3.0809,-3.234,-3.234,-3.2893,-3.3126,-3.2466,0.0,-3.5403,-3.7839,-3.9346,-4.0777,-4.2434,-4.2836,-4.2986,-4.2986,-4.3162,-4.3288,-4.3288,-4.3489,-4.3614,-4.3614,-4.3614,-4.3614,-4.3614,-4.3614,-4.3614,-4.3614,-4.3614,-4.3614,-4.3614,-4.4166,-4.4443,-4.4443,-4.5723,-4.6301,-4.6301,-4.6301,-4.6301,-4.6301,-4.6301,-4.6301,-4.6301,-4.6301,-4.6301,-4.6301,-4.6301,-4.6301,-4.6301,-4.6301,-4.6301,-4.6301,-4.6301,-4.6677,-4.7118,-4.7506,-4.7983,-4.851,-4.8862,-4.8962,-4.8962,-4.8962,-4.8962,-4.8786,-4.8083,-4.7757,-4.7531,-4.7143,-4.6463,-4.5243,-4.324,-4.2776,-4.242,-4.1546,-4.1377,-4.1271,-4.0839,-4.0279,-3.9517,-3.837,-3.8191,-3.8191,-3.8191,-3.8191,-3.8191,-3.8191,-3.8191,-3.8191,-3.8191,-3.8191,-3.8191,-3.8191,-3.7425,-3.697,-3.697,-3.6535,-3.6287,-3.6287,-3.6287,-3.6515,-3.697,-3.697,-3.7218,-3.7653,-3.7653,-3.7653,-2.0842,-2.039,-2.0388,-2.2769,-2.4506,-2.6414,-2.9578,-3.229,-3.4299,-3.4826,-3.5529,-3.5683,-3.4625,-3.5177,0.0,0.0,-3.9798,-4.1103,-4.2735,-4.2986,-4.2986,-4.2986,-4.2986,-4.2986,-4.2986,-4.2986,-4.2986,-4.2986,-4.2986,-4.2986,-4.2986,-4.2986,-4.2986,-4.2986,-4.2986,-4.2986,-4.2986,-4.3514,-4.379,-4.3815,-4.5321,-4.605,-4.605,-4.6225,-4.6301,-4.6301,-4.6301,-4.6301,-4.6301,-4.6301,-4.6301,-4.6301,-4.6301,-4.6301,-4.6301,-4.6301,-4.6301,-4.6301,-4.6301,-4.6778,-4.7431,-4.7782,-4.841,-4.9113,-4.949,-4.959,-4.959,-4.959,-4.959,-4.9414,-4.8636,-4.8309,-4.8083,-4.7732,-4.6861,-4.5473,-4.2991,-4.2298,-4.1719,-4.0344,-4.017,-4.0236,-4.0084,-3.9713,-3.9144,-3.8304,-3.8191,-3.8191,-3.8191,-3.8191,-3.8191,-3.8191,-3.8191,-3.8191,-3.8191,-3.8191,-3.8191,-3.8191,-3.7881,-3.7653,-3.7508,-3.7053,-3.6804,-3.6804,-3.6804,-3.7032,-3.7488,-3.7488,-3.7736,-3.8191,-3.8191,-3.8191,-2.1493,-2.069,-2.0514,-2.3326,-2.4833,-2.6666,-3.0532,-3.3144,-3.5203,-3.6885,-3.7211,-3.6885,-3.5734,-3.6031,0.0,-3.8668,-3.9798,-4.1103,-4.2735,-4.2986,-4.2986,-4.2986,-4.2986,-4.2986,-4.2986,-4.2986,-4.2986,-4.2986,-4.2986,-4.2986,-4.2986,-4.2986,-4.2986,-4.2986,-4.2986,-4.2986,-4.2986,-4.3514,-4.379,-4.3815,-4.492,-4.5472,-4.5497,-4.605,-4.6301,-4.6301,-4.6301,-4.6301,-4.6301,-4.6301,-4.6301,-4.6301,-4.6301,-4.6301,-4.6301,-4.6301,-4.6301,-4.6301,-4.6301,-4.7004,-4.7908,-4.7908,-4.8661,-4.959,-4.959,-4.959,-4.959,-4.959,-4.959,-4.959,-4.959,-4.9188,-4.8786,-4.8761,-4.7408,-4.557,-4.352,-4.2445,-4.1421,-3.9975,-3.9407,-3.9276,-3.9648,-3.9123,-3.8549,-3.8258,-3.8191,-3.8191,-3.8191,-3.8191,-3.8191,-3.8191,-3.8191,-3.8191,-3.8191,-3.8191,-3.8191,-3.8191,-3.8191,-3.7984,-3.7529,-3.7053,-3.6825,-3.6825,-3.6825,-3.7032,-3.7508,-3.7508,-3.7736,-3.8191,-3.8191,-3.8191,-2.2418,-2.2368,-2.2723,-2.5167,-2.7178,-2.9352,-3.2441,-3.4876,-3.7262,-4.0151,-3.9747,-3.8743,-3.8015,-3.8015,0.0,-3.9295,-4.0375,-4.153,-4.2811,-4.2986,-4.2986,-4.2986,-4.2986,-4.2986,-4.2986,-4.2986,-4.2986,-4.2986,-4.2986,-4.2986,-4.2986,-4.2986,-4.2986,-4.2986,-4.2986,-4.2986,-4.2986,-4.3137,-4.3212,-4.3237,-4.3966,-4.4719,-4.5497,-4.605,-4.6301,-4.6301,-4.6301,-4.6301,-4.6301,-4.6301,-4.6301,-4.6301,-4.6301,-4.6301,-4.6301,-4.6301,-4.6301,-4.6301,-4.6301,-4.6778,-4.7431,-4.7782,-4.841,-4.9088,-4.949,-4.959,-4.959,-4.959,-4.959,-4.959,-4.959,-4.9336,-4.8982,-4.8798,-4.8004,-4.6518,-4.3747,-4.2503,-4.1283,-3.9075,-3.857,-3.8503,-3.8636,-3.8503,-3.8304,-3.8191,-3.8191,-3.8191,-3.8191,-3.8191,-3.8191,-3.8191,-3.8191,-3.8191,-3.8191,-3.8191,-3.8191,-3.8191,-3.8191,-3.8129,-3.7984,-3.7839,-3.7777,-3.7777,-3.7777,-3.7839,-3.7984,-3.7984,-3.8046,-3.8191,-3.8191,-3.8191,-2.3125,-2.3772,-2.4757,-2.7444,-2.9603,-3.2039,-3.5705,-3.7563,-3.9195,-4.171,-4.1204,-4.0174,-3.9622,-3.9521,0.0,-4.0249,-4.1078,-4.1982,-4.2861,-4.2986,-4.2986,-4.2986,-4.2986,-4.2986,-4.2986,-4.2986,-4.2986,-4.2986,-4.2986,-4.2986,-4.2986,-4.2986,-4.2986,-4.2986,-4.2986,-4.2986,-4.2986,-4.2986,-4.2986,-4.2986,-4.3539,-4.4166,-4.4844,-4.5623,-4.5974,-4.5999,-4.6225,-4.6301,-4.6301,-4.6301,-4.6301,-4.6301,-4.6301,-4.6301,-4.6301,-4.6301,-4.6301,-4.6301,-4.6301,-4.6677,-4.7118,-4.7506,-4.7983,-4.8485,-4.8812,-4.9088,-4.9264,-4.9264,-4.9414,-4.959,-4.959,-4.9332,-4.9063,-4.8971,-4.8016,-4.6511,-4.4002,-4.2589,-4.1198,-3.9088,-3.873,-3.873,-3.873,-3.873,-3.873,-3.873,-3.8564,-3.8378,-3.8212,-3.8191,-3.8191,-3.8191,-3.8191,-3.8191,-3.8191,-3.8191,-3.8191,-3.8191,-3.8191,-3.8191,-3.8191,-3.8191,-3.8191,-3.8191,-3.8191,-3.8191,-3.8191,-3.8037,-3.8037,-3.8191,-3.8037,-3.8037,-2.3577,-2.4933,-2.6615,-2.993,-3.2164,-3.4751,-3.9446,-4.0526,-4.0852,-4.2062,-4.1831,-4.1275,-4.0827,-4.0752,-4.0902,-4.1351,-4.1907,-4.2464,-4.2911,-4.2986,-4.2986,-4.2986,-4.2986,-4.2986,-4.2986,-4.2986,-4.2986,-4.2986,-4.2986,-4.2986,-4.2986,-4.2986,-4.2986,-4.2986,-4.2986,-4.2986,-4.2986,-4.2986,-4.2986,-4.2986,-4.3489,-4.374,-4.3765,-4.4945,-4.5522,-4.5598,-4.61,-4.6301,-4.6301,-4.6301,-4.6301,-4.6301,-4.6301,-4.6301,-4.6301,-4.6301,-4.6301,-4.6301,-4.6301,-4.6652,-4.7079,-4.7043,-4.7456,-4.7857,-4.7883,-4.8309,-4.8761,-4.8761,-4.9163,-4.959,-4.959,-4.9332,-4.9007,-4.8942,-4.7506,-4.5766,-4.4185,-4.2682,-4.118,-3.9813,-3.9468,-3.9468,-3.9468,-3.9468,-3.9468,-3.9468,-3.9075,-3.8709,-3.8295,-3.8212,-3.8191,-3.8191,-3.8191,-3.8191,-3.8191,-3.8191,-3.8191,-3.8191,-3.8191,-3.8191,-3.8191,-3.8191,-3.8191,-3.8191,-3.8191,-3.8191,-3.8191,-3.7837,-3.7837,-3.8191,-3.7837,-3.7837,-2.3954,-2.6063,-2.8247,-3.116,-3.4424,-3.7563,-3.9973,-4.0526,-4.0953,-4.2484,-4.271,-4.2585,-4.2459,-4.2459,-4.2484,-4.261,-4.271,-4.2836,-4.2961,-4.2986,-4.2986,-4.2986,-4.2986,-4.2986,-4.2986,-4.2986,-4.2986,-4.2986,-4.2986,-4.2986,-4.2986,-4.2986,-4.2986,-4.2986,-4.2986,-4.2986,-4.2986,-4.2986,-4.2986,-4.2986,-4.3112,-4.3162,-4.3212,-4.4769,-4.5723,-4.6125,-4.625,-4.6301,-4.6301,-4.6301,-4.6301,-4.6301,-4.6301,-4.6301,-4.6301,-4.6301,-4.6301,-4.6301,-4.6301,-4.6376,-4.6552,-4.6943,-4.7143,-4.738,-4.7782,-4.8309,-4.8761,-4.8761,-4.9163,-4.959,-4.959,-4.9162,-4.851,-4.7581,-4.6822,-4.5698,-4.3262,-4.2289,-4.1383,-3.9806,-3.9468,-3.9468,-3.9468,-3.9468,-3.9468,-3.9468,-3.9075,-3.8745,-3.8641,-3.8398,-3.8191,-3.8191,-3.8191,-3.8191,-3.8191,-3.8191,-3.8191,-3.8191,-3.8191,-3.8191,-3.8191,-3.8191,-3.8191,-3.8191,-3.8191,-3.8191,-3.8191,-3.8104,-3.8104,-3.8191,-3.8104,-3.8104,-2.3929,-2.6581,-2.9553,-3.3897,-3.7111,-3.9446,-4.0325,-4.0727,-4.1153,-4.2007,-4.2409,-4.264,-4.264,-4.2866,-4.2986,-4.2986,-4.2986,-4.2986,-4.2986,-4.2986,-4.2986,-4.2986,-4.2986,-4.2986,-4.2986,-4.2986,-4.2986,-4.2986,-4.2986,-4.2986,-4.2986,-4.2986,-4.2986,-4.2986,-4.2986,-4.2986,-4.2986,-4.2986,-4.2986,-4.2986,-4.2986,-4.3112,-4.3388,-4.4267,-4.5121,-4.5924,-4.5924,-4.6075,-4.6301,-4.6301,-4.6301,-4.6301,-4.6301,-4.6301,-4.6301,-4.6301,-4.6301,-4.6301,-4.6301,-4.6301,-4.6351,-4.6652,-4.6753,-4.6803,-4.7054,-4.7707,-4.836,-4.836,-4.8962,-4.959,-4.959,-4.9097,-4.8182,-4.6493,-4.582,-4.5028,-4.2908,-4.2054,-4.1383,-4.036,-4.0179,-4.0179,-4.0179,-4.0179,-4.0116,-3.9889,-3.9592,-3.9364,-3.9137,-3.8978,-3.8833,-3.8833,-3.8833,-3.8833,-3.8833,-3.8833,-3.8833,-3.8833,-3.8833,-3.8833,-3.8833,-3.8626,-3.8398,-3.8191,-3.8037,-3.7971,-3.8191,-3.7837,-3.7837,-3.8191,-3.7971,-3.8037,-2.3722,-2.7283,-3.1195,-3.6659,-3.9195,-4.0375,-4.0375,-4.0727,-4.1,-4.1,-4.158,-4.2112,-4.2187,-4.259,-4.2861,-4.2961,-4.2986,-4.2986,-4.2986,-4.2986,-4.2986,-4.2986,-4.2986,-4.2986,-4.2986,-4.2986,-4.2986,-4.2986,-4.2986,-4.2986,-4.2986,-4.2986,-4.2986,-4.2986,-4.2986,-4.2986,-4.2986,-4.2986,-4.2986,-4.2986,-4.2986,-4.3212,-4.3664,-4.3664,-4.4317,-4.5497,-4.5497,-4.5799,-4.6301,-4.6301,-4.6301,-4.6301,-4.6301,-4.6301,-4.6301,-4.6301,-4.6301,-4.6301,-4.6301,-4.6301,-4.6301,-4.6301,-4.6301,-4.6301,-4.6301,-4.7054,-4.7908,-4.7908,-4.8736,-4.959,-4.959,-4.9097,-4.8026,-4.5729,-4.4937,-4.4228,-4.2608,-4.1806,-4.1331,-4.0954,-4.0882,-4.0882,-4.0882,-4.0882,-4.0758,-4.0406,-4.0282,-4.0096,-3.9633,-3.953,-3.9468,-3.9468,-3.9468,-3.9468,-3.9468,-3.9468,-3.9468,-3.9468,-3.9468,-3.9468,-3.9468,-3.9096,-3.8656,-3.8352,-3.7831,-3.777,-3.7971,-3.7482,-3.7502,-3.8104,-3.7837,-3.7837,-2.3722,-2.9277,-3.46,-3.7337,-3.8919,-3.9798,-3.9798,-3.9848,-3.9923,0.0,-4.0727,-4.1605,-4.2112,-4.2263,-4.2464,-4.2911,-4.2986,-4.2986,-4.2986,-4.2986,-4.2986,-4.2986,-4.2986,-4.2986,-4.2986,-4.2986,-4.2986,-4.2986,-4.2986,-4.2986,-4.2986,-4.2986,-4.2986,-4.2986,-4.2986,-4.2986,-4.2986,-4.2986,-4.2986,-4.2986,-4.2986,-4.3011,-4.3087,-4.3087,-4.3966,-4.5497,-4.5497,-4.5799,-4.6301,-4.6301,-4.6301,-4.6301,-4.6301,-4.6301,-4.6301,-4.6301,-4.6301,-4.6301,-4.6301,-4.6301,-4.6301,-4.6301,-4.6301,-4.6301,-4.6301,-4.7054,-4.7908,-4.7908,-4.8736,-4.959,-4.959,-4.9097,-4.8026,-4.5729,-4.4732,-4.3722,-4.1573,-4.1025,-4.0954,-4.0954,-4.0882,-4.0882,-4.0882,-4.0882,-4.0862,-4.08,-4.0468,-4.0199,-4.0067,-3.9716,-3.9468,-3.9468,-3.9468,-3.9468,-3.9468,-3.9468,-3.9468,-3.9468,-3.9468,-3.9468,-3.9468,-3.913,-3.893,-3.8869,-3.8024,-3.7482,-3.7213,-3.7415,-3.7549,-3.7683,-3.7971,-3.7971,-2.4732,-2.993,-3.4399,-3.691,-3.8391,-3.922,-3.922,-3.9471,-3.9697,-3.9697,-4.0074,-4.0601,-4.1128,-4.148,-4.1781,-4.2032,-4.2057,-4.2057,-4.2057,-4.2057,-4.2183,-4.2539,-4.2564,-4.269,-4.2936,-4.2986,-4.2986,-4.2986,-4.2986,-4.2986,-4.2986,-4.2986,-4.2986,-4.2986,-4.2986,-4.2986,-4.2986,-4.2986,-4.2986,-4.2986,-4.2986,-4.2986,-4.2986,-4.2986,-4.3564,-4.4543,-4.4543,-4.5045,-4.5849,-4.5849,-4.6024,-4.6301,-4.6301,-4.6301,-4.6301,-4.6301,-4.6301,-4.6301,-4.6301,-4.6301,-4.6301,-4.6301,-4.6301,-4.6301,-4.6301,-4.7054,-4.7908,-4.7908,-4.8736,-4.959,-4.959,-4.9097,-4.8026,-4.5729,-4.4709,-4.3562,-4.136,-4.0882,-4.0882,-4.0882,-4.0882,-4.0882,-4.0882,-4.0882,-4.0882,-4.0882,-4.0717,-4.0593,-4.0593,-4.0406,-4.0282,-4.0282,-4.0282,-4.0282,-4.0282,-4.0282,-4.0282,-4.0282,-4.0282,-4.0282,-4.0282,-3.9684,-3.9281,-3.907,-3.7992,-3.7393,-3.7441,-3.7132,-3.7079,-3.7348,-3.7502,-3.7482,-2.5184,-2.9503,-3.3043,-3.5529,-3.7086,-3.809,-3.8366,0.0,-3.9145,0.0,-3.9496,-3.9622,-4.0023,-4.0651,-4.1125,-4.125,-4.1275,-4.1275,-4.1275,-4.1275,-4.153,-4.2137,-4.2213,-4.2414,-4.2911,-4.2986,-4.2986,-4.2986,-4.2986,-4.2986,-4.2986,-4.2986,-4.2986,-4.2986,-4.2986,-4.2986,-4.2986,-4.2986,-4.2986,-4.2986,-4.2986,-4.2986,-4.2986,-4.2986,-4.3212,-4.3589,-4.374,-4.4443,-4.5497,-4.5497,-4.5824,-4.6301,-4.6301,-4.6301,-4.6301,-4.6301,-4.6301,-4.6301,-4.6301,-4.6301,-4.6301,-4.6301,-4.6301,-4.6326,-4.6476,-4.7179,-4.7933,-4.8083,-4.8837,-4.959,-4.959,-4.9097,-4.8092,-4.5999,-4.4937,-4.3722,-4.1431,-4.0882,-4.0882,-4.0882,-4.0882,-4.0882,-4.0882,-4.0882,-4.0882,-4.0882,-4.0882,-4.0882,-4.0882,-4.0882,-4.0882,-4.0882,-4.0882,-4.0882,-4.0882,-4.0882,-4.0882,-4.0882,-4.0882,-4.0882,-4.0882,-4.0054,-3.9516,-3.9231,-3.7997,-3.7471,-3.7628,-3.6984,-3.6833,-3.7124,-3.7139,-3.7079,-2.4399,-2.7795,-3.116,-3.2867,-3.45,-3.5934,-3.7036,0.0,-3.7613,-3.8743,-3.8969,-3.8969,-3.8994,-3.9848,-4.0727,-4.12,-4.1275,-4.1275,-4.1275,-4.1275,-4.153,-4.2137,-4.2213,-4.2414,-4.2911,-4.2986,-4.2986,-4.2986,-4.2986,-4.2986,-4.2986,-4.2986,-4.2986,-4.2986,-4.2986,-4.2986,-4.2986,-4.2986,-4.2986,-4.2986,-4.2986,-4.2986,-4.2986,-4.2986,-4.2986,-4.3062,-4.3564,-4.4443,-4.5497,-4.5497,-4.5824,-4.6301,-4.6301,-4.6301,-4.6301,-4.6301,-4.6301,-4.6301,-4.6301,-4.6301,-4.6301,-4.6301,-4.6301,-4.6401,-4.6867,-4.7481,-4.8033,-4.856,-4.9138,-4.959,-4.959,-4.9097,-4.8248,-4.6717,-4.5504,-4.409,-4.1431,-4.0882,-4.0882,-4.0882,-4.0882,-4.0882,-4.0882,-4.0882,-4.0882,-4.0882,-4.0882,-4.0882,-4.0882,-4.0882,-4.0882,-4.0882,-4.0882,-4.0882,-4.0882,-4.0882,-4.0882,-4.0882,-4.0882,-4.0882,-4.0882,-4.0126,-3.9674,-3.9674,-3.8517,-3.7656,-3.7336,-3.7183,-3.7173,-3.7173,-3.7144,-3.6876,-2.2121,-2.4757,-2.7293,-2.895,-3.1135,-3.3169,-3.4299,-3.5676,-3.7033,-3.809,-3.8316,-3.8442,-3.8844,-3.9471,-4.0049,-4.0249,-4.0275,-4.0275,-4.0275,-4.0275,-4.0501,-4.1028,-4.1103,-4.1455,-4.2414,-4.2514,-4.2665,-4.2961,-4.2986,-4.2986,-4.2986,-4.2986,-4.2986,-4.2986,-4.2986,-4.2986,-4.2986,-4.2986,-4.2986,-4.2986,-4.2986,-4.2986,-4.2986,-4.2986,-4.2986,-4.2986,-4.3187,-4.3915,-4.4945,-4.4945,-4.5472,-4.6301,-4.6301,-4.6301,-4.6301,-4.6301,-4.6301,-4.6301,-4.6301,-4.6301,-4.6301,-4.6301,-4.6552,-4.6878,-4.7018,-4.7757,-4.851,-4.8711,-4.9163,-4.959,-4.959,-4.9267,-4.8486,-4.6784,-4.5005,-4.3375,-4.2187,-4.136,-4.0882,-4.0882,-4.0882,-4.0882,-4.0882,-4.0882,-4.0882,-4.0882,-4.0882,-4.0882,-4.0882,-4.0882,-4.0882,-4.0882,-4.0882,-4.0882,-4.0882,-4.0882,-4.0882,-4.0882,-4.0882,-4.0882,-4.0882,-4.0382,-3.993,-3.9714,-3.9069,-3.8432,-3.7695,-3.7406,-3.728,-3.728,-3.7262,-3.7183,-2.0439,-2.2422,-2.433,-2.5812,-2.8008,-3.017,-3.1637,-3.3438,-3.5223,-3.6835,-3.7337,-3.7638,-3.8191,-3.8919,-3.9471,-3.9672,-3.9697,-3.9697,-3.9697,-3.9697,-3.9898,-4.045,-4.0526,-4.0953,-4.2112,-4.2213,-4.2439,-4.2936,-4.2986,0.0,-4.2986,-4.2986,-4.2986,-4.2986,-4.2986,-4.2986,-4.2986,-4.2986,-4.2986,-4.2986,-4.2986,-4.2986,-4.2986,-4.2986,-4.2986,-4.2986,-4.2986,-4.3614,-4.4618,-4.4618,-4.5296,-4.6301,-4.6301,-4.6301,-4.6301,-4.6301,-4.6301,-4.6301,-4.6301,-4.6301,-4.6301,-4.6301,-4.6677,-4.7093,-4.733,-4.8033,-4.8812,-4.8987,-4.9314,-4.959,-4.959,-4.9267,-4.8526,-4.6917,-4.5142,-4.3653,-4.3027,-4.1855,-4.0882,-4.0882,-4.0882,-4.0882,-4.0882,-4.0882,-4.0882,-4.0882,-4.0882,-4.0882,-4.0882,-4.0882,-4.0882,-4.0882,-4.0882,-4.0882,-4.0882,-4.0882,-4.0882,-4.0882,-4.0882,-4.0882,-4.0882,-4.0525,-4.0166,-3.993,-3.9465,-3.8964,-3.836,-3.7786,-3.75,-3.75,-3.7363,-3.7305,0.0,0.0,0.0,0.0,0.0,0.0,-2.9101,0.0,-3.2114,-3.4831,-3.5906,-3.6531,-3.7086,-3.8065,-3.9019,-3.9572,-3.9697,-3.9697,-3.9697,-3.9697,-3.9898,-4.0425,-4.0501,-4.0927,-4.2062,-4.2162,-4.2389,-4.2886,-4.2936,-4.2936,-4.2961,-4.2961,-4.2986,-4.2986,-4.2986,-4.2986,-4.2986,-4.2986,-4.2986,-4.2986,-4.2986,-4.2986,-4.2986,-4.2986,-4.2986,-4.2986,-4.2986,-4.3589,-4.4593,-4.4593,-4.5271,-4.6276,-4.6276,-4.6301,-4.6301,-4.6301,-4.6301,-4.6301,-4.6301,-4.6301,-4.6301,-4.6301,-4.6702,-4.7193,-4.7757,-4.8309,-4.8912,-4.9439,-4.959,-4.959,-4.959,-4.9047,-4.824,-4.7208,-4.6136,-4.5051,-4.3999,-4.2278,-4.0954,-4.0954,-4.0882,-4.0882,-4.0882,-4.0882,-4.0882,-4.0882,-4.0882,-4.0882,-4.0882,-4.0882,-4.0882,-4.0882,-4.0882,-4.0882,-4.0882,-4.0882,-4.0882,-4.0882,-4.0882,-4.0882,-4.0882,-4.0525,-4.031,-4.031,-3.961,-3.9176,-3.9176,-3.8308,-3.7949,-3.793,-3.7519,-3.7324,-1.7852,0.0,0.0,0.0,0.0,0.0,0.0,0.0,-3.0281,-3.2641,-3.4223,-3.5579,-3.6935,-3.7437,-3.7965,-3.8944,-3.9421,-3.9697,-3.9697,-3.9697,-3.9747,-3.9898,-3.9923,-4.0199,-4.0902,-4.0978,-4.1204,0.0,-4.1806,-4.1957,-4.2414,-4.276,-4.2986,-4.2986,-4.2986,-4.2986,-4.2986,-4.2986,-4.2986,-4.2986,-4.2986,-4.2986,-4.2986,-4.2986,-4.2986,-4.2986,-4.2986,-4.3388,-4.4041,-4.4041,-4.4694,-4.5723,-4.5723,-4.5949,-4.6301,-4.6301,-4.6301,-4.6301,-4.6301,-4.6301,-4.6301,-4.6301,-4.6928,-4.7732,-4.7857,-4.8586,-4.9389,-4.9565,-4.959,-4.959,-4.959,-4.9461,-4.9177,-4.8592,-4.7648,-4.6626,-4.582,-4.3976,-4.2278,-4.1452,-4.1096,-4.0882,-4.0882,-4.0882,-4.0882,-4.0882,-4.0882,-4.0882,-4.0882,-4.0882,-4.0882,-4.0882,-4.0882,-4.0882,-4.0882,-4.0882,-4.0882,-4.0882,-4.0882,-4.0882,-4.0882,-4.0811,-4.0453,-3.9858,-3.9642,-3.9301,-3.8793,-3.853,-3.8398,-3.8398,-3.8281,-3.8223,-1.8179,-1.8682,0.0,0.0,0.0,0.0,-2.2594,-2.5051,-2.786,0.0,-3.1989,-3.352,-3.5177,-3.5655,-3.6031,-3.6684,-3.7462,-3.8366,-3.9521,-3.9697,-3.9697,-3.9697,-3.9697,-3.9898,-4.045,-4.0526,-4.0752,-4.125,-4.1275,-4.158,-4.2187,-4.274,-4.2986,-4.2986,-4.2986,-4.2986,-4.2986,-4.2986,-4.2986,-4.2986,-4.2986,-4.2986,-4.2986,-4.2986,-4.2986,-4.2986,-4.2986,-4.3162,-4.3463,-4.3463,-4.4267,-4.5497,-4.5497,-4.5824,-4.6301,-4.6301,-4.6301,-4.6301,-4.6301,-4.6301,-4.6301,-4.6301,-4.7029,-4.7908,-4.7908,-4.8711,-4.959,-4.959,-4.959,-4.959,-4.9396,-4.9396,-4.9267,-4.8747,-4.8002,-4.725,-4.6516,-4.5028,-4.3467,-4.2159,-4.1381,-4.0882,-4.0882,-4.0882,-4.0882,-4.0882,-4.0882,-4.0882,-4.0882,-4.0882,-4.0882,-4.0882,-4.0882,-4.0882,-4.0882,-4.0882,-4.0882,-4.0882,-4.0882,-4.0882,-4.0882,-4.074,-4.0453,-3.993,-3.9662,-3.9228,-3.8574,-3.8574,-3.8574,-3.8574,-3.8574,-3.8574,-1.9635,-1.961,0.0,0.0,-2.0641,0.0,-2.1669,-2.3221,-2.5227,0.0,-2.9239,-3.0633,-3.224,-3.2918,-3.3269,-3.3345,-3.4279,-3.6034,-3.8919,-3.9371,-3.9446,-3.9496,-3.9572,-3.9798,-4.03,-4.04,-4.0626,-4.1075,-4.1175,-4.1455,-4.2011,-4.2559,-4.2886,-4.2886,-4.2936,-4.2986,-4.2986,-4.2986,-4.2986,-4.2986,-4.2986,-4.2986,-4.2986,-4.2986,-4.2986,-4.2986,-4.2986,-4.2986,-4.2986,-4.2986,-4.394,-4.5397,-4.5397,-4.5773,-4.6301,-4.6301,-4.6301,-4.6301,-4.6301,-4.6301,-4.6301,-4.6301,-4.7029,-4.7908,-4.7908,-4.8711,-4.959,-4.959,-4.959,-4.9525,-4.9202,-4.9007,-4.8747,-4.8002,-4.7563,-4.7074,-4.6473,-4.5528,-4.4434,-4.3097,-4.1855,-4.1025,-4.0954,-4.0954,-4.0882,-4.0882,-4.0882,-4.0882,-4.0882,-4.0882,-4.0882,-4.0882,-4.0882,-4.0882,-4.0882,-4.0882,-4.0882,-4.0882,-4.0882,-4.0882,-4.0811,-4.0525,-4.0238,-4.0166,-3.9465,-3.8958,-3.8574,-3.8574,-3.8574,-3.8574,-3.8574,-3.8574,-2.0465,-2.0767,-2.084,-2.0137,0.0,0.0,-1.9258,-2.0939,-2.3045,0.0,-2.5862,-2.7681,-2.885,-2.9176,-2.9377,-2.9829,-3.1185,-3.3345,-3.6609,-3.7412,-3.7839,-3.8291,-3.8743,-3.9069,-3.917,-3.9597,-3.9898,-3.9998,-4.0425,-4.0727,-4.0827,-4.1781,-4.2363,-4.2363,-4.2735,-4.2986,-4.2986,-4.2986,-4.2986,-4.2986,-4.2986,-4.2986,-4.2986,-4.2986,-4.2986,-4.2986,-4.2986,-4.2986,-4.2986,-4.2986,-4.3689,-4.4794,-4.4794,-4.5422,-4.6301,-4.6301,-4.6301,-4.6301,-4.6301,-4.6301,-4.6301,-4.6301,-4.7029,-4.7908,-4.7908,-4.8711,-4.959,-4.959,-4.959,-4.9525,-4.9202,-4.8436,-4.7623,-4.7226,-4.6358,-4.5661,-4.5887,-4.5458,-4.5074,-4.4823,-4.3189,-4.1664,-4.1402,-4.1096,-4.0882,-4.0882,-4.0882,-4.0882,-4.0882,-4.0882,-4.0882,-4.0882,-4.0882,-4.0882,-4.0882,-4.0882,-4.0882,-4.0882,-4.0882,-4.074,-4.0453,-4.031,-4.0043,-3.9393,-3.8938,-3.8647,-3.8574,-3.8574,-3.8574,-3.8574,-3.8574,-3.8574,-2.2246,-2.2121,-2.1769,-2.1192,0.0,0.0,0.0,0.0,-2.1719,-2.2548,-2.3828,-2.5134,-2.6264,-2.6465,-2.6565,-2.6806,-2.8273,-3.0131,-3.2365,-3.5052,-3.7086,-3.7914,-3.8266,-3.8542,-3.8894,-3.912,-3.9396,-3.9672,-4.0199,-4.0526,-4.0526,-4.1555,-4.2213,-4.2213,-4.274,-4.2986,-4.2986,-4.2986,-4.2986,-4.2986,-4.2986,-4.2986,-4.2986,-4.2986,-4.2986,-4.2986,-4.2986,-4.2986,-4.2986,-4.2986,-4.3639,-4.4618,-4.4618,-4.5321,-4.6301,-4.6301,-4.6301,-4.6301,-4.6301,-4.6301,-4.6301,-4.6301,-4.7029,-4.7908,-4.7908,-4.8711,-4.959,-4.959,-4.959,-4.9461,-4.8967,-4.7977,-4.7027,-4.6516,-4.5549,-4.4778,-4.5233,-4.5301,-4.5165,-4.4846,-4.3744,-4.27,-4.2089,-4.1381,-4.0882,-4.0882,-4.0882,-4.0882,-4.0882,-4.0882,-4.0882,-4.0882,-4.0882,-4.0882,-4.0882,-4.074,-4.0596,-4.0596,-4.0433,-4.0218,-4.0022,-3.9806,-3.9465,-3.8865,-3.872,-3.8574,-3.8574,-3.8574,-3.8574,-3.8574,-3.8574,-3.8574,0.0,0.0,0.0,0.0,0.0,-2.0641,0.0,0.0,0.0,0.0,0.0,0.0,0.0,0.0,0.0,0.0,0.0,0.0,0.0,-3.1989,0.0,-3.6885,-3.7236,-3.7588,-3.8165,-3.8417,-3.8693,-3.9019,-3.9572,-3.9923,-4.0023,-4.1078,-4.1785,-4.1886,-4.2539,-4.2866,-4.2866,-4.2936,-4.2986,-4.2986,-4.2986,-4.2986,-4.2986,-4.2986,-4.2986,-4.2986,-4.2986,-4.2986,-4.2986,-4.2986,-4.3639,-4.4618,-4.4618,-4.5321,-4.6301,-4.6301,-4.6301,-4.6301,-4.6301,-4.6301,-4.6301,-4.6301,-4.7029,-4.7958,-4.8159,-4.8862,-4.959,-4.959,-4.959,-4.9461,-4.8772,-4.7606,-4.6426,-4.5731,-4.4549,-4.3722,-4.4159,-4.4572,-4.4709,-4.4228,-4.3814,-4.3306,-4.2538,-4.1573,-4.0882,-4.0882,-4.0882,-4.0882,-4.0882,-4.0882,-4.0882,-4.0882,-4.0882,-4.0882,-4.0811,-4.0453,-4.0238,-4.0166,-3.9858,-3.9642,-3.957,-3.9228,-3.8958,-3.8574,-3.8574,-3.8574,-3.8574,-3.8574,-3.8574,-3.8574,-3.8574,-3.8574,0.0,0.0,0.0,0.0,-2.2221,0.0,0.0,0.0,0.0,-1.9434,0.0,0.0,0.0,0.0,0.0,0.0,0.0,0.0,-2.5101,-2.7469,-3.0181,-3.3269,-3.45,-3.5282,-3.5834,-3.681,-3.7186,-3.6807,-3.7262,-3.7764,-3.8266,-3.9346,-4.0199,-4.0701,-4.1706,-4.2313,-4.2313,-4.2791,-4.2986,-4.2986,-4.2986,-4.2986,-4.2986,-4.2986,-4.2986,-4.2986,-4.2986,-4.2986,-4.2986,-4.2986,-4.3639,-4.4618,-4.4618,-4.5321,-4.6301,-4.6301,-4.6301,-4.6301,-4.6301,-4.6301,-4.6301,-4.6301,-4.7029,-4.8083,-4.9088,-4.949,-4.959,-4.959,-4.959,-4.9461,-4.8772,-4.6984,-4.5255,-4.4527,-4.2818,-4.1431,-4.2159,-4.284,-4.3445,-4.3722,-4.3445,-4.2958,-4.2208,-4.1452,-4.0882,-4.0882,-4.0882,-4.0882,-4.0882,-4.0882,-4.0882,-4.0882,-4.0882,-4.074,-4.0382,-4.031,-4.0166,-3.9786,-3.9714,-3.959,-3.9248,-3.8885,-3.8647,-3.8574,-3.8574,-3.8574,-3.8574,-3.8574,-3.8574,-3.8574,-3.8574,-3.8574,0.0,0.0,0.0,0.0,0.0,0.0,-1.9861,0.0,-2.0264,0.0,0.0,0.0,0.0,0.0,0.0,0.0,-2.1368,0.0,0.0,0.0,-2.6942,0.0,0.0,0.0,-3.4474,-3.5579,-3.6006,-3.5454,-3.5931,-3.6458,-3.7036,-3.8743,-3.9798,-4.0023,-4.1458,-4.2213,-4.2213,-4.2766,-4.2986,-4.2986,-4.2986,-4.2986,-4.2986,-4.2986,-4.2986,-4.2986,-4.2986,-4.2986,-4.2986,-4.2986,-4.3639,-4.4618,-4.4618,-4.5321,-4.6301,-4.6301,-4.6301,-4.6301,-4.6301,-4.6301,-4.6401,-4.7029,-4.7782,-4.856,-4.9146,-4.9332,-4.9267,-4.9097,-4.9137,-4.9137,-4.8445,-4.7051,-4.5752,-4.5028,-4.3514,-4.2278,-4.2581,-4.3049,-4.3375,-4.3119,-4.2909,-4.2559,-4.1806,-4.1239,-4.0882,-4.0882,-4.0882,-4.0882,-4.0882,-4.0882,-4.0882,-4.0882,-4.0668,-4.0453,-4.031,-3.9899,-3.961,-3.9445,-3.9228,-3.9011,-3.8885,-3.872,-3.8574,-3.8574,-3.8574,-3.8574,-3.8574,-3.8574,-3.8574,-3.8574,-3.8574,-3.8574,-2.979,0.0,0.0,0.0,0.0,0.0,0.0,0.0,0.0,0.0,0.0,0.0,0.0,0.0,0.0,0.0,0.0,-2.1669,0.0,0.0,0.0,0.0,0.0,0.0,0.0,-3.3502,-3.3978,-3.3621,-3.4053,-3.4851,-3.5855,-3.7889,-3.9145,-3.9446,-4.1078,-4.1932,-4.1932,-4.2635,-4.2986,-4.2986,-4.2986,-4.2986,-4.2986,-4.2986,-4.2986,-4.2986,-4.2986,-4.3062,-4.3212,-4.3212,-4.3865,-4.4869,-4.4869,-4.5447,-4.6301,-4.6301,-4.6301,-4.6301,-4.6301,-4.6401,-4.6702,-4.7782,-4.8435,-4.8823,-4.9028,-4.8853,-4.8592,-4.8445,-4.8551,-4.8526,-4.8092,-4.7316,-4.6493,-4.5911,-4.4664,-4.3631,-4.3536,-4.3536,-4.3306,-4.27,-4.2278,-4.1926,-4.1402,-4.1096,-4.0882,-4.0882,-4.0882,-4.0882,-4.0882,-4.0882,-4.0882,-4.074,-4.0453,-4.0238,-4.0043,-3.9538,-3.9176,-3.903,-3.872,-3.8574,-3.8574,-3.8574,-3.8574,-3.8574,-3.8574,-3.8574,-3.8574,-3.8574,-3.8574,-3.8574,-3.8574,-3.8574,0.0,0.0,0.0,-2.67,0.0,0.0,0.0,0.0,-2.0842,0.0,0.0,0.0,0.0,0.0,0.0,0.0,0.0,0.0,0.0,0.0,0.0,0.0,0.0,0.0,0.0,-3.0066,-3.0758,0.0,-3.1235,-3.2466,-3.465,-3.6358,-3.7764,-3.8919,-4.0501,-4.13,-4.13,-4.2434,-4.2986,-4.2986,-4.2986,-4.2986,-4.2986,-4.2986,-4.2986,-4.2986,-4.2986,-4.3288,-4.3765,-4.3765,-4.4443,-4.5472,-4.5472,-4.5799,-4.6301,-4.6301,-4.6301,-4.6301,-4.6301,-4.6652,-4.728,-4.8385,-4.8761,-4.8823,-4.9028,-4.8306,-4.7557,-4.787,-4.7714,-4.7557,-4.7894,-4.7714,-4.7293,-4.696,-4.5999,-4.5051,-4.4709,-4.3838,-4.3027,-4.2608,-4.1643,-4.0954,-4.0954,-4.0882,-4.0882,-4.0882,-4.0882,-4.0882,-4.0882,-4.0882,-4.074,-4.0382,-4.031,-4.0022,-3.9321,-3.9176,-3.903,-3.8647,-3.8574,-3.8574,-3.8574,-3.8574,-3.8574,-3.8574,-3.8574,-3.8574,-3.8574,-3.8574,-3.8574,-3.8574,-3.8574,-3.8574,0.0,0.0,-2.993,-2.8473,0.0,0.0,0.0,0.0,0.0,0.0,0.0,0.0,0.0,0.0,0.0,0.0,0.0,0.0,0.0,0.0,0.0,0.0,0.0,0.0,0.0,0.0,0.0,-2.8398,-2.9252,0.0,-3.2416,-3.5127,-3.7033,-3.7739,-4.0099,-4.1275,-4.1275,-4.2434,-4.2986,-4.2986,-4.2986,-4.2986,-4.2986,-4.2986,-4.2986,-4.2986,-4.2986,-4.3288,-4.379,-4.379,-4.4468,-4.5497,-4.5497,-4.5824,-4.6301,-4.6301,-4.6301,-4.6351,-4.6728,-4.7205,-4.7782,-4.8535,-4.9012,-4.93,-4.8893,-4.8289,-4.7738,-4.7431,-4.7431,-4.7473,-4.7364,-4.7431,-4.7407,-4.7074,-4.6473,-4.5775,-4.496,-4.4068,-4.3236,-4.2349,-4.1502,-4.0882,-4.0882,-4.0882,-4.0882,-4.0882,-4.0882,-4.0882,-4.0882,-4.0668,-4.0453,-4.031,-3.9899,-3.9465,-3.9248,-3.8958,-3.872,-3.8574,-3.8574,-3.8574,-3.8574,-3.8574,-3.8574,-3.8574,-3.8574,-3.8574,-3.8574,-3.8574,-3.8574,-3.8574,-3.8574,-3.8574,-3.4474,-3.342,0.0,-3.0708,-2.9001,0.0,-2.5084,0.0,0.0,0.0,0.0,0.0,0.0,0.0,0.0,0.0,0.0,0.0,0.0,-2.0063,0.0,0.0,0.0,0.0,0.0,0.0,-2.6264,-2.6666,-2.7344,-2.8649,0.0,-3.3796,-3.5952,-3.6908,-3.9798,-4.1275,-4.1275,-4.2434,-4.2986,-4.2986,-4.2986,-4.2986,-4.2986,-4.2986,-4.2986,-4.2986,-4.2986,-4.3413,-4.4091,-4.4091,-4.4769,-4.5773,-4.5773,-4.5999,-4.6301,-4.6301,-4.6301,-4.6426,-4.7154,-4.7631,-4.8033,-4.8812,-4.9314,-4.9461,-4.8967,-4.8289,-4.7672,-4.7298,-4.6941,-4.665,-4.6607,-4.6674,-4.665,-4.6382,-4.618,-4.5775,-4.496,-4.4068,-4.3236,-4.2349,-4.1502,-4.0882,-4.0882,-4.0882,-4.0882,-4.0882,-4.0882,-4.0882,-4.0882,-4.0525,-4.0238,-4.0094,-3.9518,-3.9103,-3.903,-3.872,-3.8574,-3.8574,-3.8574,-3.8574,-3.8574,-3.8574,-3.8574,-3.8574,-3.8574,-3.8574,-3.8574,-3.8574,-3.8574,-3.8574,-3.8574,-3.8574]},{"header":{"parameterUnit":"m.s-1","parameterCategory":1,"la1":30.6,"la2":29.2853,"lo1":-89.7004,"lo2":-87.6739,"dy":0.0162,"dx":0.0183,"nx":112,"ny":82,"refTime":"2026-03-30T12:00:00:Z","depth":0,"parameterNumber":3,"parameterNumberName":"V-component_of_WINDS"},"data":[0.0,0.0,0.0,0.0,0.0,0.0,0.0,0.0,0.0,0.0,0.0,0.0,0.0,0.0,0.0,0.0,0.0,0.0,0.0,0.0,0.0,0.0,0.0,0.0,0.0,0.0,0.0,0.0,0.0,0.0,0.0,0.0,0.0,0.0,0.0,0.0,0.0,0.0,0.0,0.0,0.0,0.0,0.0,0.0,0.0,0.0,0.0,0.0,0.0,0.0,0.0,0.0,0.0,0.0,0.0,0.0,0.0,0.0,0.0,0.0,0.0,0.0,0.0,0.0,0.0,0.0,0.0,0.0,0.0,0.0,0.0,0.0,0.0,0.0,0.0,0.0,0.0,0.0,0.0,0.0,0.0,0.0,0.0,0.0,0.0,0.0,0.0,0.0,0.0,0.0,0.0,3.5313,4.0647,4.244,3.9129,3.7334,3.4622,3.0534,0.0,0.0,0.0,0.0,0.0,0.0,0.0,0.0,0.0,0.0,0.0,0.0,0.0,0.0,0.0,0.0,0.0,0.0,0.0,0.0,0.0,0.0,0.0,0.0,0.0,0.0,0.0,0.0,0.0,0.0,0.0,0.0,0.0,0.0,0.0,0.0,0.0,0.0,0.0,0.0,0.0,0.0,0.0,0.0,0.0,0.0,0.0,0.0,0.0,0.0,0.0,0.0,0.0,0.0,0.0,0.0,0.0,0.0,0.0,0.0,0.0,0.0,0.0,0.0,0.0,0.0,0.0,0.0,0.0,0.0,0.0,0.0,0.0,0.0,0.0,0.0,0.0,0.0,0.0,0.0,0.0,0.0,0.0,0.0,0.0,0.0,0.0,0.0,0.0,0.0,0.0,0.0,0.0,0.0,0.0,0.0,0.0,0.0,0.0,0.0,0.0,0.0,0.0,0.0,3.2,3.962,4.2866,4.3794,4.1976,3.9495,3.6679,3.355,0.0,0.0,0.0,0.0,0.0,0.0,0.0,0.0,0.0,0.0,0.0,0.0,0.0,0.0,0.0,0.0,0.0,0.0,0.0,0.0,0.0,0.0,0.0,0.0,0.0,0.0,0.0,0.0,0.0,0.0,0.0,0.0,0.0,0.0,0.0,0.0,0.0,0.0,0.0,0.0,0.0,0.0,0.0,0.0,0.0,0.0,0.0,0.0,0.0,0.0,0.0,0.0,0.0,0.0,0.0,0.0,0.0,0.0,0.0,0.0,0.0,0.0,0.0,0.0,0.0,0.0,0.0,0.0,0.0,0.0,0.0,0.0,0.0,0.0,0.0,0.0,0.0,0.0,0.0,0.0,0.0,0.0,0.0,0.0,0.0,0.0,0.0,0.0,0.0,0.0,0.0,0.0,0.0,0.0,0.0,0.0,0.0,0.0,0.0,0.0,0.0,0.0,0.0,3.2961,3.7606,4.2109,4.4589,4.4851,4.2256,4.0147,3.7061,3.2658,2.7657,0.0,0.0,0.0,0.0,0.0,0.0,0.0,0.0,0.0,0.0,0.0,0.0,0.0,0.0,0.0,0.0,0.0,0.0,0.0,0.0,0.0,0.0,0.0,0.0,0.0,0.0,0.0,0.0,0.0,0.0,0.0,0.0,0.0,0.0,0.0,0.0,0.0,0.0,0.0,0.0,0.0,0.0,0.0,0.0,0.0,0.0,0.0,0.0,0.0,0.0,0.0,0.0,0.0,0.0,0.0,0.0,0.0,0.0,0.0,0.0,0.0,0.0,0.0,0.0,0.0,0.0,0.0,0.0,0.0,0.0,0.0,0.0,0.0,0.0,0.0,0.0,0.0,0.0,0.0,0.0,0.0,0.0,0.0,0.0,0.0,0.0,0.0,0.0,0.0,0.0,0.0,0.0,0.0,0.0,0.0,0.0,0.0,0.0,0.0,0.0,0.0,0.0,3.8891,4.2539,4.4194,4.6078,4.5841,4.2475,4.0534,3.7135,3.1597,2.7447,0.0,0.0,0.0,0.0,0.0,0.0,0.0,0.0,0.0,0.0,0.0,0.0,0.0,0.0,0.0,0.0,0.0,0.0,0.0,0.0,0.0,0.0,0.0,0.0,0.0,0.0,0.0,0.0,0.0,0.0,0.0,0.0,0.0,0.0,0.0,0.0,0.0,0.0,0.0,0.0,0.0,0.0,0.0,0.0,0.0,0.0,0.0,0.0,0.0,0.0,0.0,0.0,0.0,0.0,0.0,0.0,0.0,0.0,0.0,0.0,0.0,0.0,0.0,0.0,0.0,0.0,0.0,0.0,0.0,0.0,0.0,0.0,0.0,0.0,0.0,0.0,0.0,0.0,0.0,0.0,0.0,0.0,0.0,0.0,0.0,0.0,0.0,0.0,0.0,0.0,0.0,0.0,0.0,0.0,0.0,0.0,0.0,0.0,0.0,0.0,0.0,0.0,4.0718,4.426,4.6444,4.7533,4.6899,4.3905,4.1264,3.7556,3.2337,2.7332,0.0,0.0,0.0,0.0,0.0,0.0,0.0,0.0,0.0,0.0,0.0,0.0,0.0,0.0,0.0,0.0,0.0,0.0,0.0,0.0,0.0,0.0,0.0,0.0,0.0,0.0,0.0,0.0,0.0,0.0,0.0,0.0,0.0,0.0,0.0,0.0,0.0,0.0,0.0,0.0,0.0,0.0,0.0,0.0,0.0,0.0,0.0,0.0,0.0,0.0,0.0,0.0,0.0,0.0,0.0,0.0,0.0,0.0,0.0,0.0,0.0,0.0,0.0,0.0,0.0,0.0,0.0,0.0,0.0,0.0,0.0,0.0,0.0,0.0,0.0,0.0,0.0,0.0,0.0,0.0,0.0,0.0,0.0,0.0,0.0,0.0,0.0,0.0,0.0,0.0,0.0,0.0,0.0,0.0,0.0,0.0,0.0,0.0,0.0,0.0,0.0,0.0,4.1607,4.4953,0.0,4.7635,4.6967,4.4156,4.1331,3.734,3.1888,0.0,0.0,0.0,0.0,0.0,0.0,0.0,0.0,0.0,0.0,0.0,0.0,0.0,0.0,0.0,0.0,0.0,0.0,0.0,0.0,0.0,0.0,0.0,0.0,0.0,0.0,0.0,0.0,0.0,0.0,0.0,0.0,0.0,0.0,0.0,0.0,0.0,0.0,0.0,0.0,0.0,0.0,0.0,0.0,0.0,0.0,0.0,0.0,0.0,0.0,0.0,0.0,0.0,0.0,0.0,0.0,0.0,0.0,0.0,0.0,0.0,0.0,0.0,0.0,0.0,0.0,0.0,0.0,0.0,0.0,0.0,0.0,0.0,0.0,0.0,0.0,0.0,0.0,0.0,0.0,0.0,0.0,0.0,0.0,0.0,0.0,0.0,0.0,0.0,0.0,0.0,0.0,0.0,0.0,0.0,0.0,0.0,0.0,0.0,0.0,0.0,0.0,3.7798,4.2336,4.5616,0.0,4.7735,4.6935,4.4156,4.1331,3.7215,3.1516,0.0,0.0,0.0,0.0,0.0,0.0,0.0,0.0,0.0,0.0,0.0,0.0,0.0,0.0,0.0,0.0,0.0,0.0,0.0,0.0,0.0,0.0,0.0,0.0,0.0,0.0,0.0,0.0,0.0,0.0,0.0,0.0,0.0,0.0,0.0,0.0,0.0,0.0,0.0,0.0,0.0,0.0,0.0,0.0,0.0,0.0,0.0,0.0,0.0,0.0,0.0,0.0,0.0,0.0,0.0,0.0,0.0,0.0,0.0,0.0,0.0,0.0,0.0,0.0,0.0,0.0,0.0,0.0,0.0,0.0,0.0,0.0,0.0,0.0,0.0,0.0,0.0,0.0,0.0,0.0,0.0,0.0,0.0,0.0,0.0,0.0,0.0,0.0,0.0,0.0,0.0,0.0,0.0,0.0,0.0,0.0,0.0,0.0,0.0,0.0,0.0,0.0,3.8553,4.3098,4.6378,4.7835,4.8098,4.703,4.4072,4.1358,3.7321,0.0,0.0,0.0,0.0,0.0,0.0,0.0,0.0,0.0,0.0,0.0,0.0,0.0,0.0,0.0,0.0,0.0,0.0,0.0,0.0,0.0,0.0,0.0,0.0,0.0,0.0,0.0,0.0,0.0,0.0,0.0,0.0,0.0,0.0,0.0,0.0,0.0,0.0,0.0,0.0,0.0,0.0,0.0,0.0,0.0,0.0,0.0,0.0,0.0,0.0,0.0,0.0,0.0,0.0,0.0,0.0,0.0,0.0,0.0,0.0,0.0,0.0,0.0,0.0,0.0,0.0,0.0,0.0,0.0,0.0,0.0,0.0,0.0,0.0,0.0,0.0,0.0,0.0,0.0,0.0,0.0,0.0,0.0,0.0,0.0,0.0,0.0,0.0,0.0,0.0,0.0,0.0,0.0,0.0,0.0,0.0,0.0,0.0,0.0,0.0,0.0,0.0,0.0,3.8553,4.3098,4.6378,4.7835,4.8033,4.7166,4.4983,4.2568,3.9017,3.3799,0.0,0.0,0.0,0.0,0.0,0.0,0.0,0.0,0.0,0.0,0.0,0.0,0.0,0.0,0.0,0.0,0.0,0.0,0.0,0.0,0.0,0.0,0.0,0.0,0.0,0.0,0.0,0.0,0.0,0.0,0.0,0.0,0.0,0.0,0.0,0.0,0.0,0.0,0.0,0.0,0.0,0.0,0.0,0.0,0.0,0.0,0.0,0.0,0.0,0.0,0.0,0.0,0.0,0.0,0.0,0.0,0.0,0.0,0.0,0.0,0.0,0.0,0.0,0.0,0.0,0.0,0.0,0.0,0.0,0.0,0.0,0.0,0.0,0.0,0.0,0.0,0.0,0.0,0.0,0.0,0.0,0.0,0.0,0.0,0.0,0.0,0.0,0.0,0.0,0.0,0.0,0.0,0.0,0.0,0.0,0.0,0.0,0.0,0.0,0.0,0.0,0.0,3.8129,4.2899,4.6245,4.7438,4.7867,4.7366,4.5684,4.3863,4.0654,3.5633,0.0,0.0,0.0,0.0,0.0,0.0,0.0,0.0,0.0,0.0,0.0,0.0,0.0,0.0,0.0,0.0,0.0,0.0,0.0,0.0,0.0,0.0,0.0,0.0,0.0,0.0,0.0,0.0,0.0,0.0,0.0,0.0,0.0,0.0,0.0,0.0,0.0,0.0,0.0,0.0,0.0,0.0,0.0,0.0,0.0,0.0,0.0,0.0,0.0,0.0,0.0,0.0,0.0,0.0,0.0,0.0,0.0,0.0,0.0,0.0,0.0,0.0,0.0,0.0,0.0,0.0,0.0,0.0,0.0,0.0,0.0,0.0,0.0,0.0,0.0,0.0,0.0,0.0,0.0,0.0,0.0,0.0,0.0,0.0,0.0,0.0,0.0,0.0,0.0,0.0,0.0,0.0,0.0,0.0,0.0,0.0,0.0,0.0,0.0,0.0,0.0,0.0,3.754,4.2634,4.6079,4.6808,4.7666,4.7596,4.6129,4.4997,4.2152,3.7043,0.0,0.0,0.0,0.0,0.0,0.0,0.0,0.0,0.0,0.0,0.0,0.0,0.0,0.0,0.0,0.0,0.0,0.0,0.0,0.0,0.0,0.0,0.0,0.0,0.0,0.0,0.0,0.0,0.0,0.0,0.0,0.0,0.0,0.0,0.0,0.0,0.0,0.0,0.0,0.0,0.0,0.0,0.0,0.0,0.0,0.0,0.0,0.0,0.0,0.0,0.0,0.0,0.0,0.0,0.0,0.0,0.0,0.0,0.0,0.0,2.581,0.0,0.0,0.0,0.0,0.0,0.0,0.0,0.0,0.0,0.0,0.0,0.0,0.0,0.0,0.0,0.0,0.0,0.0,0.0,0.0,0.0,0.0,0.0,0.0,0.0,0.0,0.0,0.0,0.0,0.0,0.0,0.0,0.0,0.0,0.0,0.0,0.0,0.0,0.0,0.0,0.0,3.754,4.2634,4.6079,4.6808,4.7602,4.7501,4.6098,4.5227,4.2907,3.8555,3.3994,0.0,0.0,0.0,0.0,0.0,0.0,0.0,0.0,0.0,0.0,0.0,0.0,0.0,0.0,0.0,0.0,0.0,0.0,0.0,0.0,0.0,0.0,0.0,0.0,0.0,0.0,0.0,0.0,0.0,0.0,0.0,0.0,0.0,0.0,0.0,0.0,0.0,0.0,0.0,0.0,0.0,0.0,0.0,0.0,0.0,0.0,0.0,0.0,0.0,0.0,0.0,0.0,0.0,0.0,0.0,0.0,0.0,0.0,0.0,0.0,2.8397,0.0,0.0,0.0,0.0,0.0,0.0,0.0,0.0,0.0,0.0,0.0,0.0,0.0,0.0,0.0,0.0,0.0,0.0,0.0,0.0,0.0,0.0,0.0,0.0,0.0,0.0,0.0,0.0,0.0,0.0,0.0,0.0,0.0,0.0,0.0,0.0,0.0,0.0,0.0,0.0,3.7044,4.1806,4.5152,4.6245,4.7104,4.7333,4.6564,4.5624,4.3509,3.993,3.5608,0.0,0.0,0.0,0.0,0.0,0.0,0.0,0.0,0.0,0.0,0.0,0.0,0.0,0.0,0.0,0.0,0.0,0.0,0.0,0.0,0.0,0.0,0.0,0.0,0.0,0.0,0.0,0.0,0.0,0.0,0.0,0.0,0.0,0.0,0.0,0.0,0.0,0.0,0.0,0.0,0.0,0.0,0.0,0.0,0.0,0.0,0.0,0.0,0.0,0.0,0.0,0.0,0.0,3.6537,3.7233,3.7846,3.8702,3.9551,4.009,3.6012,3.3883,3.3248,3.2435,0.0,0.0,0.0,0.0,0.0,0.0,0.0,0.0,0.0,0.0,0.0,0.0,0.0,0.0,0.0,0.0,0.0,0.0,0.0,0.0,0.0,0.0,0.0,0.0,3.909,3.8328,3.3193,0.0,0.0,0.0,0.0,0.0,0.0,0.0,0.0,0.0,0.0,0.0,3.6903,4.1309,4.4522,4.5847,4.6802,4.7263,4.7065,4.5991,4.411,4.1209,3.7233,3.3381,0.0,0.0,0.0,0.0,0.0,0.0,0.0,0.0,0.0,0.0,0.0,0.0,0.0,0.0,0.0,0.0,0.0,0.0,0.0,0.0,0.0,0.0,0.0,0.0,0.0,0.0,0.0,0.0,0.0,0.0,0.0,0.0,2.2647,2.4091,0.0,0.0,0.0,0.0,0.0,0.0,0.0,0.0,0.0,0.0,0.0,0.0,0.0,3.4713,3.7315,3.926,4.0613,4.1362,4.2013,4.2479,4.2694,4.2954,4.354,4.4303,4.3822,0.0,3.8714,3.7437,0.0,0.0,0.0,0.0,0.0,0.0,0.0,0.0,0.0,0.0,0.0,0.0,0.0,0.0,0.0,0.0,0.0,0.0,0.0,0.0,0.0,0.0,4.2771,4.3529,4.4754,4.5185,0.0,3.9288,3.5777,3.4187,3.1669,0.0,0.0,0.0,0.0,0.0,0.0,0.0,3.8453,4.28,4.5814,4.6676,4.7437,4.7636,4.6973,4.6208,4.4779,4.2603,3.9475,3.6452,3.3506,2.9259,0.0,0.0,0.0,0.0,0.0,0.0,0.0,0.0,0.0,0.0,0.0,0.0,0.0,0.0,0.0,0.0,0.0,0.0,0.0,0.0,0.0,0.0,0.0,0.0,0.0,0.0,0.0,0.0,0.0,2.3224,2.5882,2.6844,2.7295,2.7234,0.0,0.0,0.0,0.0,0.0,0.0,0.0,0.0,0.0,3.5845,3.7883,4.0224,4.2821,4.4466,4.5783,4.68,4.7459,4.8011,4.8459,4.8473,4.8711,4.907,4.8796,4.7534,4.5424,4.2278,3.956,3.7124,0.0,0.0,0.0,0.0,3.3681,3.4942,3.6339,3.5876,3.4572,3.3726,0.0,0.0,0.0,0.0,0.0,0.0,0.0,0.0,0.0,0.0,4.5748,4.6908,4.7669,4.7835,4.6775,4.4489,4.1806,0.0,3.6208,3.3524,3.1326,0.0,0.0,0.0,0.0,3.5404,3.9415,4.3028,4.5616,4.6775,4.7173,4.7404,4.7504,4.6444,4.5249,4.3916,4.1516,3.8876,3.5961,3.2861,2.9755,0.0,0.0,0.0,0.0,0.0,0.0,0.0,0.0,0.0,0.0,0.0,0.0,0.0,0.0,0.0,0.0,0.0,0.0,0.0,0.0,0.0,0.0,0.0,0.0,0.0,0.0,0.0,0.0,2.6776,2.9205,3.0253,3.0941,3.0969,0.0,0.0,0.0,0.0,0.0,0.0,3.4681,3.6207,3.8302,4.1047,4.2761,4.4885,4.7505,4.8716,4.9853,5.0943,5.1498,5.1977,5.2456,5.2456,5.2456,5.2426,5.1947,5.1439,5.0631,4.6565,4.3678,4.1571,3.9013,3.8041,3.8041,3.8041,3.8823,4.0116,4.1519,4.1046,3.9769,3.8786,3.6567,3.3993,3.2497,0.0,0.0,0.0,0.0,3.8168,4.1652,4.5144,4.8067,4.9359,4.9823,4.9723,4.8995,4.81,4.6444,0.0,4.005,3.7566,3.5545,0.0,0.0,0.0,0.0,3.7268,4.0779,4.3562,4.5748,4.704,4.7173,4.7404,4.7968,4.6643,4.5549,4.5019,4.2987,4.0685,3.8125,3.6004,3.3128,2.9383,0.0,0.0,0.0,0.0,0.0,0.0,0.0,0.0,0.0,0.0,0.0,0.0,0.0,0.0,0.0,0.0,0.0,0.0,0.0,0.0,0.0,0.0,0.0,0.0,0.0,0.0,0.0,0.0,0.0,3.4921,3.5729,0.0,0.0,0.0,0.0,3.6716,3.7015,3.8182,4.0786,4.1025,4.2581,4.5831,4.6681,4.8327,5.096,5.1648,5.2366,5.3025,5.3054,5.3084,5.3144,5.3144,5.3144,5.3144,5.3084,5.3054,5.2815,5.0108,4.7802,4.5783,4.3718,4.301,4.3039,4.294,4.3818,4.5226,4.7203,4.698,4.5663,4.4347,4.0487,3.6327,3.6207,3.5252,0.0,0.0,3.9489,4.201,4.4545,4.7628,5.022,5.1017,5.1711,5.2045,5.1315,4.9988,4.81,0.0,4.2734,4.0713,3.9282,0.0,3.5081,3.6605,3.8096,4.0117,4.3035,4.5417,4.7073,4.7868,4.7934,4.7968,4.8001,4.6643,4.5781,4.5748,4.3661,4.1773,4.031,3.8122,3.5214,3.1515,2.8575,0.0,0.0,0.0,0.0,0.0,0.0,0.0,0.0,0.0,0.0,0.0,0.0,0.0,0.0,0.0,0.0,0.0,0.0,0.0,0.0,0.0,0.0,0.0,0.0,0.0,0.0,0.0,0.0,3.905,4.0247,0.0,4.0344,3.8871,3.8841,4.1017,4.2393,4.3928,4.5723,4.704,4.8446,5.0062,5.075,5.1528,5.2486,5.2725,5.3174,5.3832,5.3832,5.4072,5.4461,5.4042,5.3832,5.3832,5.3384,5.3174,5.3114,5.2157,5.0631,4.8641,4.713,4.6262,4.5903,4.5903,4.6441,4.7369,4.858,4.8327,4.7369,4.6022,4.3748,4.1534,4.1534,4.0876,4.0381,4.1509,4.321,4.4975,4.6607,4.8587,5.034,5.1237,5.1743,5.172,5.0608,4.9722,4.8663,4.7106,4.5019,4.3197,4.2237,4.0415,3.9421,4.042,4.1442,4.28,4.4754,4.6543,4.7703,4.7968,4.8001,4.7802,4.7338,4.6378,4.5582,4.5119,4.3926,4.2539,4.111,3.9852,3.7698,3.4495,3.0705,2.7769,0.0,0.0,0.0,0.0,0.0,0.0,0.0,0.0,0.0,0.0,0.0,0.0,0.0,0.0,0.0,0.0,0.0,0.0,0.0,0.0,0.0,0.0,0.0,0.0,0.0,0.0,4.0487,4.2462,4.3868,4.4496,4.4077,4.303,4.312,4.4885,4.6441,4.7788,4.8895,5.0391,5.1528,5.2187,5.2845,5.3294,5.3533,5.3743,5.4102,5.4551,5.4551,5.476,5.5179,5.473,5.4551,5.4521,5.4072,5.3862,5.3862,5.3862,5.2965,5.1391,5.0122,4.9344,4.8925,4.8716,4.8895,4.9344,4.9763,4.9494,4.8805,4.7894,4.689,4.5992,4.5992,4.5693,4.5417,4.5787,4.6588,4.7511,4.8373,4.9285,5.0177,5.0887,5.1317,5.1288,5.0257,4.9353,4.8597,4.81,4.6411,4.4986,4.4754,4.3495,4.2767,4.3495,4.4026,4.4787,4.6013,4.7239,4.8001,4.8001,4.8001,4.7802,4.7305,4.6378,4.5483,4.4721,4.3794,4.2572,4.111,4.0613,3.899,3.6075,3.1535,2.8315,2.6553,0.0,0.0,0.0,0.0,0.0,0.0,0.0,0.0,0.0,0.0,0.0,0.0,0.0,0.0,0.0,0.0,0.0,0.0,0.0,0.0,0.0,0.0,0.0,3.54,3.9589,4.3249,4.5214,4.6621,4.7429,4.7459,4.686,4.701,4.8267,4.903,4.9643,5.0226,5.0853,5.1528,5.2217,5.2815,5.3503,5.4192,5.485,5.5179,5.5179,5.5179,5.5179,5.5179,5.5179,5.5179,5.5179,5.5179,5.5179,5.5179,5.5179,5.482,5.4102,5.2755,5.2217,5.2127,5.1468,5.1229,5.1229,5.1229,5.0764,5.0226,5.0226,4.9853,4.9359,4.9329,4.9329,4.9374,4.9508,4.9522,4.9528,4.978,4.9787,4.9837,5.0104,5.064,5.094,5.0379,4.9081,4.8001,4.7968,4.6809,4.6048,4.6775,4.5715,4.5052,4.5748,4.5847,0.0,4.6841,4.757,4.8001,4.8001,4.8001,4.8001,4.7968,4.6643,4.5483,4.4688,4.3297,4.1839,4.0442,4.0376,3.8984,3.5976,3.1028,2.7381,2.5143,0.0,0.0,0.0,0.0,0.0,0.0,0.0,0.0,0.0,0.0,0.0,0.0,0.0,0.0,0.0,0.0,0.0,0.0,0.0,0.0,0.0,3.441,3.7883,3.8901,4.2611,4.6142,4.8551,4.9643,5.0331,5.081,5.0272,5.0032,5.0391,5.102,5.1468,5.1648,5.1379,5.1738,5.2875,5.2636,5.3025,5.4192,5.485,5.5179,5.5179,5.5179,5.5179,5.5179,5.5179,5.5179,5.5179,5.5179,5.5179,5.5179,5.5179,5.5089,5.479,5.3443,5.2606,5.2127,5.1468,5.1229,5.1229,5.1229,5.1109,5.096,5.096,5.084,5.0601,5.0122,4.9972,4.9719,4.8501,4.8304,4.834,4.8059,4.8481,4.9025,4.9461,5.0279,5.0579,4.9202,4.8379,4.7785,4.7298,4.6841,4.6584,4.6844,4.7007,4.7173,4.7371,4.7404,0.0,4.7669,4.7868,4.8001,4.8001,4.8001,4.7769,4.7239,4.6344,4.5251,4.3992,4.2535,4.1077,3.968,3.9613,3.7724,3.369,3.1702,2.9132,0.0,0.0,0.0,0.0,0.0,0.0,0.0,0.0,0.0,0.0,0.0,0.0,0.0,0.0,0.0,0.0,0.0,0.0,0.0,0.0,0.0,0.0,3.8118,4.1773,4.3838,4.6322,4.8581,5.0375,5.1468,5.2187,5.2576,5.2007,5.1738,5.2007,5.2396,5.2486,5.2217,5.2097,5.2276,5.2755,5.2665,5.3114,5.4192,5.485,5.5179,5.5179,5.5179,5.5179,5.5179,5.5179,5.5179,5.5179,5.5179,5.5179,5.5179,5.5179,5.5179,0.0,0.0,0.0,0.0,0.0,5.2037,5.2037,5.2037,5.2037,5.2007,5.1708,5.1618,5.1439,5.0465,4.9807,4.9134,4.7829,4.6978,4.6543,4.6808,4.7266,4.781,4.8418,4.9502,4.9912,4.845,4.7697,4.7197,4.6813,4.6493,0.0,4.6666,4.766,4.8359,4.8131,4.8165,4.8133,4.7902,4.7968,4.8001,4.8001,4.8001,4.7835,4.7404,4.6676,0.0,0.0,0.0,4.1077,3.9381,3.9017,0.0,0.0,0.0,0.0,0.0,0.0,0.0,0.0,2.8515,2.9585,0.0,0.0,0.0,0.0,0.0,0.0,0.0,0.0,0.0,0.0,0.0,0.0,0.0,0.0,0.0,0.0,4.1683,4.5185,4.8865,5.0122,5.0853,5.1498,5.2576,5.3294,5.3294,5.2755,5.2636,5.3144,5.3264,5.2995,5.2336,0.0,0.0,0.0,0.0,5.3653,5.4431,5.5089,5.5388,5.5388,5.5388,5.5388,5.5388,5.5388,5.5388,5.5388,5.5388,5.5388,5.5388,5.5329,5.5269,5.5119,5.4461,5.4162,5.4012,5.3414,5.3174,5.3174,5.3174,0.0,0.0,5.2426,5.2187,5.1947,5.0584,4.9374,4.8237,4.7519,4.5963,4.4825,4.598,4.6399,4.6723,4.7508,4.8627,4.9228,4.808,4.7185,4.663,4.6498,4.609,4.5933,4.6536,4.7882,4.8695,4.8226,4.8341,4.8255,4.7802,4.7902,4.8001,4.8001,0.0,0.0,4.8001,4.7305,4.6311,4.4887,4.3297,4.1508,3.9514,3.8725,3.803,3.7367,3.6075,3.4982,3.4154,3.4319,3.4674,3.5138,3.3317,3.345,0.0,0.0,0.0,0.0,0.0,0.0,0.0,0.0,0.0,0.0,0.0,0.0,0.0,0.0,0.0,4.1242,4.4825,4.7967,4.9747,5.2007,5.3473,5.3623,5.3862,5.4012,5.4012,5.3892,5.3653,5.3204,5.3683,5.3713,5.3025,5.3114,5.3384,5.3803,5.3952,5.4581,5.5777,5.6406,5.6735,5.6735,0.0,0.0,5.6735,5.6735,5.6735,5.6735,5.6735,5.6735,5.6675,5.6196,5.5658,5.5119,5.4461,5.3862,5.3354,5.3234,5.3174,5.3174,5.3174,5.3174,5.3084,5.2426,5.2187,5.1947,5.0584,4.9703,0.0,4.7638,4.6651,4.595,4.6219,4.71,4.7981,4.832,4.9139,4.9491,4.8363,4.7732,4.7234,4.6638,4.6885,4.7274,4.7556,4.7767,4.7913,4.8004,4.7967,4.7969,4.8081,4.8033,4.8001,4.8001,4.8001,4.8001,4.8001,4.7305,4.651,4.5616,4.3098,4.1177,4.0243,3.9481,3.9017,3.8884,3.8586,3.7765,3.6473,3.7658,3.7775,3.6821,3.6446,3.7394,0.0,0.0,0.0,0.0,0.0,0.0,0.0,0.0,0.0,0.0,0.0,3.4681,3.7015,0.0,4.2521,4.4526,4.704,4.9464,5.1439,5.3144,5.4221,5.4221,5.4491,5.47,5.47,5.4401,5.4192,5.4192,5.4192,5.4072,5.3713,5.4012,5.4341,5.47,5.5029,5.5658,5.6615,5.6944,5.7094,5.7094,5.7094,5.7094,5.7094,5.7094,5.7094,5.7094,5.7094,5.6915,5.6585,5.5957,5.5478,5.5149,5.482,5.4491,5.4192,5.4192,5.4192,5.4192,5.4192,5.4192,5.4072,5.3414,5.3204,5.2965,5.1618,5.0301,4.912,4.8087,4.683,4.5963,4.6651,4.7549,4.8401,4.8863,4.9524,4.9824,4.8961,4.8607,4.8268,4.7558,4.7679,4.7885,4.776,4.7935,4.82,4.8574,4.8679,4.8799,4.8898,4.9021,4.9094,4.9094,4.9094,4.8961,4.8597,4.7537,4.6576,4.5847,4.4059,4.2568,4.1508,4.1442,4.1276,4.0912,4.1243,4.111,4.0354,4.111,4.1304,4.1023,4.1023,4.1078,0.0,0.0,0.0,0.0,0.0,0.0,0.0,0.0,3.1898,3.4651,3.7015,3.917,4.1175,4.3389,4.5514,4.7369,4.8775,5.0481,5.2845,5.3892,5.4371,5.4221,5.479,5.5179,5.5179,5.47,5.461,5.5149,5.482,5.4581,5.4581,5.5329,5.5748,5.5748,5.6406,5.6974,5.7483,5.7483,5.7483,5.7483,5.7483,5.7483,5.7483,5.7363,5.7304,5.7304,5.7154,5.6735,5.6188,5.5598,5.5299,5.5179,5.5179,5.5179,5.5179,5.5179,5.5179,5.5179,5.5179,5.5179,5.5089,5.4431,5.4221,5.3982,5.2755,5.1199,4.9748,4.9045,4.7608,4.6471,4.7429,4.8177,4.8805,4.9344,4.9853,5.0092,4.9674,4.9434,4.9194,4.8699,4.8563,4.838,4.8109,4.8416,4.8839,4.9141,4.9533,4.9733,4.972,5.001,5.022,5.022,5.022,4.9922,4.916,4.7868,4.6808,4.6046,4.5317,4.439,4.3197,4.3698,4.3761,4.3135,4.3565,4.3731,4.3598,4.3466,4.3628,4.4059,4.4357,4.3879,2.5488,2.7564,3.1182,3.2617,3.4352,3.5848,0.0,0.0,3.7464,4.0733,4.2073,4.323,4.5263,4.6381,4.7429,4.888,5.0152,5.1528,5.2965,5.4281,5.485,5.4281,5.479,5.5179,5.5179,5.5119,5.5119,5.5179,5.5658,5.6008,5.6008,5.7124,5.7812,5.7812,5.8441,5.88,5.889,5.889,5.889,5.889,5.889,5.889,5.886,5.8291,5.8022,5.7962,5.7363,5.6735,5.6166,5.6107,5.5718,5.5179,5.5179,5.5179,5.5179,5.5179,5.5179,5.5179,5.5179,5.5179,5.5089,5.4431,5.4221,5.4072,5.3294,5.2516,5.1738,5.1079,5.0255,4.9538,4.9164,4.9523,4.9986,5.0076,5.0136,5.0258,5.0396,4.999,4.9627,4.9789,4.9317,4.9108,4.9654,4.9388,4.9157,4.9184,4.963,5.0038,5.0192,5.0237,5.022,5.022,5.022,4.9922,4.916,4.8365,4.757,4.6808,4.6079,4.5582,4.545,4.5516,4.5516,4.5417,4.4854,4.4257,4.3598,4.2936,4.2307,4.1806,4.3102,4.4655,2.9774,3.1451,3.4321,3.6417,3.8721,4.0636,4.1294,4.1713,4.2611,4.4796,4.6352,4.7565,4.8402,4.9134,4.9883,0.0,5.1439,5.2247,5.3593,5.4581,5.479,5.3743,5.3503,5.3593,5.3982,5.4012,5.4192,5.4581,5.5598,5.6218,5.6218,5.7423,5.8112,5.8112,5.877,5.9099,5.9099,5.9099,5.9099,5.9099,5.9099,5.8919,5.853,5.8261,5.7902,5.7483,5.6825,5.6406,5.6188,5.5748,5.5448,5.5179,5.5179,5.5179,5.5179,5.5179,5.5179,5.5179,5.5179,5.5179,5.5149,5.488,5.4521,5.4162,5.3862,5.3025,5.2127,5.1858,5.1319,5.0704,5.0481,5.0601,5.0764,5.0764,5.0764,5.0857,5.1134,5.1304,5.1328,5.1195,5.1246,5.1194,5.0825,5.0858,5.0863,5.0525,5.0661,5.0908,5.1303,5.1432,5.1479,5.1479,5.1082,5.0717,5.0386,4.969,4.8961,4.8233,4.7504,4.6709,4.5814,4.5781,4.5582,4.5152,4.5284,4.5185,4.4887,4.4589,4.4257,4.3992,4.4589,4.5616,3.3275,3.4921,3.7225,3.9792,4.2303,4.4336,4.5214,4.5783,4.6441,4.7608,4.8985,5.0032,5.0166,5.0481,5.102,5.2037,5.2187,5.2665,5.4012,5.479,5.47,5.3354,5.2426,5.2037,5.2336,5.2695,5.3204,5.3862,5.5478,5.6436,5.6436,5.7663,5.8411,5.8411,5.868,5.883,5.883,5.865,5.856,5.856,5.856,5.8291,5.7842,5.7663,5.7214,5.6555,5.6107,5.5897,5.5867,5.5388,5.5179,5.5179,5.5179,5.5179,5.5179,5.5179,5.5179,5.5179,5.5179,5.5179,5.5179,5.5179,5.476,5.4221,5.4221,5.3384,5.2426,5.2247,5.1858,5.1439,5.1259,5.1229,5.1229,5.1229,5.1229,5.1323,5.1649,5.2139,5.2483,5.2386,5.271,5.2711,5.1861,5.203,5.2102,5.168,5.1655,5.1802,5.2122,5.2302,5.2409,5.2409,5.1945,5.1547,5.1315,5.0618,4.9988,4.9458,4.873,4.7934,4.704,4.7007,4.6742,4.6212,4.6543,4.6709,4.6709,4.651,4.6411,4.6411,4.6411,4.6676,3.4711,3.7315,3.9881,4.2512,4.4695,4.6561,4.7878,4.8177,4.8386,4.912,4.9299,4.9494,5.0076,4.9733,4.9988,5.1887,5.2187,5.2665,5.4012,5.479,5.47,5.3354,5.2037,5.0973,0.0,5.1468,5.2516,5.3174,5.5598,5.7064,5.7064,5.8351,5.9069,5.9069,5.8471,5.8141,5.8141,5.7483,5.7154,5.7154,5.7154,5.7154,5.7094,5.6496,5.5867,5.5239,5.5239,5.5209,5.5209,5.5209,5.5179,5.5179,5.5179,5.5179,5.5179,5.5179,5.5179,5.5179,5.5179,5.5179,5.5179,5.5179,5.476,5.4221,5.4221,5.3713,5.3025,5.2366,5.2187,5.2037,5.1379,5.1229,5.1229,5.1229,5.1229,5.1369,5.1834,5.2155,5.2532,5.3214,5.3173,5.2984,5.2853,5.2657,5.2398,5.2112,5.223,5.2373,5.2373,5.2373,5.2409,5.2409,5.2409,5.2078,5.1382,5.0618,5.0187,5.0187,4.9491,4.9392,5.0055,5.0088,5.0088,5.0055,4.9359,4.8995,4.8995,4.8299,4.7934,4.7934,4.7934,4.7968,3.7255,3.9709,4.2013,4.4646,4.68,4.8506,4.9374,4.9912,5.0062,4.9449,4.897,4.8686,4.8895,4.9134,4.9808,5.1289,5.2665,5.3683,5.4162,5.479,5.4521,5.2755,5.1768,0.0,0.0,0.0,0.0,5.1798,5.4341,5.6017,5.6466,5.8141,5.8919,5.8471,5.8231,5.7902,5.7453,5.7214,5.7094,5.7094,5.6675,5.6466,5.6466,5.5807,5.5388,5.5179,5.5179,5.5179,5.5179,5.5179,5.5179,5.5179,5.5179,5.5179,5.5179,5.5179,5.5179,5.5179,5.5179,5.5179,5.5179,5.5179,5.4431,5.3533,5.3533,5.2755,5.1828,5.1618,5.1558,5.1498,5.1289,5.1229,5.1229,5.1229,5.1229,5.1323,5.1649,5.217,5.2651,5.3214,5.3989,5.4437,5.4082,5.4338,5.4364,5.3787,5.2967,5.2409,5.2409,5.2409,5.2409,5.2409,5.2409,5.231,5.2078,5.1777,5.1446,5.0949,5.0253,4.9723,4.9491,4.8995,4.8763,4.8763,4.8498,4.8365,4.8365,4.8133,4.8001,4.8001,4.8001,4.8266,3.9978,4.2432,4.4687,4.683,4.8506,4.9793,5.0375,5.0674,5.0421,4.8895,4.7668,4.686,4.686,4.7219,4.8147,5.0182,5.2187,5.3653,5.4132,5.479,5.4521,5.2755,5.1977,5.09,0.0,0.0,0.0,5.078,5.3114,5.488,5.5777,5.7453,5.8201,5.7782,5.7543,5.7214,5.6765,5.6526,5.6406,5.6406,5.6017,5.5807,5.5807,5.5388,5.5179,5.5179,5.5179,5.5179,5.5179,5.5179,5.5179,5.5179,5.5179,5.5179,5.5179,5.5179,5.5179,5.5179,5.5179,5.5179,5.5179,5.5179,5.4431,5.3563,5.3563,5.2785,5.1917,5.1917,5.1738,5.1558,5.1558,5.1379,5.1229,5.1229,5.1229,5.1276,5.1526,5.2002,5.2516,5.3082,5.4062,5.475,5.4438,5.4776,5.4944,5.4556,5.3732,5.3069,5.2771,5.2539,5.2409,5.2409,5.2409,5.2409,5.2409,5.2409,5.221,5.1746,5.1247,5.0783,5.0286,4.9823,4.9558,4.9558,4.9558,4.9558,4.9558,4.9558,4.9558,4.9558,4.9558,4.9823,4.2781,4.5484,4.7818,4.9149,4.9883,5.0435,5.1079,5.0644,4.9568,4.7578,4.5514,4.4077,4.4077,4.4077,4.5214,4.858,5.084,5.2665,5.3982,5.476,5.47,0.0,0.0,0.0,0.0,0.0,0.0,5.0196,0.0,5.3713,5.5059,5.6376,5.7094,5.7034,5.6466,5.6166,5.6188,5.5508,5.5179,5.5179,5.5179,5.5179,5.5179,5.5179,5.5179,5.5179,5.5179,5.5179,5.5179,5.5179,5.5179,5.5179,5.5179,5.5179,5.5179,5.5179,5.5179,5.5179,5.5179,5.5179,5.5179,5.5179,5.476,5.4221,5.4221,5.3713,5.3174,5.3174,5.2695,5.2187,5.2187,5.1708,5.1229,5.1229,5.1229,5.1276,5.1526,5.1711,5.2079,5.2802,5.3477,5.3989,5.4058,5.417,5.4326,5.4589,5.4556,5.4258,5.35,5.2837,5.2407,5.2409,5.2409,5.2409,5.2409,5.2409,5.2409,5.2409,5.2409,5.2409,5.2409,5.2409,5.2409,5.2409,5.2409,5.2409,5.2409,5.2409,5.2409,5.2409,5.2409,5.2409,4.5454,4.8207,5.0421,5.1229,5.1588,5.1618,5.1289,5.0331,4.8686,4.5693,4.2731,4.0629,4.0629,4.1055,4.2491,4.5783,4.9613,0.0,5.3324,5.4461,0.0,5.4042,0.0,5.3174,5.1828,5.0511,0.0,0.0,5.2157,5.3025,5.4371,5.6137,5.6885,5.6406,5.6308,5.5927,5.5448,5.5269,5.5179,5.5179,5.5179,5.5179,5.5179,5.5179,5.5179,5.5179,5.5179,5.5179,5.5179,5.5179,5.5179,5.5179,5.5179,5.5179,5.5179,5.5179,5.5179,5.5179,5.5179,5.5179,5.5179,5.5179,5.476,5.4221,5.4221,5.3713,5.3174,5.3174,5.2695,5.2187,5.2187,5.1708,5.1229,5.1229,5.1229,5.1229,5.1323,5.1339,5.1479,5.1895,5.2771,5.3816,5.48,5.5157,5.5496,5.604,5.5686,5.4854,5.3599,5.3268,5.2937,5.244,5.2409,5.2409,5.2409,5.2409,5.2409,5.2409,5.2409,5.2409,5.2409,5.2409,5.2409,5.2409,5.2409,5.2409,5.2409,5.2409,5.2409,5.2409,5.2409,5.2409,4.7758,5.0092,5.1738,5.2097,5.2187,5.1887,5.0631,4.9134,4.704,4.3718,4.0187,3.7793,3.8063,3.8661,4.0277,0.0,0.0,0.0,5.2187,5.3204,5.3743,0.0,5.3324,0.0,5.2276,5.1528,5.1528,0.0,5.2097,5.2486,5.4132,5.5508,5.6107,5.5748,5.5748,5.5568,5.5179,5.5179,5.5179,5.5179,5.5179,5.5179,5.5179,5.5179,5.5179,5.5179,0.0,5.5179,5.5179,5.5179,5.5179,5.5179,5.5179,5.5179,5.5179,5.5179,5.5179,5.5179,5.5179,5.5179,5.5179,5.5179,5.494,5.464,5.464,5.4371,5.4072,5.4072,5.3593,5.3084,5.3084,5.2366,5.1648,5.1648,5.1439,5.1229,5.1229,5.1229,5.1323,5.1665,5.2502,5.3577,5.4819,5.5336,5.5854,5.6603,5.6349,5.5686,5.4527,5.4096,5.3765,5.3367,5.3036,5.2837,5.2837,5.2572,5.2409,5.2409,5.2409,5.2409,5.2409,5.2409,5.2409,5.2409,5.2409,5.2409,5.2409,5.2409,5.2409,5.2409,5.2409,5.2409,4.9777,5.1468,5.2456,5.2366,5.2276,5.1648,4.9539,4.7279,4.4706,4.1294,3.7464,3.4951,3.5699,3.6477,3.8362,4.2363,0.0,4.9583,5.09,5.1648,5.2097,5.2187,5.2187,5.2276,5.2456,5.2486,5.2725,5.3414,5.2306,5.2366,5.4132,5.485,5.5179,5.5179,5.5179,5.5179,5.5179,5.5179,5.5179,5.5179,5.5179,5.5179,5.5179,5.5179,5.5179,5.5179,5.5179,5.5179,5.5179,5.5179,5.5179,5.5179,5.5179,5.5179,5.5179,5.5179,5.5179,5.5179,5.5179,5.5179,5.5179,5.5179,5.5179,5.5179,5.5179,5.5179,5.5179,5.5179,5.473,5.4221,5.4221,5.3204,5.2187,5.2187,5.1708,5.1229,5.1229,5.1229,5.1323,5.1711,5.2397,5.3214,5.4391,5.5008,5.5612,5.6564,5.668,5.6448,5.5852,5.5085,5.4589,5.449,5.3964,5.3533,5.3434,5.287,5.2473,5.2409,5.2409,5.2409,5.2409,5.2409,5.2409,5.2409,5.2409,5.2409,5.2409,5.2409,5.2409,5.2409,5.2409,5.2409,5.1439,5.2845,5.3713,5.3144,5.2606,5.1409,4.8327,4.4855,0.0,3.7315,3.3365,3.0971,3.2138,3.3814,3.6477,4.0995,4.5514,4.8925,5.0166,5.0913,5.1588,0.0,5.2187,5.2636,5.3743,5.3862,0.0,0.0,5.4132,5.3832,5.4192,5.485,5.5179,5.5179,5.5179,5.5179,5.5179,5.5179,5.5179,5.5179,5.5179,5.5179,5.5179,5.5179,5.5179,5.5179,5.5179,0.0,5.5179,5.5179,5.5179,5.5179,5.5179,5.5179,5.5179,5.5179,5.5179,5.5179,5.5179,5.5179,5.5179,5.5179,5.5179,5.5179,5.5179,5.5179,5.5179,5.5179,5.473,5.4221,5.4221,5.3204,5.2187,5.2187,5.1708,5.1229,5.1229,5.1229,5.1229,5.1323,5.1787,5.2577,5.3922,5.4517,5.5254,5.6525,5.668,5.6647,5.6514,5.5885,5.5152,5.4593,5.4357,5.4063,5.3467,5.3301,5.3003,5.2442,5.2409,5.2409,5.2409,5.2409,5.2409,5.2409,5.2409,5.2409,5.2409,5.2409,5.2409,5.2409,5.2409,5.2409,5.2366,5.3443,5.3952,5.2935,5.1917,5.0122,4.6142,0.0,0.0,3.4681,3.1061,2.8963,3.0283,3.1839,3.4352,3.8631,4.294,4.6172,4.7489,4.8536,4.9553,5.0541,5.099,5.1828,0.0,5.4311,5.485,5.5179,5.491,5.473,5.473,5.5029,5.5179,5.5179,5.5179,5.5179,5.5179,5.5179,5.5179,5.5179,5.5179,5.5179,5.5179,5.5179,5.5179,5.5179,5.5179,5.5179,5.5179,5.5179,5.5179,5.5179,5.5179,5.5179,5.5179,5.5179,5.5179,5.5179,5.5179,5.5179,5.5179,5.5179,5.5179,5.5179,5.5179,5.5179,5.5179,5.5179,5.497,5.473,5.473,5.3982,5.3234,5.3234,5.2456,5.1618,5.1289,5.1229,5.1229,5.1229,5.1649,5.2382,5.3446,5.4136,5.4966,5.6211,5.6447,5.6564,5.668,5.6382,5.6051,5.5686,5.5322,5.492,5.4556,5.4195,5.3864,5.35,5.35,5.35,5.35,5.35,5.35,5.35,5.35,5.35,5.35,5.35,5.35,5.35,5.35,5.35,5.2845,5.3563,5.3623,5.2157,5.069,4.8312,4.3529,3.9284,3.5429,3.2138,2.8936,2.7165,2.8513,2.9804,3.1989,0.0,4.0008,4.309,4.4646,4.6022,4.7429,0.0,4.9643,0.0,5.2965,5.4401,0.0,5.5179,5.5179,5.5179,5.5179,5.5179,5.5179,5.5179,5.5179,5.5179,5.5179,5.5179,5.5179,5.5179,5.5179,5.5179,5.5179,5.5179,5.5179,5.5179,5.5179,5.5179,5.5179,5.5179,5.5179,5.5179,5.5179,5.5179,5.5179,5.5179,5.5179,5.5179,5.5179,5.5179,5.5179,5.5179,5.5179,5.5179,5.5179,5.5179,5.5179,5.5179,5.5179,5.5179,5.5179,5.47,5.4132,5.3832,5.2965,5.2007,5.1349,5.1229,5.1229,5.1229,5.1602,5.22,5.3007,5.3707,5.4549,5.5774,5.6093,5.6369,5.6641,5.668,5.668,5.668,5.6183,5.5786,5.5615,5.5052,5.4655,5.449,5.449,5.449,5.449,5.449,5.449,5.449,5.449,5.449,5.449,5.449,5.449,5.449,5.449,5.449,5.2995,5.3234,5.2815,5.0853,4.894,4.6202,4.0928,3.6237,3.2018,2.8723,2.5878,2.4388,2.5734,2.7051,2.9442,3.4024,3.7584,4.0629,4.311,4.4646,4.6202,4.8147,0.0,0.0,5.2935,5.4401,5.5179,5.5179,5.5179,5.5179,5.5179,5.5179,5.5179,5.5179,5.5179,5.5179,5.5179,5.5179,5.5179,5.5179,5.5179,5.5179,5.5179,5.5179,5.5179,5.5179,5.5179,5.5179,0.0,5.5179,5.5179,5.5179,5.5179,5.5179,5.5179,5.5179,5.5179,5.5179,5.5179,5.5179,5.5179,5.5179,5.5179,5.5179,5.5179,5.5179,5.5179,5.5179,5.5179,5.5179,5.5179,5.47,5.3892,5.2665,5.2306,5.2007,5.1349,5.1229,5.1229,5.1229,5.1463,5.1849,5.2561,5.3095,5.3848,5.519,5.5588,5.6013,5.6603,5.668,5.668,5.668,5.6614,5.6316,5.5648,5.5516,5.5185,5.4523,5.449,5.449,5.449,5.449,5.449,5.449,5.449,5.449,5.449,5.449,5.449,5.449,5.449,5.449,5.1229,5.2276,5.2606,5.0242,4.7549,4.4227,3.932,3.4352,3.0043,2.7525,2.5196,2.3879,2.4814,2.5764,2.7649,3.145,3.4532,3.7345,3.9978,4.2192,4.4107,4.5693,4.7189,0.0,0.0,0.0,5.4311,5.5119,5.5179,5.5179,5.5179,5.5179,5.5179,5.5179,5.5179,5.5179,5.5179,5.5179,5.5179,5.5179,5.5179,5.5179,5.5179,5.5179,5.5179,5.5179,5.5179,5.5179,0.0,5.5179,5.5179,5.5179,5.5179,5.5179,5.5179,5.5179,5.5179,5.5179,5.5179,5.5179,5.5179,5.5179,5.5179,5.5179,5.5179,5.5179,5.5179,5.5179,5.5179,5.5179,5.5179,5.4999,5.4581,5.3623,5.3414,5.3234,5.2546,5.2522,5.2545,5.2107,5.2362,5.2627,5.2639,5.329,5.4082,5.5017,5.558,5.6132,5.6641,5.668,5.668,5.668,5.668,5.6581,5.6282,5.6249,5.615,5.5852,5.5819,5.5819,5.5819,5.5819,5.5819,5.5819,5.5819,5.5819,5.5819,5.5819,5.5819,5.5819,5.5819,5.5819,4.9374,5.1109,5.1917,4.9105,4.6052,4.2462,3.7644,3.2796,2.8727,2.6722,2.4866,2.3759,2.4216,2.4687,2.6033,2.9146,3.1568,3.4114,3.7105,3.9828,4.2081,0.0,0.0,4.7279,0.0,5.1798,5.3743,5.5089,5.5179,5.5179,5.5179,5.5179,5.5179,5.5179,5.5179,5.5179,5.5179,5.5179,5.5179,5.5179,5.5179,5.5179,5.5179,5.5179,5.5179,5.5179,5.5179,5.5179,0.0,5.5179,5.5179,5.5179,5.5179,5.5179,5.5179,5.5179,5.5179,5.5179,5.5179,5.5179,5.5179,5.5179,5.5179,5.5179,5.5179,5.5179,5.5179,5.5179,5.5179,5.5179,5.5179,5.5179,5.5029,5.4371,5.4221,5.4012,5.3324,5.3398,5.3459,5.3001,5.3222,5.3391,5.3148,5.3683,5.4412,5.5049,5.5653,5.6132,5.6641,5.668,5.668,5.668,5.668,5.668,5.668,5.668,5.668,5.668,5.668,5.668,5.668,5.668,5.668,5.668,5.668,5.668,5.668,5.668,5.668,5.668,5.668,5.668,4.7758,4.9733,5.0451,4.7116,4.4347,4.1033,3.5731,3.145,2.8038,2.6033,2.4537,2.361,2.361,2.361,2.4477,2.7195,2.8783,3.1031,3.4981,3.7793,4.0187,0.0,0.0,4.5394,4.8057,5.1259,5.3743,5.5089,5.5179,0.0,5.5179,5.5179,5.5179,5.5179,5.5179,5.5179,5.5179,5.5179,5.5179,5.5179,5.5179,5.5179,5.5179,5.5179,5.5179,5.5179,5.5179,5.5179,0.0,5.5179,5.5179,5.5179,5.5179,5.5179,5.5179,5.5179,5.5179,5.5179,5.5179,5.5179,5.5179,5.5179,5.5179,5.5179,5.5179,5.5179,5.5179,5.5179,5.5179,5.5179,5.5179,5.5179,5.5029,5.4371,5.4221,5.4012,5.3324,5.3398,5.3572,5.3561,5.3804,5.3992,5.3974,5.4147,5.4527,5.519,5.5507,5.5974,5.6603,5.668,5.668,5.668,5.668,5.668,5.668,5.668,5.668,5.668,5.668,5.668,5.668,5.668,5.668,5.668,5.668,5.668,5.668,5.668,5.668,5.668,5.668,5.668,4.315,4.5334,4.6501,4.3658,4.0935,3.7943,3.4023,3.0073,2.6901,2.5824,2.4537,2.361,2.361,2.361,2.4328,2.6566,2.7675,2.9771,3.4204,0.0,0.0,4.2111,4.5125,4.7878,0.0,0.0,5.3743,5.5089,5.5179,5.5179,5.5179,5.5179,5.5179,5.5179,5.5179,5.5179,5.5179,5.5179,5.5179,5.5179,5.5179,5.5179,5.5179,5.5179,5.5179,5.5179,5.5179,5.5179,5.5179,5.5179,5.5179,5.5179,5.5179,5.5179,5.5179,5.5179,5.5179,5.5179,5.5179,5.5179,5.5179,5.5179,5.5179,5.5179,5.5179,5.5179,5.5179,5.5179,5.5179,5.5179,5.5179,5.5179,5.5149,5.494,5.488,5.482,5.461,5.4899,5.5129,5.483,5.5271,5.5652,5.5544,5.5941,5.6294,5.6351,5.6653,5.685,5.6707,5.668,5.668,5.668,5.668,5.668,5.668,5.668,5.668,5.668,5.668,5.668,5.668,5.668,5.668,5.668,5.668,5.668,5.668,5.668,5.668,5.668,5.668,5.668,3.8841,4.1265,4.2521,4.0127,3.7734,3.513,3.2108,2.8727,2.6033,2.5352,2.4358,2.361,2.361,2.361,2.4178,2.5944,2.6572,2.8483,3.3095,0.0,0.0,4.3389,0.0,0.0,0.0,5.2247,5.3743,5.5089,5.5179,5.5179,5.5179,5.5179,5.5179,5.5179,5.5179,5.5179,5.5179,5.5179,5.5179,5.5179,5.5179,5.5179,5.5179,5.5179,5.5179,5.5179,5.5179,5.5179,0.0,5.5179,5.5179,5.5179,5.5179,5.5179,5.5179,5.5179,5.5179,5.5179,5.5179,5.5179,5.5179,5.5179,5.5179,5.5179,5.5179,5.5179,5.5179,5.5179,5.5179,5.5179,5.5179,5.5179,5.5179,5.5179,5.5179,5.5179,5.5179,5.5531,5.5766,5.5472,5.5967,5.6461,5.6619,5.7056,5.7372,5.7192,5.7416,5.7384,5.6779,5.668,5.668,5.668,5.668,5.668,5.668,5.6945,5.7111,5.7111,5.7111,5.7111,5.7111,5.6846,5.668,5.668,5.668,5.668,5.668,5.668,5.668,5.668,5.668,5.668,0.0,3.7345,3.8542,3.6626,3.4651,3.2557,3.0041,2.741,0.0,2.4724,2.4066,2.361,2.367,2.367,2.4118,2.5525,2.5794,2.744,0.0,3.5789,0.0,0.0,4.8297,0.0,5.0345,5.2157,5.3803,5.5089,5.5179,5.5179,5.5179,5.5179,5.5179,5.5179,5.5179,5.5179,5.5179,5.5179,5.5179,5.5179,5.5179,5.5179,5.5179,5.5179,5.5179,0.0,5.5179,5.5179,5.5179,5.5179,5.5179,5.5179,5.5179,5.5179,5.5179,5.5179,5.5179,5.5179,5.5179,5.5179,5.5179,5.5179,5.5179,5.5179,5.5179,5.5179,5.5179,5.5179,5.5179,5.5179,5.5179,5.5179,5.5179,5.5179,5.5179,5.5179,5.5179,5.5381,5.5569,5.563,5.5998,5.6615,5.7367,5.7738,5.7961,5.7959,5.7939,5.7674,5.6945,5.6846,5.6812,5.6779,5.6779,5.6746,5.668,5.7376,5.7806,5.7806,5.7839,5.7839,5.7806,5.7144,5.6746,5.668,5.668,5.668,5.668,5.668,5.668,5.668,5.668,5.668,2.8338,0.0,3.4532,3.3035,3.1599,3.0101,0.0,2.6393,2.4784,2.4634,2.4066,2.3759,2.4276,2.4365,2.4963,2.6836,2.756,2.9505,3.4143,0.0,0.0,4.888,5.0631,5.1768,5.2426,5.3384,5.4311,5.5119,5.5179,5.5179,5.5179,5.5179,5.5179,5.5179,5.5179,5.5179,5.5179,5.5179,5.5179,5.5179,5.5179,5.5179,5.5179,5.5179,5.5179,5.5179,5.5179,5.5179,5.5179,5.5179,5.5179,5.5179,5.5179,5.5179,5.5179,5.5179,5.5179,5.5179,5.5179,5.5179,5.5179,5.5179,5.5179,5.5179,5.5179,5.5179,5.5179,5.5179,5.5179,5.5179,5.5179,5.5179,5.5179,5.5179,5.5179,5.5179,5.5179,5.5381,5.562,5.5804,5.6405,5.7293,5.8352,5.8959,5.9327,5.9473,5.9496,5.9231,5.8469,5.8369,5.8171,5.7574,5.7541,5.7309,5.6746,5.7376,5.7806,5.7806,5.8336,5.8369,5.7806,5.7608,5.7276,5.6713,5.668,5.668,5.668,5.668,5.668,5.668,5.668,5.668,2.5854,2.8397,3.0612,2.9894,2.8966,2.7949,2.6926,2.5136,2.3819,2.4066,2.364,2.346,2.4425,2.4844,2.5734,2.7709,2.9116,3.2049,0.0,0.0,4.8207,5.084,5.2306,5.3264,0.0,5.4251,5.482,5.5149,5.5179,5.5179,5.5179,5.5179,5.5179,5.5179,5.5179,5.5179,5.5179,5.5179,5.5179,5.5179,5.5179,5.5179,5.5179,5.5179,5.5179,5.5179,5.5179,5.5179,5.5179,5.5179,5.5179,5.5179,5.5179,5.5179,5.5179,5.5179,5.5179,5.5179,5.5179,5.5179,5.5179,5.5179,5.5179,5.5179,5.5179,5.5179,5.5179,5.5179,5.5179,5.5179,5.5179,5.5179,5.5179,5.5179,5.5179,5.5179,5.5179,5.528,5.5431,5.5551,5.6145,5.7036,5.8332,5.8998,5.9469,5.9928,5.9993,5.9728,5.8999,5.8899,5.8601,5.7873,5.7806,5.7475,5.6746,5.7376,5.7939,5.827,5.8999,5.9065,5.8336,5.7972,5.7442,5.6713,5.668,5.668,5.668,5.668,5.668,5.668,5.668,5.668,2.5202,2.6422,2.7495,2.7705,2.7345,2.6752,2.6183,2.4687,2.3571,2.3969,2.3661,2.3661,2.4844,2.5704,2.6901,2.8996,3.1509,0.0,4.2751,4.6561,4.9494,5.1917,5.3384,0.0,5.4221,5.482,5.5179,5.5179,5.5179,5.5179,5.5179,5.5179,5.5179,5.5179,5.5179,5.5179,5.5179,5.5179,5.5179,5.5179,5.5179,5.5179,5.5179,5.5179,5.5179,5.5179,0.0,0.0,5.5179,5.5179,5.5179,5.5179,5.5179,5.5179,5.5179,5.5179,5.5179,5.5179,5.5179,5.5179,5.5179,5.5179,5.5179,5.5179,5.5179,5.5179,5.5179,5.5179,5.5179,5.5179,5.5179,5.5179,5.5179,5.5179,5.5229,5.5229,5.5229,5.528,5.528,5.528,5.5681,5.6506,5.7885,5.856,5.9161,6.0051,6.0191,5.9926,5.933,5.9231,5.8933,5.8204,5.8138,5.7839,5.7077,5.7707,5.8403,5.9032,5.9562,5.9496,5.8767,5.8005,5.7342,5.6713,5.668,5.668,5.668,5.668,5.668,5.668,5.668,5.668,2.4276,2.5734,2.7046,2.8158,2.8368,2.8278,2.8158,2.7495,2.6716,2.6237,2.6087,2.6213,2.7016,2.8154,2.9804,3.2317,0.0,4.1893,0.0,0.0,5.0511,5.2007,0.0,5.4221,5.4221,5.482,5.5179,5.5179,5.5179,5.5179,5.5179,5.5179,5.5179,5.5179,5.5179,5.5179,5.5179,5.5179,5.5179,5.5179,5.5179,5.5179,5.5179,5.5179,5.5179,5.5179,0.0,5.5179,5.5179,5.5179,5.5179,5.5179,5.5179,5.5179,5.5179,5.5179,5.5179,5.5179,5.5179,5.5179,5.5179,5.5179,5.5179,5.5179,5.5179,5.5179,5.5179,5.5179,5.5179,5.5179,5.5179,5.5179,5.5179,5.5179,5.5381,5.5531,5.5531,5.5731,5.583,5.5581,5.5979,5.67,5.7885,5.856,5.9355,6.0745,6.0953,6.0887,6.0788,6.0755,6.049,5.9761,5.9661,5.9363,5.8634,5.9231,5.9728,5.9827,5.9363,5.8734,5.8005,5.7243,5.6812,5.668,5.668,5.668,5.668,5.668,5.668,5.668,5.668,5.668,2.4156,2.5292,2.6482,2.8158,2.9385,3.0165,3.0165,2.9654,2.9056,2.8757,2.8158,2.8098,2.9475,3.0791,3.3245,3.8033,0.0,4.4885,4.7549,4.9254,5.0554,0.0,0.0,5.3114,5.3114,5.3713,5.4102,5.4102,5.4102,5.4102,5.4102,5.4102,5.4102,5.4102,5.4102,5.4102,5.4102,5.4461,5.485,5.5179,5.5179,5.5179,5.5179,5.5179,5.5179,5.5179,0.0,5.5179,5.5179,5.5179,5.5179,5.5179,5.5179,5.5179,5.5179,5.5179,5.5179,5.5179,5.5179,5.5179,5.5239,5.5598,5.5718,5.5777,5.6107,5.6226,5.6226,5.6226,5.5718,5.5179,5.5179,5.5179,5.5179,5.5179,5.5381,5.5731,5.6066,5.6164,5.6195,5.6164,5.636,5.6892,5.7932,5.856,5.9387,6.0877,6.1119,6.1119,6.1119,6.1119,6.0821,6.0092,5.9993,5.9694,5.8966,5.9198,5.9761,6.0556,5.9529,5.8734,5.8403,5.7276,5.668,5.668,5.668,5.6879,5.7276,5.7276,5.7475,5.7873,5.7873,5.7873,2.4007,2.4724,2.5704,2.8008,3.0046,3.16,3.1899,3.1839,3.1659,3.1659,3.0881,3.0672,3.2168,3.3784,0.0,4.2572,4.4796,4.6651,4.9134,5.0062,5.0614,5.1169,5.1798,5.2187,5.2187,5.2785,5.3174,5.3174,5.3174,5.3174,5.3174,5.3174,5.3174,5.3174,5.3174,5.3174,5.3174,5.3862,5.4461,5.497,5.5119,5.5179,5.5179,5.5179,5.5179,5.5179,5.5179,5.5179,5.5179,5.5179,5.5179,5.5179,5.5179,5.5179,5.5179,5.5179,5.5179,5.5179,5.5179,5.5299,5.5508,5.6017,5.6308,5.6466,5.6944,5.7094,5.7094,5.7094,5.6406,5.5628,5.5628,5.5538,5.5418,5.5418,5.5551,5.5849,5.6572,5.6621,5.6651,5.6735,5.691,5.7291,5.807,5.8696,5.9564,6.0877,6.1119,6.1119,6.1119,6.1119,6.0887,6.0324,6.0258,6.0026,5.9463,5.9429,5.9893,6.1053,5.9562,5.8634,5.8634,5.7376,5.668,5.668,5.668,5.7044,5.7806,5.7806,5.8171,5.8899,5.8899,5.8899,2.334,2.3699,2.4537,2.7799,3.0046,3.1839,3.3066,3.4292,3.516,3.516,3.507,3.504,3.519,3.7285,4.0157,4.3658,4.5873,4.7878,4.9837,0.0,5.1169,5.1199,5.1798,5.2187,5.2187,5.2785,5.3174,5.3174,5.3174,5.3174,5.3174,5.3174,5.3174,5.3174,5.3174,5.3174,5.3174,5.3862,5.4221,5.4281,5.491,5.5179,5.5179,5.5179,5.5179,5.5179,5.5179,5.5179,5.5179,5.5179,5.5179,5.5179,5.5179,5.5179,5.5179,5.5179,5.5179,5.5179,5.5179,5.5598,5.6158,5.6166,5.6555,5.7034,5.7094,5.7094,5.7094,5.7094,5.7034,5.6944,5.6944,5.6526,5.6158,5.6158,5.6033,5.6145,5.6862,5.7196,5.7417,5.7338,5.7762,5.818,5.8437,5.9133,5.999,6.0961,6.1119,6.1119,6.1119,6.1119,6.1086,6.1053,6.102,6.102,6.0953,6.0953,6.0986,6.1086,5.9065,5.7873,5.7873,5.7111,5.668,5.668,5.668,5.7044,5.7806,5.7806,5.8171,5.8899,5.8899,5.8899,2.3977,2.3939,2.4298,2.7255,2.9445,3.1569,3.4143,3.6716,3.8542,3.8542,3.92,3.9565,3.8691,0.0,4.2192,4.5095,4.689,4.8596,5.0571,5.105,5.1229,5.1229,5.1439,5.1588,5.1588,5.1828,5.1977,5.1977,5.1977,5.1977,5.1977,5.1977,5.1977,5.1977,5.1977,5.1977,5.1977,5.2636,5.2965,5.2965,5.4491,5.5179,5.5179,5.5179,5.5179,5.5179,5.5179,5.5179,5.5179,5.5179,5.5179,5.5179,5.5179,5.5179,5.5179,5.5179,5.5179,5.5179,5.5179,5.5628,5.6278,5.6615,5.7184,5.7812,5.8231,5.8351,5.8351,5.8351,5.8351,5.8141,5.7304,5.6915,5.6645,5.6308,5.6365,5.6751,5.7511,5.7808,5.8119,5.8651,5.8818,5.894,5.9145,5.9575,6.013,6.0961,6.1119,6.1119,6.1119,6.1119,6.1119,6.1119,6.1119,6.1119,6.1119,6.1119,6.1119,6.1119,5.9893,5.9164,5.9164,5.8469,5.8071,5.8071,5.8071,5.8436,5.9164,5.9164,5.9562,6.0258,6.0258,6.0258,2.4784,2.4246,2.4298,2.7195,2.9205,3.148,3.525,3.8482,4.0876,4.1504,4.2342,4.262,4.1265,4.1923,0.0,0.0,4.7429,4.8985,5.093,5.1229,5.1229,5.1229,5.1229,5.1229,5.1229,5.1229,5.1229,5.1229,5.1229,5.1229,5.1229,5.1229,5.1229,5.1229,5.1229,5.1229,5.1229,5.1858,5.2187,5.2217,5.4012,5.488,5.488,5.5089,5.5179,5.5179,5.5179,5.5179,5.5179,5.5179,5.5179,5.5179,5.5179,5.5179,5.5179,5.5179,5.5179,5.5179,5.5179,5.5748,5.6526,5.6944,5.7693,5.853,5.8979,5.9099,5.9099,5.9099,5.9099,5.889,5.7962,5.7573,5.7304,5.6885,5.6847,5.7167,5.8232,5.8352,5.8624,5.9531,5.9696,5.9652,5.9707,6.0001,6.042,6.1002,6.1119,6.1119,6.1119,6.1119,6.1119,6.1119,6.1119,6.1119,6.1119,6.1119,6.1119,6.1119,6.0622,6.0258,6.0026,5.9297,5.8899,5.8899,5.8899,5.9264,5.9993,5.9993,6.039,6.1119,6.1119,6.1119,2.5615,2.4657,2.4448,2.7799,2.9594,3.1779,3.6387,3.9499,4.1953,4.3958,4.4347,4.3958,4.268,4.294,0.0,4.598,4.7429,4.8985,5.093,5.1229,5.1229,5.1229,5.1229,5.1229,5.1229,5.1229,5.1229,5.1229,5.1229,5.1229,5.1229,5.1229,5.1229,5.1229,5.1229,5.1229,5.1229,5.1858,5.2187,5.2217,5.3533,5.4192,5.4221,5.488,5.5179,5.5179,5.5179,5.5179,5.5179,5.5179,5.5179,5.5179,5.5179,5.5179,5.5179,5.5179,5.5179,5.5179,5.5179,5.6017,5.7094,5.7094,5.7992,5.9099,5.9099,5.9099,5.9099,5.9099,5.9099,5.9099,5.9099,5.862,5.8141,5.8112,5.751,5.7289,5.8813,5.8824,5.8882,5.9827,6.0249,6.0335,6.0044,6.0388,6.0802,6.1077,6.1119,6.1119,6.1119,6.1119,6.1119,6.1119,6.1119,6.1119,6.1119,6.1119,6.1119,6.1119,6.1119,6.0788,6.0059,5.9297,5.8933,5.8933,5.8933,5.9264,6.0026,6.0026,6.039,6.1119,6.1119,6.1119,2.6776,2.6716,2.7081,2.9926,3.2318,3.4981,3.8661,4.1564,4.4407,4.7744,4.7369,4.6172,4.5304,4.5304,0.0,4.683,4.8117,4.9494,5.102,5.1229,5.1229,5.1229,5.1229,5.1229,5.1229,5.1229,5.1229,5.1229,5.1229,5.1229,5.1229,5.1229,5.1229,5.1229,5.1229,5.1229,5.1229,5.1409,5.1498,5.1528,5.2396,5.3294,5.4221,5.488,5.5179,5.5179,5.5179,5.5179,5.5179,5.5179,5.5179,5.5179,5.5179,5.5179,5.5179,5.5179,5.5179,5.5179,5.5179,5.5748,5.6526,5.6944,5.7693,5.8501,5.8979,5.9099,5.9099,5.9099,5.9099,5.9099,5.9099,5.9057,5.8894,5.8284,5.8233,5.8481,5.8985,5.9312,5.9788,6.0604,6.0835,6.0877,6.0793,6.0877,6.1002,6.1119,6.1119,6.1119,6.1119,6.1119,6.1119,6.1119,6.1119,6.1119,6.1119,6.1119,6.1119,6.1119,6.1119,6.102,6.0788,6.0556,6.0456,6.0456,6.0456,6.0556,6.0788,6.0788,6.0887,6.1119,6.1119,6.1119,2.756,2.8393,2.9505,3.2706,3.528,3.8182,4.2551,4.4766,4.6711,4.9598,4.9105,4.7878,4.7219,4.71,0.0,4.7967,4.8955,5.0032,5.1079,5.1229,5.1229,5.1229,5.1229,5.1229,5.1229,5.1229,5.1229,5.1229,5.1229,5.1229,5.1229,5.1229,5.1229,5.1229,5.1229,5.1229,5.1229,5.1229,5.1229,5.1229,5.1887,5.2636,5.3443,5.4371,5.479,5.482,5.5089,5.5179,5.5179,5.5179,5.5179,5.5179,5.5179,5.5179,5.5179,5.5179,5.5179,5.5179,5.5179,5.5628,5.6278,5.6615,5.7184,5.7782,5.8171,5.8501,5.871,5.871,5.889,5.9099,5.9099,5.9315,5.9386,5.8751,5.9031,5.9532,6.0011,6.0401,6.0935,6.1801,6.198,6.198,6.198,6.198,6.198,6.198,6.1715,6.1417,6.1152,6.1119,6.1119,6.1119,6.1119,6.1119,6.1119,6.1119,6.1119,6.1119,6.1119,6.1119,6.1119,6.1119,6.1119,6.1119,6.1119,6.1119,6.1119,6.1169,6.1169,6.1119,6.1169,6.1169,2.8098,2.9714,3.1719,3.5669,3.8332,4.1414,4.701,4.8297,4.8686,5.0016,4.9853,4.9299,4.8656,4.8566,4.8745,4.9389,4.9942,5.0495,5.1139,5.1229,5.1229,5.1229,5.1229,5.1229,5.1229,5.1229,5.1229,5.1229,5.1229,5.1229,5.1229,5.1229,5.1229,5.1229,5.1229,5.1229,5.1229,5.1229,5.1229,5.1229,5.1828,5.2127,5.2157,5.3563,5.4251,5.4341,5.494,5.5179,5.5179,5.5179,5.5179,5.5179,5.5179,5.5179,5.5179,5.5179,5.5179,5.5179,5.5179,5.5598,5.6107,5.6188,5.6555,5.7034,5.7064,5.7573,5.8112,5.8112,5.859,5.9099,5.9099,5.9315,5.9583,5.9636,5.9992,6.0596,6.1518,6.1813,6.2216,6.3099,6.3315,6.3315,6.3315,6.3315,6.3315,6.3315,6.2685,6.1947,6.1285,6.1152,6.1119,6.1119,6.1119,6.1119,6.1119,6.1119,6.1119,6.1119,6.1119,6.1119,6.1119,6.1119,6.1119,6.1119,6.1119,6.1119,6.1119,6.1293,6.1293,6.1119,6.1293,6.1293,2.8547,3.1061,3.3664,3.7135,4.1025,4.4766,4.7638,4.8297,4.8805,5.0631,5.09,5.075,5.0601,5.0601,5.0631,5.078,5.09,5.105,5.1199,5.1229,5.1229,5.1229,5.1229,5.1229,5.1229,5.1229,5.1229,5.1229,5.1229,5.1229,5.1229,5.1229,5.1229,5.1229,5.1229,5.1229,5.1229,5.1229,5.1229,5.1229,5.1379,5.1439,5.1498,5.3354,5.4491,5.497,5.5119,5.5179,5.5179,5.5179,5.5179,5.5179,5.5179,5.5179,5.5179,5.5179,5.5179,5.5179,5.5179,5.5269,5.5478,5.6068,5.6308,5.6466,5.6944,5.7573,5.8112,5.8112,5.859,5.9099,5.9099,5.9506,6.0039,6.0628,6.102,6.1477,6.2362,6.2696,6.297,6.3242,6.3315,6.3315,6.3315,6.3315,6.3315,6.3315,6.2685,6.2155,6.1989,6.145,6.1119,6.1119,6.1119,6.1119,6.1119,6.1119,6.1119,6.1119,6.1119,6.1119,6.1119,6.1119,6.1119,6.1119,6.1119,6.1119,6.1119,6.1127,6.1127,6.1119,6.1127,6.1127,2.8517,3.1748,3.522,4.0397,4.4227,4.701,4.8057,4.8536,4.9045,5.0062,5.0541,5.0704,5.0704,5.0973,5.1229,5.1229,5.1229,5.1229,5.1229,5.1229,5.1229,5.1229,5.1229,5.1229,5.1229,5.1229,5.1229,5.1229,5.1229,5.1229,5.1229,5.1229,5.1229,5.1229,5.1229,5.1229,5.1229,5.1229,5.1229,5.1229,5.1229,5.1379,5.1708,5.2755,5.3773,5.473,5.473,5.491,5.5179,5.5179,5.5179,5.5179,5.5179,5.5179,5.5179,5.5179,5.5179,5.5179,5.5179,5.5179,5.5239,5.5598,5.5718,5.5777,5.6077,5.6855,5.7633,5.7633,5.8351,5.9099,5.9099,5.956,6.0302,6.1418,6.1922,6.2404,6.3315,6.3838,6.4183,6.4277,6.4299,6.4299,6.4299,6.4299,6.42,6.3835,6.3514,6.315,6.2785,6.2378,6.2146,6.2146,6.2146,6.2146,6.2146,6.2146,6.2146,6.2146,6.2146,6.2146,6.2146,6.1815,6.145,6.1119,6.1169,6.121,6.1119,6.1293,6.1293,6.1119,6.121,6.1169,2.8334,3.2587,3.7259,4.3688,4.6711,4.8117,4.8117,4.8536,4.897,4.897,4.9553,5.0076,5.0166,5.0644,5.1079,5.1199,5.1229,5.1229,5.1229,5.1229,5.1229,5.1229,5.1229,5.1229,5.1229,5.1229,5.1229,5.1229,5.1229,5.1229,5.1229,5.1229,5.1229,5.1229,5.1229,5.1229,5.1229,5.1229,5.1229,5.1229,5.1229,5.1498,5.2037,5.2037,5.2815,5.4221,5.4221,5.4581,5.5179,5.5179,5.5179,5.5179,5.5179,5.5179,5.5179,5.5179,5.5179,5.5179,5.5179,5.5179,5.5179,5.5179,5.5179,5.5179,5.5179,5.6077,5.7094,5.7094,5.8082,5.9099,5.9099,5.956,6.0377,6.194,6.2565,6.3164,6.4221,6.4839,6.5189,6.5381,6.5425,6.5425,6.5425,6.5425,6.5227,6.4664,6.4465,6.4167,6.358,6.3415,6.3315,6.3315,6.3315,6.3315,6.3315,6.3315,6.3315,6.3315,6.3315,6.3315,6.3315,6.2719,6.2164,6.1525,6.1434,6.1334,6.121,6.1465,6.1499,6.1127,6.1293,6.1293,2.8334,3.4891,4.1235,4.4496,4.6381,4.7429,4.7429,4.7489,4.7578,0.0,4.8536,4.9583,5.0076,5.0255,5.0495,5.1139,5.1229,5.1229,5.1229,5.1229,5.1229,5.1229,5.1229,5.1229,5.1229,5.1229,5.1229,5.1229,5.1229,5.1229,5.1229,5.1229,5.1229,5.1229,5.1229,5.1229,5.1229,5.1229,5.1229,5.1229,5.1229,5.1259,5.1349,5.1349,5.2396,5.4221,5.4221,5.4581,5.5179,5.5179,5.5179,5.5179,5.5179,5.5179,5.5179,5.5179,5.5179,5.5179,5.5179,5.5179,5.5179,5.5179,5.5179,5.5179,5.5179,5.6077,5.7094,5.7094,5.8082,5.9099,5.9099,5.956,6.0377,6.194,6.2712,6.3468,6.4943,6.5336,6.5381,6.5381,6.5425,6.5425,6.5425,6.5425,6.5392,6.5293,6.4763,6.4332,6.4277,6.3713,6.3315,6.3315,6.3315,6.3315,6.3315,6.3315,6.3315,6.3315,6.3315,6.3315,6.3315,6.3387,6.3373,6.3273,6.2049,6.1465,6.1628,6.1506,6.1424,6.1342,6.121,6.121,2.9475,3.5669,4.0995,4.3988,4.5753,4.6741,4.6741,4.704,4.7309,4.7309,4.7758,4.8386,4.9015,4.9434,4.9793,5.0092,5.0122,5.0122,5.0122,5.0122,5.0272,5.0584,5.0614,5.0764,5.1169,5.1229,5.1229,5.1229,5.1229,5.1229,5.1229,5.1229,5.1229,5.1229,5.1229,5.1229,5.1229,5.1229,5.1229,5.1229,5.1229,5.1229,5.1229,5.1229,5.1917,5.3084,5.3084,5.3683,5.464,5.464,5.485,5.5179,5.5179,5.5179,5.5179,5.5179,5.5179,5.5179,5.5179,5.5179,5.5179,5.5179,5.5179,5.5179,5.5179,5.6077,5.7094,5.7094,5.8082,5.9099,5.9099,5.956,6.0377,6.194,6.268,6.3531,6.5078,6.5425,6.5425,6.5425,6.5425,6.5425,6.5425,6.5425,6.5425,6.5425,6.516,6.4962,6.4962,6.4664,6.4465,6.4465,6.4465,6.4465,6.4465,6.4465,6.4465,6.4465,6.4465,6.4465,6.4465,6.4285,6.4257,6.4385,6.3074,6.2386,6.2312,6.1951,6.1709,6.1547,6.1499,6.1465,3.0013,3.516,3.9379,4.2342,4.4197,4.5394,4.5723,0.0,4.6651,0.0,4.707,4.7219,4.7698,4.8446,4.912,4.9269,4.9299,4.9299,4.9299,4.9299,4.9494,5.0106,5.0196,5.0435,5.1139,5.1229,5.1229,5.1229,5.1229,5.1229,5.1229,5.1229,5.1229,5.1229,5.1229,5.1229,5.1229,5.1229,5.1229,5.1229,5.1229,5.1229,5.1229,5.1229,5.1498,5.1947,5.2127,5.2965,5.4221,5.4221,5.461,5.5179,5.5179,5.5179,5.5179,5.5179,5.5179,5.5179,5.5179,5.5179,5.5179,5.5179,5.5179,5.5209,5.5388,5.6226,5.7124,5.7304,5.8201,5.9099,5.9099,5.956,6.0324,6.174,6.2565,6.3468,6.5033,6.5425,6.5425,6.5425,6.5425,6.5425,6.5425,6.5425,6.5425,6.5425,6.5425,6.5425,6.5425,6.5425,6.5425,6.5425,6.5425,6.5425,6.5425,6.5425,6.5425,6.5425,6.5425,6.5425,6.5425,6.5203,6.512,6.5292,6.4345,6.3612,6.3247,6.263,6.2219,6.2092,6.181,6.1709,2.9142,3.3125,3.7135,3.917,4.1115,4.292,4.4137,0.0,4.4825,4.607,4.6339,4.6339,4.6369,4.7489,4.8536,4.9209,4.9299,4.9299,4.9299,4.9299,4.9494,5.0106,5.0196,5.0435,5.1139,5.1229,5.1229,5.1229,5.1229,5.1229,5.1229,5.1229,5.1229,5.1229,5.1229,5.1229,5.1229,5.1229,5.1229,5.1229,5.1229,5.1229,5.1229,5.1229,5.1229,5.1319,5.1917,5.2965,5.4221,5.4221,5.461,5.5179,5.5179,5.5179,5.5179,5.5179,5.5179,5.5179,5.5179,5.5179,5.5179,5.5179,5.5179,5.5299,5.5978,5.6585,5.7244,5.7872,5.856,5.9099,5.9099,5.956,6.025,6.1297,6.2202,6.326,6.5033,6.5425,6.5425,6.5425,6.5425,6.5425,6.5425,6.5425,6.5425,6.5425,6.5425,6.5425,6.5425,6.5425,6.5425,6.5425,6.5425,6.5425,6.5425,6.5425,6.5425,6.5425,6.5425,6.5425,6.5425,6.5801,6.6029,6.6029,6.5716,6.5222,6.4505,6.36,6.3107,6.3107,6.2125,6.183,2.6363,2.9505,3.2527,3.4502,3.7105,3.9529,4.0876,4.2423,4.4037,4.5394,4.5663,4.5813,4.619,4.704,4.7728,4.7967,4.7997,4.7997,4.7997,4.7997,4.8267,4.8895,4.8985,4.9404,5.0435,5.0554,5.0734,5.1199,5.1229,5.1229,5.1229,5.1229,5.1229,5.1229,5.1229,5.1229,5.1229,5.1229,5.1229,5.1229,5.1229,5.1229,5.1229,5.1229,5.1229,5.1229,5.1468,5.2336,5.3563,5.3563,5.4192,5.5179,5.5179,5.5179,5.5179,5.5179,5.5179,5.5179,5.5179,5.5179,5.5179,5.5179,5.5478,5.5867,5.6158,5.6915,5.7812,5.8052,5.859,5.9099,5.9099,5.9369,6.0008,6.1246,6.2516,6.3705,6.4499,6.5078,6.5425,6.5425,6.5425,6.5425,6.5425,6.5425,6.5425,6.5425,6.5425,6.5425,6.5425,6.5425,6.5425,6.5425,6.5425,6.5425,6.5425,6.5425,6.5425,6.5425,6.5425,6.5425,6.5425,6.5736,6.5965,6.6095,6.6161,6.5901,6.529,6.4464,6.4086,6.4086,6.3735,6.36,2.4358,2.6722,2.8996,3.0761,3.3304,3.5875,3.7704,3.9762,4.1884,4.3898,4.4496,4.4855,4.5514,4.6381,4.704,4.7279,4.7309,4.7309,4.7309,4.7309,4.7549,4.8207,4.8297,4.8805,5.0076,5.0196,5.0465,5.1169,5.1229,0.0,5.1229,5.1229,5.1229,5.1229,5.1229,5.1229,5.1229,5.1229,5.1229,5.1229,5.1229,5.1229,5.1229,5.1229,5.1229,5.1229,5.1229,5.1977,5.3174,5.3174,5.3982,5.5179,5.5179,5.5179,5.5179,5.5179,5.5179,5.5179,5.5179,5.5179,5.5179,5.5179,5.5628,5.6248,5.6406,5.7244,5.8171,5.8381,5.877,5.9099,5.9099,5.9369,5.9925,6.1144,6.2418,6.3516,6.3941,6.4761,6.5425,6.5425,6.5425,6.5425,6.5425,6.5425,6.5425,6.5425,6.5425,6.5425,6.5425,6.5425,6.5425,6.5425,6.5425,6.5425,6.5425,6.5425,6.5425,6.5425,6.5425,6.5425,6.5425,6.5647,6.5867,6.5965,6.6335,6.6314,6.5943,6.5283,6.4952,6.4952,6.4715,6.4613,0.0,0.0,0.0,0.0,0.0,0.0,3.4681,0.0,3.8272,4.1602,4.2791,4.3439,4.4197,4.5364,4.6501,4.716,4.7309,4.7309,4.7309,4.7309,4.7549,4.8177,4.8267,4.8775,5.0016,5.0136,5.0405,5.1109,5.1169,5.1169,5.1199,5.1199,5.1229,5.1229,5.1229,5.1229,5.1229,5.1229,5.1229,5.1229,5.1229,5.1229,5.1229,5.1229,5.1229,5.1229,5.1229,5.1947,5.3144,5.3144,5.3952,5.5149,5.5149,5.5179,5.5179,5.5179,5.5179,5.5179,5.5179,5.5179,5.5179,5.5179,5.5658,5.6368,5.6915,5.7573,5.8291,5.8919,5.9099,5.9099,5.9099,5.9499,6.0106,6.0969,6.1784,6.258,6.3276,6.4485,6.5381,6.5381,6.5425,6.5425,6.5425,6.5425,6.5425,6.5425,6.5425,6.5425,6.5425,6.5425,6.5425,6.5425,6.5425,6.5425,6.5425,6.5425,6.5425,6.5425,6.5425,6.5425,6.5425,6.5647,6.578,6.578,6.6249,6.6507,6.6507,6.6019,6.573,6.5696,6.4986,6.4647,2.1276,0.0,0.0,0.0,0.0,0.0,0.0,0.0,3.6088,3.8901,4.0786,4.2402,4.4018,4.4616,4.5244,4.6411,4.698,4.7309,4.7309,4.7309,4.7369,4.7549,4.7578,4.7908,4.8745,4.8835,4.9105,0.0,4.9823,5.0002,5.0435,5.096,5.1229,5.1229,5.1229,5.1229,5.1229,5.1229,5.1229,5.1229,5.1229,5.1229,5.1229,5.1229,5.1229,5.1229,5.1229,5.1708,5.2486,5.2486,5.3264,5.4491,5.4491,5.476,5.5179,5.5179,5.5179,5.5179,5.5179,5.5179,5.5179,5.5179,5.5927,5.6885,5.7034,5.7902,5.886,5.9069,5.9099,5.9099,5.9099,5.9207,5.9392,5.9872,6.0576,6.1317,6.1922,6.3244,6.4485,6.5066,6.5291,6.5425,6.5425,6.5425,6.5425,6.5425,6.5425,6.5425,6.5425,6.5425,6.5425,6.5425,6.5425,6.5425,6.5425,6.5425,6.5425,6.5425,6.5425,6.5425,6.5425,6.547,6.5692,6.6009,6.6139,6.6388,6.6686,6.6567,6.6508,6.6508,6.6305,6.6203,2.1665,2.2313,0.0,0.0,0.0,0.0,2.6986,2.9921,3.3275,0.0,3.8123,3.9948,4.1923,4.2491,4.294,4.3718,4.4646,4.5723,4.71,4.7309,4.7309,4.7309,4.7309,4.7549,4.8207,4.8297,4.8566,4.9269,4.9299,4.9553,5.0166,5.0823,5.1229,5.1229,5.1229,5.1229,5.1229,5.1229,5.1229,5.1229,5.1229,5.1229,5.1229,5.1229,5.1229,5.1229,5.1229,5.1439,5.1798,5.1798,5.2755,5.4221,5.4221,5.461,5.5179,5.5179,5.5179,5.5179,5.5179,5.5179,5.5179,5.5179,5.6047,5.7094,5.7094,5.8052,5.9099,5.9099,5.9099,5.9099,5.9261,5.9261,5.9369,5.9796,6.0346,6.0887,6.145,6.2548,6.369,6.461,6.5111,6.5425,6.5425,6.5425,6.5425,6.5425,6.5425,6.5425,6.5425,6.5425,6.5425,6.5425,6.5425,6.5425,6.5425,6.5425,6.5425,6.5425,6.5425,6.5425,6.5425,6.5514,6.5692,6.5965,6.6172,6.643,6.6812,6.6812,6.6812,6.6812,6.6812,6.6812,2.34,2.337,0.0,0.0,2.4545,0.0,2.5824,2.7735,3.0131,0.0,3.4923,3.6507,3.8422,3.923,3.9649,3.9738,4.0943,4.3039,4.6381,4.692,4.701,4.707,4.716,4.7429,4.8027,4.8147,4.8416,4.906,4.9179,4.9404,4.9956,5.072,5.1109,5.1109,5.1169,5.1229,5.1229,5.1229,5.1229,5.1229,5.1229,5.1229,5.1229,5.1229,5.1229,5.1229,5.1229,5.1229,5.1229,5.1229,5.2366,5.4102,5.4102,5.4551,5.5179,5.5179,5.5179,5.5179,5.5179,5.5179,5.5179,5.5179,5.6047,5.7094,5.7094,5.8052,5.9099,5.9099,5.9099,5.9153,5.9422,5.9583,5.9796,6.0346,6.0742,6.1072,6.1531,6.2234,6.3019,6.3894,6.4761,6.5336,6.5381,6.5381,6.5425,6.5425,6.5425,6.5425,6.5425,6.5425,6.5425,6.5425,6.5425,6.5425,6.5425,6.5425,6.5425,6.5425,6.5425,6.5425,6.547,6.5647,6.5824,6.5867,6.6335,6.6635,6.6812,6.6812,6.6812,6.6812,6.6812,6.6812,2.4335,2.4694,2.4837,2.3999,0.0,0.0,2.2951,2.5009,2.7525,0.0,3.0821,3.2916,3.4382,3.4771,3.5011,3.5549,3.7165,3.9738,4.3629,4.4586,4.5095,4.5633,4.6172,4.6561,4.6681,4.7189,4.7549,4.7668,4.8177,4.8536,4.8656,4.9793,5.0375,5.0375,5.093,5.1229,5.1229,5.1229,5.1229,5.1229,5.1229,5.1229,5.1229,5.1229,5.1229,5.1229,5.1229,5.1229,5.1229,5.1229,5.2067,5.3384,5.3384,5.4132,5.5179,5.5179,5.5179,5.5179,5.5179,5.5179,5.5179,5.5179,5.6047,5.7094,5.7094,5.8052,5.9099,5.9099,5.9099,5.9153,5.9422,5.9948,6.0546,6.0856,6.152,6.199,6.1872,6.2139,6.2467,6.2695,6.3879,6.493,6.5144,6.5291,6.5425,6.5425,6.5425,6.5425,6.5425,6.5425,6.5425,6.5425,6.5425,6.5425,6.5425,6.5425,6.5425,6.5425,6.5425,6.5514,6.5692,6.578,6.5988,6.6378,6.6601,6.677,6.6812,6.6812,6.6812,6.6812,6.6812,6.6812,2.6512,2.6363,2.5944,2.5255,0.0,0.0,0.0,0.0,2.5884,2.6871,2.8397,2.9953,3.13,3.1539,3.1659,3.2018,3.3694,3.5908,3.8571,4.1773,4.4197,4.5185,4.5603,4.5933,4.6249,4.6621,4.695,4.7279,4.7908,4.8297,4.8297,4.9523,5.0196,5.0196,5.0823,5.1229,5.1229,5.1229,5.1229,5.1229,5.1229,5.1229,5.1229,5.1229,5.1229,5.1229,5.1229,5.1229,5.1229,5.1229,5.2007,5.3174,5.3174,5.4012,5.5179,5.5179,5.5179,5.5179,5.5179,5.5179,5.5179,5.5179,5.6047,5.7094,5.7094,5.8052,5.9099,5.9099,5.9099,5.9207,5.9667,6.0316,6.101,6.145,6.2121,6.2632,6.24,6.2351,6.245,6.2727,6.35,6.4207,6.4656,6.5111,6.5425,6.5425,6.5425,6.5425,6.5425,6.5425,6.5425,6.5425,6.5425,6.5425,6.5425,6.5514,6.5603,6.5603,6.5658,6.579,6.5955,6.6086,6.6335,6.6643,6.6728,6.6812,6.6812,6.6812,6.6812,6.6812,6.6812,6.6812,0.0,0.0,0.0,0.0,0.0,2.4545,0.0,0.0,0.0,0.0,0.0,0.0,0.0,0.0,0.0,0.0,0.0,0.0,0.0,3.8123,0.0,4.3958,4.4377,4.4796,4.5484,4.5783,4.6112,4.6501,4.716,4.7578,4.7698,4.8955,4.9687,4.9807,5.0584,5.0973,5.0973,5.1169,5.1229,5.1229,5.1229,5.1229,5.1229,5.1229,5.1229,5.1229,5.1229,5.1229,5.1229,5.1229,5.2007,5.3174,5.3174,5.4012,5.5179,5.5179,5.5179,5.5179,5.5179,5.5179,5.5179,5.5179,5.6047,5.7154,5.7393,5.8231,5.9099,5.9099,5.9099,5.9207,5.9827,6.0659,6.1469,6.2085,6.289,6.3468,6.3212,6.2922,6.2825,6.3164,6.3452,6.3753,6.4268,6.4943,6.5425,6.5425,6.5425,6.5425,6.5425,6.5425,6.5425,6.5425,6.5425,6.5425,6.547,6.5692,6.5824,6.5867,6.6009,6.6139,6.6182,6.643,6.6635,6.6812,6.6812,6.6812,6.6812,6.6812,6.6812,6.6812,6.6812,6.6812,0.0,0.0,0.0,0.0,2.6482,0.0,0.0,0.0,0.0,2.3212,0.0,0.0,0.0,0.0,0.0,0.0,0.0,0.0,2.9981,3.2736,3.5968,3.9649,4.1115,4.2141,4.28,4.3868,4.4317,4.3768,4.4407,4.5005,4.5603,4.689,4.7908,4.8506,4.9703,5.0315,5.0315,5.0883,5.1229,5.1229,5.1229,5.1229,5.1229,5.1229,5.1229,5.1229,5.1229,5.1229,5.1229,5.1229,5.2007,5.3174,5.3174,5.4012,5.5179,5.5179,5.5179,5.5179,5.5179,5.5179,5.5179,5.5179,5.6047,5.7304,5.8501,5.8979,5.9099,5.9099,5.9099,5.9207,5.9827,6.1093,6.2288,6.2858,6.4081,6.5033,6.461,6.4114,6.3658,6.3468,6.3658,6.3988,6.4531,6.5066,6.5425,6.5425,6.5425,6.5425,6.5425,6.5425,6.5425,6.5425,6.5425,6.5514,6.5736,6.578,6.5867,6.6052,6.6095,6.6215,6.6464,6.6677,6.677,6.6812,6.6812,6.6812,6.6812,6.6812,6.6812,6.6812,6.6812,6.6812,0.0,0.0,0.0,0.0,0.0,0.0,2.367,0.0,2.4096,0.0,0.0,0.0,0.0,0.0,0.0,0.0,2.5465,0.0,0.0,0.0,3.2108,0.0,0.0,0.0,4.1085,4.2402,4.291,4.2252,4.2821,4.3449,4.4137,4.6172,4.7429,4.7698,4.9299,5.0196,5.0196,5.0853,5.1229,5.1229,5.1229,5.1229,5.1229,5.1229,5.1229,5.1229,5.1229,5.1229,5.1229,5.1229,5.2007,5.3174,5.3174,5.4012,5.5179,5.5179,5.5179,5.5179,5.5179,5.5179,5.5299,5.6047,5.6944,5.7872,5.8961,5.9315,5.9369,5.956,5.9476,5.9476,6.0092,6.1041,6.1972,6.2548,6.3611,6.4485,6.4333,6.3973,6.3705,6.3926,6.4067,6.43,6.4839,6.5201,6.5425,6.5425,6.5425,6.5425,6.5425,6.5425,6.5425,6.5425,6.5559,6.5692,6.578,6.6076,6.6249,6.6302,6.643,6.6558,6.6677,6.6728,6.6812,6.6812,6.6812,6.6812,6.6812,6.6812,6.6812,6.6812,6.6812,6.6812,3.5582,0.0,0.0,0.0,0.0,0.0,0.0,0.0,0.0,0.0,0.0,0.0,0.0,0.0,0.0,0.0,0.0,2.5824,0.0,0.0,0.0,0.0,0.0,0.0,0.0,4.0014,4.0583,4.0068,4.0673,4.1534,4.2731,4.5155,4.6651,4.701,4.8955,4.9972,4.9972,5.081,5.1229,5.1229,5.1229,5.1229,5.1229,5.1229,5.1229,5.1229,5.1229,5.1319,5.1498,5.1498,5.2276,5.3473,5.3473,5.4162,5.5179,5.5179,5.5179,5.5179,5.5179,5.5299,5.5658,5.6944,5.7723,5.8314,5.9212,5.966,5.9872,6.0092,5.9955,5.9925,6.0324,6.0835,6.1418,6.1903,6.2761,6.3483,6.3643,6.3643,6.3753,6.4207,6.4485,6.4715,6.5144,6.5291,6.5425,6.5425,6.5425,6.5425,6.5425,6.5425,6.5425,6.5514,6.5692,6.5824,6.5988,6.6292,6.6507,6.6592,6.6728,6.6812,6.6812,6.6812,6.6812,6.6812,6.6812,6.6812,6.6812,6.6812,6.6812,6.6812,6.6812,6.6812,0.0,0.0,0.0,3.175,0.0,0.0,0.0,0.0,2.4784,0.0,0.0,0.0,0.0,0.0,0.0,0.0,0.0,0.0,0.0,0.0,0.0,0.0,0.0,0.0,0.0,3.5911,3.6656,0.0,3.7225,3.8691,4.1294,4.3329,4.5005,4.6279,4.8267,4.9329,4.9329,5.0571,5.1229,5.1229,5.1229,5.1229,5.1229,5.1229,5.1229,5.1229,5.1229,5.1588,5.2157,5.2157,5.2965,5.4192,5.4192,5.4581,5.5179,5.5179,5.5179,5.5179,5.5179,5.5598,5.6346,5.7663,5.8112,5.8314,5.9212,6.0053,6.0598,6.0451,6.0524,6.0598,6.0481,6.0524,6.0805,6.1062,6.174,6.2436,6.268,6.334,6.3941,6.4221,6.4897,6.5381,6.5381,6.5425,6.5425,6.5425,6.5425,6.5425,6.5425,6.5425,6.5514,6.5736,6.578,6.5955,6.6421,6.6507,6.6592,6.677,6.6812,6.6812,6.6812,6.6812,6.6812,6.6812,6.6812,6.6812,6.6812,6.6812,6.6812,6.6812,6.6812,6.6812,0.0,0.0,3.5669,3.3933,0.0,0.0,0.0,0.0,0.0,0.0,0.0,0.0,0.0,0.0,0.0,0.0,0.0,0.0,0.0,0.0,0.0,0.0,0.0,0.0,0.0,0.0,0.0,3.3844,3.4861,0.0,3.8631,4.1863,4.4037,4.4975,4.7788,4.9299,4.9299,5.0571,5.1229,5.1229,5.1229,5.1229,5.1229,5.1229,5.1229,5.1229,5.1229,5.1588,5.2187,5.2187,5.2995,5.4221,5.4221,5.461,5.5179,5.5179,5.5179,5.5239,5.5688,5.6256,5.6944,5.7842,5.8411,5.8883,5.9576,6.0167,6.0555,6.0845,6.0845,6.0763,6.0897,6.0845,6.0815,6.1072,6.1531,6.2003,6.2597,6.3228,6.38,6.4439,6.4988,6.5425,6.5425,6.5425,6.5425,6.5425,6.5425,6.5425,6.5425,6.5559,6.5692,6.578,6.6076,6.6335,6.6464,6.6635,6.6728,6.6812,6.6812,6.6812,6.6812,6.6812,6.6812,6.6812,6.6812,6.6812,6.6812,6.6812,6.6812,6.6812,6.6812,6.6812,4.1085,3.9828,0.0,3.6596,3.4562,0.0,2.9894,0.0,0.0,0.0,0.0,0.0,0.0,0.0,0.0,0.0,0.0,0.0,0.0,2.3857,0.0,0.0,0.0,0.0,0.0,0.0,3.13,3.1779,3.2587,3.4143,0.0,4.0277,4.2751,4.3888,4.7429,4.9299,4.9299,5.0571,5.1229,5.1229,5.1229,5.1229,5.1229,5.1229,5.1229,5.1229,5.1229,5.1738,5.2546,5.2546,5.3354,5.4551,5.4551,5.482,5.5179,5.5179,5.5179,5.5329,5.6196,5.6765,5.7244,5.8171,5.877,5.9207,5.9667,6.0167,6.0607,6.0949,6.1175,6.1348,6.143,6.1379,6.1348,6.1551,6.1702,6.2003,6.2597,6.3228,6.38,6.4439,6.4988,6.5425,6.5425,6.5425,6.5425,6.5425,6.5425,6.5425,6.5425,6.5647,6.5824,6.5911,6.6259,6.655,6.6592,6.6728,6.6812,6.6812,6.6812,6.6812,6.6812,6.6812,6.6812,6.6812,6.6812,6.6812,6.6812,6.6812,6.6812,6.6812,6.6812,6.6812]}]]